     2              OBSERVATION DATA    GPS                 RINEX VERSION / TYPE
ASRINEXO V2.4.4 UX USGS 24-FEB-96 16:20                     PGM / RUN BY / DATE
                                                            COMMENT
Contact: kwendt@isdmnl.wr.usgs.gov (Ph: 415-329-4866)       COMMENT
Contact: kwendt@isdmnl.wr.usgs.gov (Ph: 415-329-4866)       COMMENT
Contact: kwendt@isdmnl.wr.usgs.gov (Ph: 415-329-4866)       COMMENT
Contact: kwendt@isdmnl.wr.usgs.gov (Ph: 415-329-4866)       COMMENT
Contact: kwendt@isdmnl.wr.usgs.gov (Ph: 415-329-4866)       COMMENT
Contact: kwendt@isdmnl.wr.usgs.gov (Ph: 415-329-4866)       COMMENT
Original Marker Name: m137 M_1377_1984_CGS                  COMMENT
Campaign Name: USGS Yucca Profile                           COMMENT
4-Character Station Name: M137                              COMMENT
6-Character Antenna Code: ASHGD3                            COMMENT
Vertical Measurement Point: EGP                             COMMENT
Vertical Offset to Rinex Ref. Point: 0.0594                 COMMENT
Radial Measurement Point: EGP                               COMMENT
Radial Offset to Rinex Ref. Point: 0.1837                   COMMENT
Antenna Height from Field Measurement: 1.5200 m             COMMENT
Additional Antenna Identification Info.:                    COMMENT
The Whopper (700718AB)                                      COMMENT
Original XYZ: -2358643.8500 -4570693.5800 3759115.3200      COMMENT
New XYZ position is based on association with SCEC monument COMMENT
E1F4S4X7+0011. Position of that monument is believed to be  COMMENT
valid to within 1 m horizontally; vertical accuracy         COMMENT
should be no worse than 3-times this value.                 COMMENT
                                                            COMMENT
Revised Rinex header created by UCSD GPS archive for        COMMENT
GSAC on 08-Aug-2000 (2000:221) 00:04:13 GMT                 COMMENT
For assistance contact dagnew@ucsd.edu                      COMMENT
or anderson@python.ucsd.edu                                 COMMENT
                                                            COMMENT
M1377 1989                                                  MARKER NAME
JMS US GEOLOGICAL SURVEY                                    OBSERVER / AGENCY
707 ASHTECH Z-XII3 1F00                                     REC # / TYPE / VERS
11404 ASHTECH GEODETIC III                                  ANT # / TYPE
 -2359279.2847 -4571065.8756  3760088.2460                  APPROX POSITION XYZ
        1.4495        0.0000        0.0000                  ANTENNA: DELTA H/E/N
     1     1     0                                          WAVELENGTH FACT L1/2
     5    C1    L1    L2    P1    P2                        # / TYPES OF OBSERV
    30                                                      INTERVAL
  1996     2    18    16    48    0.000000                  TIME OF FIRST OBS
  1996     2    18    23    40   30.000000                  TIME OF LAST OBS
                                                            END OF HEADER
 96  2 18 16 48  0.0000000  0  5 29  4 25 18 14
  14900476.633       -9400.20419
  18666957.007       -3727.06619
  18548727.258       25914.60119
  16571158.036      -18944.48319
  14520946.205       16320.22119      6865.67359                  14520951.8314
 96  2 18 16 48 30.0000000  0  7 19 29  4 25 22 18 14
  18190668.854      -75773.65519
  14894718.975      -39663.357 9
  18665638.088      -10652.919 9     -6838.52659                  18665643.4374
  18565759.223      115426.982 9     75188.98459                  18565766.4894
  15311505.293       17918.22919     10432.72959                  15311509.7984
  16556324.715      -96853.23559    -65440.35459  16556326.9644   16556332.7574
  14527353.720       49994.62959     33105.44049  14527354.5424   14527359.6794
 96  2 18 16 49  0.0010000  0  5 29  4 25 18 14
  21184602.763      -69917.318 9
  24960014.596      -17306.75359    -12023.37049  24960014.1284   24960018.5004
  24878381.976      204640.13159    144705.69349  24878381.1894   24878385.9774
  22837136.433     -174839.35749   -126208.74949  22837128.4144   22837133.8084
  20829457.552       83952.02349     59565.73649  20829458.4514   20829463.8574
 96  2 18 16 49 30.0010000  0  7 19 29  4 25 22 18 14
  24452320.915     -254392.33759   -186255.64759  24452322.4194   24452329.4364
  21178832.887     -100250.492 9
  24958792.045      -23729.45959    -17028.10259  24958791.7994   24958797.3414
  24895319.060      293650.94859    214064.72859  24895318.9974   24895320.6884
  21613139.550       49389.49059     34955.79549  21613136.1454   21613140.8284
  22822251.312     -253029.90759   -187136.43259  22822249.6724   22822254.9914
  20835975.937      118210.48259     86260.61959  20835977.6874   20835982.8864
 96  2 18 16 50  0.0010000  0  7 19 29  4 25 22 18 14
  24435280.868     -343922.56359   -256019.42459  24435285.2344   24435292.4404
  21173041.144     -130677.52859    -23946.85359  21173041.7534   21173045.6514
  24957607.942      -29944.45249    -21871.00549  24957609.3524   24957613.9374
  24912204.651      382372.41449    283198.33449  24912209.2034   24912209.1144
  21616213.618       65588.04759     47578.05459  21616217.8094   21616222.7064
  22807336.094     -331405.35349   -248208.19849  22807335.1284   22807340.5104
  20842543.393      152719.48449    113150.73649  20842544.3674   20842549.8284
 96  2 18 16 50 30.0010000  0  7 19 29  4 25 22 18 14
  24418219.200     -433599.78149   -325897.74949  24418219.2584   24418226.3634
  21167231.721     -161203.20859    -47733.09249  21167232.9214   21167237.0624
  24956463.895      -35950.87049    -26551.35349  24956466.1584   24956472.1964
  24929024.252      470782.86749                                  24929026.6034
  21619358.178       82081.05849     60429.75349  21619357.0234   21619361.5354
  22792377.444     -410004.50149   -309454.27249  22792377.6154   22792383.0944
  20849153.619      187455.66549    140217.87849  20849154.3414   20849160.0744
 96  2 18 16 51  0.0010000  0  7 19 29  4 25 22 18 14
  24401128.941     -523414.79049   -395883.45449  24401127.8994   24401135.7784
  21161402.402     -191838.58049    -71604.81449  21161403.2084   21161407.4704
  24955359.497      -41757.92949    -31076.38749  24955360.2004   24955365.9354
  24945789.460      558883.02819
  21622549.894       98871.11749     73512.92449  21622551.2234   21622556.4904
  22777375.922     -488837.60449   -370882.64949  22777376.4924   22777382.0344
  20855807.127      222421.45449    167463.93249  20855808.2304   20855813.3974
 96  2 18 16 51 30.0010000  0  6 19 29  4 22 18 14
  24384016.460     -613331.95949   -465948.75249  24384018.0044   24384025.2524
  21155557.133     -222554.96749    -95539.67249  21155558.1314   21155562.3044
  24954296.366      -47350.20749    -35434.03149  24954297.0634   24954303.0784
  21625811.940      115988.52649     86851.15449  21625808.8804   21625813.3894
  22762334.002     -567883.37549   -432476.72149  22762334.4244   22762340.2594
  20862512.331      257651.56849    194915.98149  20862512.2704   20862517.9774
 96  2 18 16 52  0.0010000  0  6 19 29  4 22 18 14
  24366888.643     -703346.19949   -536089.69249  24366888.9824   24366896.5664
  21149700.480     -253331.23749   -119521.17849  21149701.7004   21149706.2414
  24953270.824      -52723.78749    -39621.27849  24953274.1134   24953279.2074
  21629130.804      133448.48949    100456.32849  21629130.9184   21629136.4134
  22747253.303     -647131.15549   -494228.25549  22747253.9694   22747259.3974
  20869267.425      293154.79049    222580.78549  20869268.4484   20869273.8684
 96  2 18 16 52 30.0010000  0  6 19 29  4 22 18 14
  24349742.813     -793443.03749   -606294.98849  24349743.3834   24349751.7324
  21143834.322     -284162.09449   -143545.22549  21143834.8274   21143838.9854
  24952295.406      -57866.17549    -43628.37749  24952296.0834   24952301.4984
  21632517.637      151243.30549    114322.40949  21632517.6884   21632522.0534
  22732141.718     -726551.41249   -556114.16749  22732141.1844   22732146.4094
  20876080.583      328955.06749    250477.10349  20876080.8624   20876086.4164
 96  2 18 16 53  0.0010000  0  6 19 29  4 22 18 14
  24332588.246     -883601.22249   -676548.13249  24332587.2024   24332594.3184
  21137957.806     -315040.67349   -167606.46249  21137958.7874   21137963.1184
  24951361.501      -62764.43149    -47445.21549  24951364.4244   24951370.7714
  21635968.885      169389.55849    128462.33849  21635970.5134   21635975.7364
  22717002.267     -806108.01849   -618106.32649  22717002.4574   22717007.2454
  20882955.602      365086.57149    278631.49149  20882956.6674   20882962.0934
 96  2 18 16 53 30.0010000  0  6 19 29  4 22 18 14
  24315415.331     -973824.34249   -746851.84249  24315418.4134   24315425.2894
  21132079.165     -345931.51349   -191677.25449  21132080.4944   21132084.5964
  24950481.293      -67397.65149    -51055.55649  24950482.6074   24950488.3294
  21639494.505      187913.51349    142896.56849  21639495.8144   21639500.0024
  22701842.512     -885775.99249   -680185.27249  22701842.2464   22701846.9834
  20889898.793      401570.02749    307060.14949  20889899.1254   20889904.3344
 96  2 18 16 54  0.0010000  0  6 19 29  4 22 18 14
  24298240.249    -1064092.45649   -817190.62549  24298241.2644   24298248.6254
  21126207.229     -376790.25249   -215723.03149  21126208.0124   21126212.5194
  24949658.872      -71725.34349    -54427.81049  24949659.0914   24949665.8604
  21643100.002      206851.11149    157653.12049  21643099.4364   21643103.9964
  22686668.050     -965518.77749   -742322.50249  22686667.8034   22686672.5854
  20896913.609      438435.15449    335786.20649  20896914.9334   20896920.4084
 96  2 18 16 54 30.0010000  0  6 19 29  4 22 18 14
  24281059.497    -1154383.76049   -887547.50349  24281059.1214   24281066.7014
  21120348.314     -407579.61649   -239714.75049  21120349.2654   21120353.2734
  24948900.251      -75703.97249    -57528.07549  24948902.0294   24948907.9464
  21646790.321      226235.24749    172757.63249  21646787.9134   21646793.0484
  22671481.944    -1045314.77549   -804501.19349  22671482.6214   22671487.4694
  20904006.534      475704.98049    364827.61049  20904006.6424   20904012.1504
 96  2 18 16 55  0.0010000  0  6 19 29  4 22 18 14
  24263872.974    -1244701.41249   -957924.88349  24263872.1804   24263879.5104
  21114508.988     -438264.92149   -263625.38249  21114510.1054   21114513.9944
  24948213.966      -79313.00049    -60340.34249  24948215.1804   24948221.3384
  21650569.890      246103.73849    188239.56249  21650568.8394   21650573.8504
  22656288.878    -1125161.90649   -866719.73649  22656287.8064   22656293.3114
  20911177.231      513389.83249    394192.41549  20911178.0894   20911183.4294
 96  2 18 16 55 30.0010000  0  6 19 29  4 22 18 14
  24246681.127    -1335032.05249  -1028312.37749  24246682.8644   24246690.2324
  21108691.942     -468833.43749   -287445.01249  21108693.1574   21108696.8784
  24947596.936      -82552.01649    -62864.26349  24947598.4104   24947605.0264
  21654444.298      266464.35649    204104.97249  21654443.4614   21654448.2574
  22641085.618    -1205050.15249   -928970.31149  22641086.0244   22641091.0454
  20918424.822      551475.06849    423869.19849  20918425.4634   20918431.2234
 96  2 18 16 56  0.0010000  0  6 19 29  4 22 18 14
  24229497.558    -1425337.18849  -1098679.99349  24229498.2034   24229506.5204
  21102896.562     -499292.20549   -311179.12149  21102897.1434   21102901.0404
  24947053.824      -85412.93549    -65093.58649  24947054.2764   24947060.6124
  21658409.407      287309.04349    220347.56849  21658410.4484   21658414.8364
  22625879.828    -1284957.36849   -991235.67249  22625880.0364   22625885.4314
  20925748.494      589959.75749    453857.24849  20925749.1474   20925753.9774
 96  2 18 16 56 30.0010000  0  6 19 29  4 22 18 14
  24212324.663    -1515586.85049  -1169004.38749  24212324.6334   24212331.6024
  21097123.123     -529628.36149   -334817.68849  21097124.3754   21097128.5524
  24946583.275      -87884.81149    -67019.75249  24946585.1684   24946589.2814
  21662472.819      308655.95449    236981.51349  21662472.6574   21662477.1714
  22610675.557    -1364857.78249  -1053495.72649  22610675.8284   22610680.4334
  20933150.870      628862.94849    484171.40449  20933151.7994   20933157.4534
 96  2 18 16 57  0.0010000  0  6 19 29  4 22 18 14
  24195171.183    -1605731.50549  -1239246.93749  24195170.6064   24195177.4944
  21091378.479     -559821.43749   -358344.76249  21091378.7274   21091383.0444
  24946186.024      -89963.39949    -68639.45549  24946187.7304   24946194.9994
  21666634.329      330523.79949    254021.38349  21666634.1044   21666638.7064
  22595479.516    -1444716.12249  -1115723.00249  22595479.3894   22595483.8594
  20940637.151      668200.61949    514824.11149  20940637.6794   20940643.0634
 96  2 18 16 57 30.0010000  0  6 19 29  4 22 18 14
  24178038.440    -1695750.32049  -1309391.44149  24178040.5834   24178048.1974
  21085656.235     -589884.32149   -381770.39349  21085657.8784   21085662.1244
  24945864.762      -91658.38849    -69960.28549  24945865.9524   24945870.1694
  21670893.881      352901.60649    271458.61349  21670892.5904   21670896.4324
  22580293.859    -1524522.52349  -1177909.80149  22580292.9754   22580297.3414
  20948204.437      707967.85849    545811.54649  20948205.0354   20948210.9674
 96  2 18 16 58  0.0010000  0  6 19 29  4 22 18 14
  24160930.458    -1785649.58849  -1379442.79249  24160932.8674   24160940.6534
  21079963.330     -619809.43649   -405088.67249  21079963.5014   21079967.7514
  24945620.023      -92951.51849    -70967.94749  24945621.0644   24945625.6194
  21675245.503      375788.99049    289292.93049  21675247.3984   21675252.6514
  22565114.647    -1604284.52349  -1240061.99749  22565114.4094   22565119.6134
  20955858.446      748185.08349    577149.62049  20955858.4614   20955863.6664
 96  2 18 16 58 30.0010000  0  6 19 29  4 22 18 14
  24143848.811    -1875419.39649  -1449393.23849  24143850.0164   24143857.0134
  21074298.950     -649571.97149   -428280.26549  21074299.9194   21074303.8294
  24945452.255      -93826.29049    -71649.62449  24945454.4604   24945459.2984
  21679704.101      399209.18549    307542.42349  21679704.2104   21679709.2894
  22549942.988    -1684002.19849  -1302179.65949  22549944.7334   22549949.5844
  20963600.119      788874.49249    608855.62549  20963601.2904   20963606.6404
 96  2 18 16 59  0.0010000  0  6 19 29  4 22 18 14
  24126796.417    -1965049.32849  -1519234.70849  24126794.9684   24126802.1424
  21068666.688     -679168.44749   -451342.46349  21068667.6474   21068671.5214
  24945368.441      -94271.26149    -71996.37249  24945368.0464   24945376.2524
  21684262.295      423162.82849    326207.59049  21684262.3694   21684267.4124
  22534784.806    -1763665.82549  -1364255.19249  22534784.6074   22534789.7914
  20971437.353      830056.72449    640945.66349  20971437.9594   20971443.4454
 96  2 18 16 59 30.0010000  0  6 19 29  4 22 18 14
  24109762.078    -2054551.08049  -1588976.29449  24109763.1614   24109769.9134
  21063067.884     -708593.42749   -474271.02049  21063068.5374   21063072.4144
  24945367.756      -94267.35249    -71993.38049  24945370.2834   24945375.1514
  21688924.361      447659.15949    345295.63949  21688924.0674   21688929.0744
  22519634.032    -1843278.06549  -1426290.71649  22519635.3144   22519640.1244
  20979373.044      871760.70649    673442.24249  20979373.9304   20979379.4884
 96  2 18 17  0  0.0010000  0  6 19 29  4 22 18 14
  24092756.905    -2143918.94549  -1658613.53349  24092757.1914   24092763.6544
  21057503.959     -737833.94549   -497055.84149  21057504.3974   21057508.0904
  24945456.311      -93807.02949    -71634.71049  24945458.0264   24945464.0114
  21693689.119      472703.80949    364810.95049  21693689.6804   21693694.4454
  22504496.793    -1922829.96149  -1488279.19849  22504497.1824   22504501.8224
  20987411.631      914001.01649    706356.75249  20987412.0754   20987417.4244
 96  2 18 17  0 30.0010000  0  6 19 29  4 22 18 14
  24075774.829    -2233143.89149  -1728139.43449  24075777.1084   24075784.6934
  21051973.431     -766889.89449   -519696.84649  21051974.9474   21051979.0984
  24945628.133      -92905.76249    -70932.45849  24945629.2594   24945634.7384
  21698561.952      498302.23449    384757.76349  21698561.0664   21698565.8424
  22489374.280    -2002303.29149  -1550206.46949  22489374.3364   22489378.5824
  20995549.766      956767.39549    739681.18249  20995550.3204   20995555.4114
 96  2 18 17  1  0.0010000  0  6 19 29  4 22 18 14
  24058825.774    -2322224.17949  -1797552.60049  24058825.7584   24058832.4084
  21046483.657     -795744.96549   -542181.32449  21046484.0464   21046488.0624
  24945885.205      -91550.48849    -69876.46649  24945887.4544   24945891.9224
  21703540.811      524470.11249    405148.30949  21703540.3404   21703545.2924
  22474269.575    -2081678.43849  -1612057.22449  22474269.2234   22474274.2754
  21003788.515     1000060.65249    773416.16449  21003788.6204   21003794.1584
 96  2 18 17  1 30.0010000  0  6 19 29  4 22 18 14
  24041901.568    -2411167.40849  -1866858.97149  24041901.2144   24041907.7014
  21041033.428     -824382.17749   -564496.04449  21041034.4944   21041038.4904
  24946230.582      -89740.90549    -68466.42149  24946230.9444   24946236.0294
  21708631.627      551210.84149    425985.23249  21708629.3684   21708633.9694
  22459184.606    -2160953.24949  -1673829.80249  22459183.7254   22459188.6014
  21012123.978     1043863.25149    807548.03749  21012124.1584   21012129.5854
 96  2 18 17  2  0.0010000  0  6 19 29  4 22 18 14
  24025002.565    -2499970.47149  -1936056.13349  24025002.2604   24025008.2604
  21035625.686     -852801.64749   -586641.09349  21035626.3644   21035630.7954
  24946659.947      -87490.14349    -66712.62249  24946659.3204   24946664.4824
  21713825.559      578517.47449    447263.11749  21713825.4844   21713830.2434
  22444119.315    -2240113.52049  -1735513.12349  22444120.2364   22444125.3794
  21020551.353     1088150.60949    842057.64049  21020551.7054   21020557.1544
 96  2 18 17  2 30.0010000  0  6 19 29  4 22 18 14
  24008129.197    -2588638.01649  -2005147.70349  24008128.3204   24008136.5024
  21030262.093     -880987.01649   -608603.72349  21030263.1504   21030267.1624
  24947175.098      -84780.98049    -64601.63249  24947174.9434   24947180.1304
  21719131.072      606396.37349    468986.92749  21719130.4734   21719135.6584
  22429077.481    -2319159.00949  -1797107.01149  22429078.1294   22429083.1304
  21029071.609     1132924.85149    876946.63749  21029072.2094   21029077.6294
 96  2 18 17  3  0.0010000  0  6 19 29  4 22 18 14
  23991279.084    -2677186.57049  -2074146.52949  23991279.1444   23991285.4324
  21024943.177     -908936.71349   -630382.71449  21024944.4134   21024948.4214
  24947779.033      -81613.14549    -62133.23249  24947779.2774   24947784.9224
  21724541.437      634833.42149    491145.66049  21724542.1314   21724546.8024
  22414053.883    -2398108.11949  -1858625.79249  22414055.0044   22414060.0534
  21037684.573     1178186.74649    912215.62249  21037685.1574   21037690.4734
 96  2 18 17  3 30.0010000  0  6 19 29  4 22 18 14
  23974448.701    -2765612.35549  -2143049.70649  23974450.5844   23974458.7314
  21019667.907     -936666.29249   -651990.18149  21019667.8334   21019671.5364
  24948465.431      -77995.97749    -59314.70049  24948466.7544   24948472.6274
  21730056.328      663801.09749    513717.87149  21730054.5334   21730059.2104
  22399045.853    -2476977.48249  -1920082.44449  22399046.5454   22399051.5504
  21046390.066     1223933.02449    947862.04749  21046390.5374   21046395.7104
 96  2 18 17  4  0.0010000  0  6 19 29  4 22 18 14
  23957652.795    -2853896.97349  -2211842.88449  23957651.7494   23957657.6804
  21014430.243     -964184.34849   -673432.82749  21014431.2414   21014435.3694
  24949243.585      -73914.67049    -56134.50549  24949243.2434   24949249.1224
  21735666.976      693300.14549    536704.13749  21735667.6234   21735672.7204
  22384051.278    -2555766.69349  -1981476.62949  22384053.2874   22384058.6044
  21055187.613     1270164.54449    983886.58349  21055187.8524   21055193.2174
 96  2 18 17  4 30.0010000  0  6 19 29  4 22 18 14
  23940878.691    -2942033.23549  -2280520.46649  23940879.5074   23940886.2244
  21009236.205     -991481.52549   -694703.36049  21009236.6274   21009240.6974
  24950111.134      -69343.50749    -52572.59949  24950112.1924   24950120.2724
  21741384.551      723344.85349    560115.59449  21741385.1694   21741390.3814
  22369074.627    -2634472.26249  -2042805.64049  22369075.7674   22369080.7274
  21064079.449     1316892.42949   1020297.90349  21064079.9454   21064085.7824
 96  2 18 17  5  0.0010000  0  6 19 29  4 22 18 14
  23924139.556    -3030004.23549  -2349069.27549  23924139.9294   23924145.8744
  21004079.664    -1018576.57849   -715816.39049  21004080.6474   21004084.7704
  24951071.847      -64293.85849    -48637.85549  24951073.7524   24951081.1724
  21747207.432      753944.55249    583959.51149  21747208.1554   21747213.3944
  22354114.953    -2713089.48049  -2104065.79949  22354115.5054   22354119.8784
  21073063.636     1364104.46949   1057086.48249  21073064.2184   21073069.7034
 96  2 18 17  5 30.0010000  0  6 19 29  4 22 18 14
  23907438.385    -3117770.20349  -2417458.31449  23907438.4584   23907444.5974
  20998964.436    -1045457.82049   -736762.82549  20998965.4374   20998969.8104
  24952131.509      -58742.18849    -44311.92449  24952131.8754   24952136.1164
  21753144.346      785142.27449    608269.42349  21753145.0604   21753150.0574
  22339181.762    -2791571.60149  -2165220.70449  22339180.9914   22339185.8774
  21082141.710     1411809.78249   1094259.42449  21082142.1634   21082147.7484
 96  2 18 17  6  0.0010000  0  6 19 29  4 22 18 14
  23890773.762    -3205331.81549  -2485688.11849  23890775.6294   23890782.2594
  20993893.344    -1072106.70249   -757528.19349  20993894.1494   20993898.5174
  24953281.425      -52686.15049    -39592.97049  24953282.9634   24953290.3324
  21759202.145      816968.68249    633069.21149  21759201.3304   21759206.2134
  22324277.911    -2869884.68449  -2226243.87749  22324277.9984   22324283.2204
  21091317.547     1460026.79749   1131831.10349  21091317.7804   21091323.2754
 96  2 18 17  6 30.0010000  0  6 19 29  4 22 18 14
  23874158.269    -3292663.85649  -2553739.04149  23874156.9354   23874163.8164
  20988876.715    -1098471.41949   -778072.13949  20988877.3834   20988881.4884
  24954531.454      -46127.06449    -34482.04549  24954532.4954   24954537.4534
  21765383.412      849457.62049    658385.27249  21765384.0354   21765388.9134
  22309416.028    -2947989.72249  -2287104.95049  22309415.6004   22309420.8414
  21100599.022     1508803.12549   1169838.60149  21100599.3044   21100605.0774
 96  2 18 17  7  0.0010000  0  6 19 29  4 22 18 14
  23857587.578    -3379747.80349  -2621596.63549  23857585.5464   23857592.6014
  20983916.909    -1124533.00249   -798379.87549  20983918.2144   20983922.1754
  24955873.059      -39076.46449    -28988.12149  24955874.2304   24955879.3764
  21771692.282      882602.27049    684212.26049  21771691.1994   21771696.0734
  22294593.613    -3025873.62949  -2347793.69749  22294594.7344   22294600.4234
  21109992.117     1558160.21649   1208298.64849  21109992.0194   21109997.4894
 96  2 18 17  7 30.0010000  0  6 19 29  4 22 18 14
  23841060.605    -3466583.79649  -2689261.03349  23841061.2564   23841067.7484
  20979023.925    -1150250.49949   -818419.49449  20979024.2544   20979028.3034
  24957308.324      -31535.17749    -23111.83549  24957309.7514   24957313.3584
  21778119.633      916386.63349    710537.73049  21778119.8424   21778124.7924
  22279816.030    -3103531.02549  -2408305.95449  22279817.5264   22279822.6724
  21119499.909     1608128.99049   1247235.32349  21119500.6844   21119506.1874
 96  2 18 17  8  0.0010000  0  6 19 29  4 22 18 14
  23824585.350    -3553166.02349  -2756727.69549  23824586.9434   23824592.3464
  20974200.961    -1175593.60549   -838167.37249  20974201.5554   20974205.7824
  24958836.289      -23505.07549    -16854.67049  24958837.5364   24958841.6214
  21784667.236      950797.08049    737351.05649  21784668.2214   21784672.9434
  22265082.005    -3180975.74949  -2468652.49849  22265080.2544   22265085.6994
  21129131.228     1658738.50049   1286671.28349  21129131.2954   21129136.6434
 96  2 18 17  8 30.0010000  0  6 19 29  4 22 18 14
  23808157.334    -3639504.42849  -2824004.35749  23808156.2224   23808162.5244
  20969446.723    -1200577.67049   -857635.47849  20969447.2184   20969451.2404
  24960456.700      -14989.45649    -10219.16949  24960457.4474   24960461.8864
  21791330.469      985807.68849    764632.03449  21791330.4314   21791335.5934
  22250377.795    -3258233.05249  -2528852.99349  22250378.0384   22250383.9724
  21138876.370     1709951.85849   1326577.76649  21138876.7854   21138882.5034
 96  2 18 17  9  0.0010000  0  6 19 29  4 22 18 14
  23791776.163    -3725581.33049  -2891077.25249  23791777.4014   23791783.2424
  20964761.819    -1225198.57249   -876820.59949  20964761.8704   20964766.2914
  24962177.195       -5934.95349     -3163.74049  24962180.0744   24962185.5074
  21798113.504     1021437.23349    792395.30649  21798110.4054   21798115.3884
  22235713.507    -3335296.80149  -2588902.66149  22235713.6224   22235718.8574
  21148738.056     1761773.54349   1366958.27249  21148738.5254   21148743.9424
 96  2 18 17  9 30.0010000  0  6 19 29  4 22 18 14
  23775445.034    -3811396.11049  -2957945.89449  23775446.6104   23775453.4344
  20960143.769    -1249463.64549   -895728.45049  20960144.6794   20960148.7284
  24964007.104        3676.24349      4325.49349  24964009.0144   24964015.8514
  21805011.647     1057704.33849    820655.37949  21805012.0784   21805016.7934
  22221087.788    -3412156.12049  -2648793.03949  22221087.6824   22221092.8884
  21158712.839     1814194.93449   1407806.07649  21158713.6484   21158719.4514
 96  2 18 17 10  0.0010000  0  6 19 29  4 22 18 14
  23759173.861    -3896910.95049  -3024580.80649  23759174.1044   23759181.1144
  20955596.159    -1273362.76849   -914351.15049  20955596.5264   20955600.9554
  24965954.455       13909.85449     12299.68549  24965956.5784   24965961.7484
  21812046.608     1094665.69849    849456.43149  21812045.5504   21812050.4304
  22206512.190    -3488752.94249  -2708478.87149  22206511.8244   22206516.7884
  21168806.176     1867230.92749   1449132.80049  21168806.2664   21168811.8174
 96  2 18 17 10 30.0010000  0  6 19 29  4 22 18 14
  23742952.239    -3982141.51449  -3090994.21949  23742954.3544   23742961.2054
  20951113.707    -1296920.60349   -932707.90749  20951113.7844   20951117.9484
  24968021.400       24770.39649     20762.42349  24968023.3914   24968028.7364
  21819209.356     1132314.09749    878792.83449  21819209.9784   21819214.6844
  22191985.984    -3565085.84549  -2767959.05349  22191986.1364   22191991.3994
  21179009.983     1920858.01149   1490920.10549  21179011.1384   21179016.9204
 96  2 18 17 11  0.0010000  0  6 19 29  4 22 18 14
  23726792.337    -4067077.17149  -3157177.82349  23726790.8754   23726799.1364
  20946696.545    -1320128.64749   -950792.10349  20946697.4724   20946701.6754
  24970208.883       36253.93449     29710.57849  24970208.2814   24970213.7264
  21826505.306     1170655.72949    908669.41949  21826506.1324   21826510.9884
  22177512.088    -3641151.55049  -2827231.03049  22177511.5174   22177516.2714
  21189333.362     1975101.03449   1533187.37349  21189333.2354   21189338.6484
 96  2 18 17 11 30.0010000  0  6 19 29  4 22 18 14
  23710683.740    -4151718.73449  -3223132.26049  23710683.9014   23710692.9704
  20942348.161    -1342978.94449   -968597.53749  20942349.1804   20942353.5904
  24972506.884       48329.96949     39120.41949  24972507.2704   24972511.7434
  21833929.924     1209674.43149    939073.59149  21833931.3344   21833935.7544
  22163089.550    -3716937.31249  -2886284.85649  22163089.9874   22163094.9064
  21199771.221     2029956.98749   1575932.23849  21199771.4394   21199777.6254
 96  2 18 17 12  0.0010000  0  6 19 29  4 22 18 14
  23694632.591    -4236066.90149  -3288858.07849  23694633.8684   23694642.1924
  20938070.525    -1365460.87849   -986115.93149  20938071.1424   20938075.5184
  24974915.596       60989.41149     48984.86849  24974916.9574   24974922.5684
  21841485.755     1249363.62249    970000.22049  21841484.0314   21841488.6614
  22148720.544    -3792453.82349  -2945128.89149  22148719.5384   22148725.1044
  21210327.751     2085426.57349   1619155.26249  21210327.7054   21210333.8284
 96  2 18 17 12 30.0010000  0  6 19 29  4 22 18 14
  23678638.730    -4320108.76949  -3354345.22649  23678641.3854   23678649.5694
  20933864.901    -1387562.44449  -1003337.93649  20933865.4014   20933869.3524
  24977430.786       74204.53549     59282.32249  24977431.8004   24977436.3804
  21849163.936     1289710.24849   1001439.13249  21849161.5284   21849166.3974
  22134398.544    -3867714.98549  -3003773.95149  22134397.7224   22134403.0324
  21221000.479     2141513.51149   1662859.34349  21221000.4264   21221005.8784
 96  2 18 17 13  0.0010000  0  6 19 29  4 22 18 14
  23662707.005    -4403832.98149  -3419584.83649  23662708.4294   23662717.3504
  20929732.501    -1409276.70349  -1020258.14549  20929733.4684   20929737.2174
  24980047.106       87962.16549     70002.52749  24980047.5314   24980054.2074
  21856964.905     1330713.94249   1033390.04149  21856963.9734   21856969.1374
  22120122.844    -3942720.12349  -3062219.49849  22120124.5804   22120130.1234
  21231788.813     2198209.94649   1707038.35649  21231789.7244   21231795.3584
 96  2 18 17 13 30.0010000  0  6 19 29  4 22 18 14
  23646837.867    -4487248.70149  -3484584.05449  23646834.9934   23646843.7144
  20925670.835    -1430621.74749  -1036890.64649  20925671.3264   20925675.5374
  24982765.638      102256.77349     81141.15449  24982768.4064   24982772.0924
  21864891.873     1372359.84049   1065841.37549  21864888.9724   21864893.7984
  22105900.194    -4017468.45949  -3120464.94849  22105900.6924   22105905.9804
  21242689.239     2255487.66349   1751670.31349  21242689.6594   21242694.8554
 96  2 18 17 14  0.0010000  0  6 19 29  4 22 18 14
  23631016.921    -4570377.15949  -3549359.45349  23631016.8324   23631024.4814
  20921672.697    -1451632.04149  -1053262.30949  20921673.1194   20921677.4894
  24985590.844      117086.88049     92697.03149  24985590.1354   24985594.2664
  21872936.976     1414641.62749   1098788.20149  21872935.2514   21872940.0484
  22091720.797    -4091985.33549  -3178530.04949  22091720.5834   22091725.5824
  21253696.225     2313331.60449   1796743.49249  21253696.6454   21253701.9414
 96  2 18 17 14 30.0010000  0  6 19 29  4 22 18 14
  23615251.252    -4653227.95149  -3613918.49349  23615250.5014   23615258.0474
  20917736.904    -1472313.26249  -1069377.55449  20917737.6744   20917741.6724
  24988513.724      132443.65549    104663.29149  24988512.6064   24988519.2964
  21881100.628     1457549.32549   1132222.75649  21881100.1234   21881105.4214
  22077582.623    -4166278.25749  -3236420.62149  22077583.0224   22077588.1244
  21264812.154     2371742.45549   1842258.40949  21264812.4064   21264817.9034
 96  2 18 17 15  0.0010000  0  6 19 29  4 22 18 14
  23599534.733    -4735807.99649  -3678266.54149  23599536.0234   23599542.8304
  20913865.130    -1492661.32249  -1085233.18749  20913865.8034   20913869.8204
  24991536.843      148338.41149    117048.74249  24991537.4254   24991545.2514
  21889385.066     1501093.26249   1166153.08249  21889385.9774   21889390.9364
  22063491.583    -4240335.76149  -3294127.76049  22063490.5424   22063495.6704
  21276036.289     2430731.17849   1888223.61749  21276037.0264   21276042.7054
 96  2 18 17 15 30.0010000  0  6 19 29  4 22 18 14
  23583867.370    -4818148.15849  -3742427.68649  23583867.7224   23583873.5894
  20910053.225    -1512690.08049  -1100840.01949  20910054.3194   20910058.4074
  24994659.940      164758.35749    129843.49949  24994661.4124   24994668.8374
  21897792.804     1545261.72649   1200570.05649  21897791.1524   21897796.1344
  22049442.750    -4314161.46949  -3351654.27249  22049442.0694   22049447.4004
  21287371.352     2490294.59149   1934636.64349  21287371.7984   21287377.2064
 96  2 18 17 16  0.0010000  0  6 19 29  4 22 18 14
  23568238.901    -4900268.12749  -3806417.24749  23568240.9894   23568246.4104
  20906304.945    -1532388.88149  -1116189.74349  20906305.8774   20906309.8814
  24997881.320      181678.57349    143028.03849  24997881.9854   24997888.9464
  21906312.992     1590042.80349   1235464.39349  21906312.5624   21906317.3824
  22035435.683    -4387763.16849  -3409006.23849  22035436.2024   22035441.1904
  21298815.958     2550433.78649   1981498.32549  21298815.7354   21298821.3364
 96  2 18 17 16 30.0010000  0  6 19 29  4 22 18 14
  23552649.469    -4982194.18049  -3870255.71049  23552650.1504   23552656.0424
  20902617.661    -1551766.91049  -1131289.51149  20902618.4294   20902622.4124
  25001189.687      199061.01849    156572.74549  25001190.5614   25001194.9394
  21914943.992     1635402.84249   1270809.86149  21914944.6134   21914949.5404
  22021467.240    -4461165.56149  -3466202.90049  22021468.0814   22021473.3114
  21310358.524     2611093.55749   2028765.64649  21310359.1544   21310364.6514
 96  2 18 17 17  0.0010000  0  6 19 29  4 22 18 14
  23537095.834    -5063927.46049  -3933943.95649  23537096.4354   23537103.2394
  20898992.058    -1570821.01549  -1146136.87349  20898992.4604   20898996.4494
  25004586.113      216908.83349    170480.06249  25004585.9094   25004591.7534
  21923687.321     1681345.47649   1306609.30949  21923687.0084   21923691.7894
  22007540.260    -4534360.13849  -3523237.64049  22007539.8234   22007544.9134
  21321998.228     2672259.02449   2076427.02849  21321998.3124   21322004.0024
 96  2 18 17 17 30.0010000  0  6 19 29  4 22 18 14
  23521581.949    -5145459.03149  -3997475.02149  23521582.2274   23521587.7154
  20895430.231    -1589537.31849  -1160721.00949  20895431.0634   20895434.7904
  25008071.988      235231.27949    184757.23749  25008072.0544   25008079.1574
  21932541.280     1727873.86949   1342865.19049  21932541.1054   21932546.1484
  21993654.711    -4607327.98049  -3580095.70049  21993654.1404   21993659.3354
  21333734.705     2733941.67549   2124491.39749  21333736.0574   21333741.7844
 96  2 18 17 18  0.0010000  0  6 19 29  4 22 18 14
  23506110.011    -5226773.04649  -4060836.57949  23506108.4304   23506114.6884
  20891932.630    -1607917.36949  -1175043.13849  20891933.3224   20891937.3084
  25011647.184      254031.59749    199406.78849  25011647.3274   25011654.8494
  21941506.309     1774988.47549   1379577.86249  21941506.7064   21941511.7964
  21979812.610    -4680071.36649  -3636778.85449  21979811.8804   21979817.0234
  21345571.360     2796135.10149   2172953.78149  21345571.1854   21345576.7784
 96  2 18 17 18 30.0010000  0  6 19 29  4 22 18 14
  23490669.251    -5307887.00349  -4124042.23549  23490673.0614   23490678.7704
  20888489.044    -1626007.33649  -1189139.21949  20888490.5324   20888494.7444
  25015312.027      273293.67149    214416.16049  25015314.2234   25015321.0424
  21950577.910     1822656.74549   1416721.95749  21950577.4914   21950582.6894
  21966003.850    -4752627.61749  -3693316.18449  21966004.6294   21966009.7964
  21357496.927     2858809.20949   2221790.72149  21357497.5834   21357503.3674
 96  2 18 17 19  0.0010000  0  6 19 29  4 22 18 14
  23475281.575    -5388776.65649  -4187073.12949  23475280.4814   23475286.9594
  20885103.531    -1643804.88949  -1203007.45149  20885103.9314   20885108.0554
  25019067.800      293026.75549    229792.53849  25019069.5794   25019077.0214
  21959754.905     1870884.45049   1454301.97149  21959755.4154   21959760.2294
  21952238.870    -4824969.00549  -3749686.10249  21952238.6064   21952243.3104
  21369523.463     2922012.02149   2271039.63549  21369524.6984   21369530.5514
 96  2 18 17 19 30.0010000  0  6 19 29  4 22 18 14
  23459929.527    -5469432.88349  -4249922.11349  23459932.2574   23459938.4904
  20881770.650    -1661320.17449  -1216655.73049  20881771.1464   20881775.2244
  25022913.264      313221.50749    245528.68249  25022914.7084   25022920.3994
  21969037.884     1919663.56049   1492311.65049  21969037.4904   21969042.5014
  21938512.056    -4897099.70649  -3805891.83349  21938512.6854   21938517.7334
  21381652.070     2985744.24949   2320701.08349  21381652.2284   21381658.5504
 96  2 18 17 20  0.0010000  0  6 19 29  4 22 18 14
  23444633.875    -5549834.12149  -4312572.42349  23444631.8574   23444639.2564
  20878493.354    -1678540.40649  -1230074.09449  20878494.6074   20878498.5594
  25026848.401      333894.62249    261637.54549  25026848.8884   25026855.1874
  21978427.765     1969007.92449   1530761.79549  21978427.6084   21978432.5674
  21924821.933    -4969044.99149  -3861953.09149  21924821.5974   21924826.4644
  21393878.408     3049997.05249   2370768.17149  21393879.3764   21393885.1524
 96  2 18 17 20 30.0010000  0  6 19 29  4 22 18 14
  23429376.658    -5629999.37149  -4375038.83849  23429377.0204   23429384.1214
  20875270.108    -1695478.25249  -1243272.42749  20875271.2644   20875275.1884
  25030869.259      355015.39349    278095.24049  25030869.4294   25030873.3634
  21987919.835     2018888.45249   1569629.71649  21987919.5174   21987924.5804
  21911159.729    -5040839.70749  -3917897.02249  21911159.9924   21911164.7704
  21406202.089     3114753.07149   2421227.37549  21406202.4724   21406208.1154
 96  2 18 17 21  0.0010000  0  6 19 29  4 22 18 14
  23414165.490    -5709918.02249  -4437313.09949  23414169.5884   23414176.6384
  20872106.089    -1712105.79249  -1256228.95849  20872106.9914   20872111.1314
  25034975.612      376595.59449    294910.93349  25034975.0024   25034979.3614
  21997518.370     2069329.38249   1608934.31249  21997517.9794   21997523.2004
  21897528.356    -5112469.93749  -3973712.78049  21897529.1484   21897534.0714
  21418622.312     3180023.70449   2472087.57049  21418622.6804   21418628.5834
 96  2 18 17 21 30.0010000  0  6 19 29  4 22 18 14
  23399001.237    -5789600.90049  -4499403.65149  23399005.2974   23399012.7924
  20869004.856    -1728403.90749  -1268928.79649  20869005.5594   20869009.8324
  25039169.844      398647.47649    312094.19549  25039170.0804   25039176.2424
  22007222.986     2120327.18449   1648672.83349  22007222.7544   22007227.5364
  21883925.856    -5183950.74849  -4029412.10849  21883926.4904   21883931.4044
  21431135.679     3245780.68449   2523326.74849  21431136.2164   21431141.6294
 96  2 18 17 22  0.0010000  0  6 19 29  4 22 18 14
  23383883.941    -5869071.87049  -4561329.07549  23383882.8004   23383890.5584
  20865965.204    -1744377.91149  -1281376.07949  20865965.8514   20865970.0004
  25043453.079      421148.01749    329627.05049  25043453.3774   25043457.4694
  22017028.541     2171859.26049   1688827.67649  22017029.0934   22017033.9294
  21870351.611    -5255286.13349  -4084998.12249  21870351.7654   21870356.9524
  21443738.294     3312006.21649   2574931.02449  21443738.3254   21443744.2624
 96  2 18 17 22 30.0010000  0  6 19 29  4 22 18 14
  23368796.377    -5948349.61949  -4623103.91649  23368796.4384   23368804.4954
  20862983.893    -1760042.51049  -1293582.26749  20862984.8974   20862989.1434
  25047816.474      444076.17649    347493.08449  25047816.3904   25047820.3944
  22026932.062     2223900.76149   1729379.46649  22026932.0304   22026937.1844
  21856808.993    -5326447.07549  -4140448.20349  21856810.1894   21856815.8854
  21456428.038     3378695.15449   2626896.39949  21456428.6844   21456434.8404
 96  2 18 17 23  0.0010000  0  6 19 29  4 22 18 14
  23353744.293    -6027444.79649  -4684736.50949  23353745.1334   23353752.6464
  20860062.909    -1775393.33649  -1305543.95849  20860063.9254   20860068.1054
  25052262.600      467439.78049    365698.44349  25052262.0634   25052266.0624
  22036933.650     2276453.11549   1770329.33149  22036932.6994   22036937.1964
  21843305.341    -5397413.26649  -4195746.53449  21843306.0804   21843311.3514
  21469205.526     3445840.18049   2679217.15949  21469206.3814   21469211.9864
 96  2 18 17 23 30.0010000  0  6 19 29  4 22 18 14
  23338732.419    -6106335.59349  -4746209.84749  23338733.1084   23338740.5444
  20857202.766    -1790421.63049  -1317254.33049  20857203.9414   20857208.0304
  25056791.934      491245.05049    384247.95449  25056791.6534   25056797.6474
  22047031.760     2329521.84349   1811681.55249  22047031.0734   22047036.3334
  21829844.451    -5468152.12749  -4250867.72349  21829844.9734   21829849.7794
  21482071.695     3513451.12149   2731900.97649  21482072.1264   21482078.1114
 96  2 18 17 24  0.0010000  0  6 19 29  4 22 18 14
  23323754.097    -6185056.94049  -4807551.13849  23323753.5524   23323759.7224
  20854397.860    -1805165.67449  -1328743.19849  20854398.3734   20854402.2674
  25061398.293      515457.48149    403114.75549  25061397.7414   25061404.3124
  22057225.110     2383088.61449   1853421.86849  22057224.9004   22057229.5484
  21816422.646    -5538683.85449  -4305827.50949  21816422.9544   21816427.7354
  21495024.800     3581520.39549   2784941.93649  21495025.4604   21495031.5334
 96  2 18 17 24 30.0010000  0  6 19 29  4 22 18 14
  23308806.912    -6263602.88749  -4868755.76049  23308806.7534   23308812.3464
  20851645.107    -1819630.21149  -1340014.27349  20851645.7944   20851649.6804
  25066081.507      540085.36849    422305.26249  25066084.0944   25066092.0834
  22067514.262     2437157.64949   1895553.55949  22067513.6464   22067518.7304
  21803040.249    -5609010.86049  -4360627.77549  21803040.2434   21803045.3494
  21508063.296     3650037.98649   2838332.22649  21508064.1044   21508069.5014
 96  2 18 17 25  0.0010000  0  6 19 29  4 22 18 14
  23293896.215    -6341949.98049  -4929805.41149  23293898.8934   23293903.4144
  20848949.914    -1833796.06649  -1351052.60449  20848950.4144   20848954.4214
  25070851.451      565142.39849    441830.19349  25070850.7984   25070859.8364
  22077903.879     2491753.78049   1938095.97549  22077903.1524   22077908.4304
  21789699.901    -5679117.54449  -4415256.35949  21789699.4534   21789704.4744
  21521190.009     3719019.55349   2892084.07049  21521190.8024   21521196.4534
 96  2 18 17 25 30.0010000  0  6 19 29  4 22 18 14
  23279025.574    -6420094.96149  -4990697.59549  23279027.8414   23279032.7434
  20846308.150    -1847675.58349  -1361867.81949  20846309.1284   20846313.1744
  25075696.326      590611.92749    461676.52449  25075698.1234   25075706.8814
  22088390.330     2546866.20849   1981040.70549  22088390.4894   22088395.3914
  21776398.465    -5749011.37849  -4469719.08049  21776399.1164   21776403.8804
  21534404.356     3788462.02949   2946195.05049  21534405.3094   21534411.1314
 96  2 18 17 26  0.0010000  0  6 19 29  4 22 18 14
  23264193.685    -6498040.40049  -5051434.27549  23264194.9194   23264200.5844
  20843721.932    -1861266.16749  -1372457.88849  20843722.8784   20843726.9334
  25080622.970      616487.76549    481839.47249  25080622.7764   25080630.9324
  22098976.472     2602494.58649   2024387.47549  22098976.3054   22098981.1374
  21763137.536    -5818697.82549  -4524020.20449  21763138.0754   21763143.0364
  21547705.994     3858358.78849   3000660.02649  21547706.0564   21547711.7944
 96  2 18 17 26 30.0010000  0  6 19 29  4 22 18 14
  23249403.480    -6575767.96249  -5112001.19749  23249403.2834   23249409.3174
  20841191.029    -1874565.51349  -1382821.02249  20841192.0624   20841196.1184
  25085620.078      642756.45849    502308.55449  25085620.8944   25085630.5824
  22109658.709     2658624.14449   2068124.77349  22109657.5934   22109661.9684
  21749915.731    -5888180.41749  -4578162.47849  21749916.1164   21749921.0724
  21561087.822     3928685.70849   3055460.19249  21561088.9114   21561094.5244
 96  2 18 17 27  0.0010000  0  6 19 29  4 22 18 14
  23234652.394    -6653267.23249  -5172390.21349  23234655.1464   23234661.9294
  20838720.568    -1887546.62449  -1392936.18449  20838721.4824   20838726.0114
  25090696.264      669429.87549    523092.98149  25090697.4174   25090706.1124
  22120436.680     2715273.04949   2112266.75549  22120437.7464   22120442.2664
  21736735.820    -5957443.75549  -4632133.90449  21736735.7684   21736740.5744
  21574558.433     3999471.90849   3110618.23449  21574559.1224   21574564.9434
 96  2 18 17 27 30.0010000  0  6 19 29  4 22 18 14
  23219948.747    -6730553.28049  -5232613.09349  23219948.0954   23219954.3864
  20836310.630    -1900215.05149  -1402807.69249  20836310.8914   20836315.1904
  25095849.601      696503.02949    544188.90949  25095850.4224   25095858.4044
  22131313.656     2772433.23249   2156807.14949  22131314.7554   22131319.2634
  21723592.457    -6026509.69649  -4685951.52249  21723592.8584   21723598.0964
  21588114.340     4070709.37049   3166127.91749  21588114.9504   21588120.8784
 96  2 18 17 28  0.0010000  0  6 19 29  4 22 18 14
  23205279.229    -6807626.24849  -5292669.93849  23205281.1974   23205288.0384
  20833959.584    -1912567.78449  -1412433.21049  20833960.4234   20833964.4394
  25101082.445      723994.51649    565610.79349  25101082.1874   25101089.0514
  22142288.372     2830101.98249   2201743.82249  22142288.4664   22142293.5564
  21710486.878    -6095380.84349  -4739617.34849  21710487.0584   21710492.4064
  21601755.414     4142392.94349   3221985.21849  21601755.9454   21601761.8184
 96  2 18 17 28 30.0010000  0  6 19 29  4 22 18 14
  23190649.975    -6884514.41849  -5352582.79149  23190650.2644   23190656.5354
  20831664.497    -1924627.29749  -1421830.24249  20831665.1914   20831669.4434
  25106392.971      751895.35149    587351.64549  25106393.0734   25106397.8364
  22153356.421     2888260.94249   2247062.48449  22153356.2974   22153360.8474
  21697414.217    -6164075.70249  -4793145.80849  21697414.7794   21697419.9984
  21615477.777     4214504.94249   3278176.35249  21615478.4684   21615484.6544
 96  2 18 17 29  0.0010000  0  6 19 29  4 22 18 14
  23176053.016    -6961231.12149  -5412362.01849  23176051.8774   23176058.2044
  20829423.439    -1936401.71549  -1431005.12649  20829425.1794   20829429.2154
  25111779.761      780219.90749    609422.67849  25111781.4324   25111789.1154
  22164514.737     2946911.50249   2292764.20449  22164516.4344   22164521.8624
  21684377.669    -6232585.86449  -4846530.34649  21684377.9264   21684383.0314
  21629285.311     4287063.90349   3334715.76649  21629286.4034   21629292.1974
 96  2 18 17 29 30.0010000  0  6 19 29  4 22 18 14
  23161487.273    -7037774.61749  -5472006.27649  23161486.4414   23161492.7214
  20827235.530    -1947901.85649  -1439966.28549  20827236.5954   20827240.6944
  25117249.885      808965.65449    631821.91249  25117251.5054   25117259.2694
  22175769.909     3006048.91149   2338845.29249  22175770.3154   22175775.1424
  21671376.316    -6300906.52849  -4899767.22349  21671376.7854   21671381.8384
  21643176.384     4360062.19449   3391597.51649  21643176.9974   21643182.9194
 96  2 18 17 30  0.0010000  0  6 19 29  4 22 18 14
  23146955.928    -7114137.81149  -5531510.04349  23146955.7604   23146961.6594
  20825101.251    -1959118.73849  -1448706.72249  20825102.2934   20825106.3654
  25122800.215      838130.69649    654547.85649  25122802.1734   25122808.1054
  22187117.672     3065678.26849   2385309.71249  22187117.4574   22187122.0974
  21658418.056    -6369007.48149  -4952832.90149  21658417.4544   21658422.6714
  21657150.273     4433494.56349   3448817.50949  21657151.2454   21657156.6984
 96  2 18 17 30 30.0010000  0  5 19 29 22 18 14
  23132460.933    -7190313.75749  -5590867.89649  23132460.3214   23132465.6634
  20823024.530    -1970029.48549  -1457208.61349  20823026.0114   20823029.9734
  22198559.567     3125810.34049   2432165.86249  22198559.5734   22198565.2624
  21645501.605    -6436877.40549  -5005718.55649  21645502.3724   21645507.6304
  21671210.073     4507378.59949   3506389.45049  21671210.8034   21671216.7114
 96  2 18 17 31  0.0010000  0  5 19 29 22 18 14
  23117998.171    -7266302.32249  -5650079.74649  23118000.1734   23118005.1434
  20821005.052    -1980643.39849  -1465479.20849  20821006.3124   20821010.3134
  22210092.532     3186413.05849   2479388.75349  22210092.6704   22210097.5064
  21632626.607    -6504538.93849  -5058441.83349  21632626.7894   21632632.1104
  21685351.529     4581692.82049   3564296.59049  21685352.2584   21685357.8324
 96  2 18 17 31 30.0010000  0  5 19 29 22 18 14
  23103580.704    -7342073.11749  -5709121.90849  23103581.4334   23103586.6314
  20819049.252    -1990923.70549  -1473489.84349  20819049.8584   20819054.0904
  22221718.651     3247505.14149   2526992.96749  22221717.8654   22221722.9534
  21619795.226    -6571968.22749  -5110984.13849  21619795.5414   21619800.6904
  21699577.173     4656447.65549   3622547.08949  21699577.6754   21699583.3164
 96  2 18 17 32  0.0010000  0  5 19 29 22 18 14
  23089201.868    -7417626.74149  -5767994.82949  23089202.8214   23089208.9984
  20817156.191    -2000872.24449  -1481241.96149  20817156.9114   20817160.9214
  22233433.039     3309072.66049   2574967.64949  22233433.7234   22233439.1834
  21607007.202    -6639172.46549  -5163351.07949  21607007.0744   21607012.6224
  21713886.250     4731641.42449   3681139.60149  21713886.5524   21713892.5444
 96  2 18 17 32 30.0010000  0  5 19 29 22 18 14
  23074867.470    -7492954.02349  -5826691.39949  23074868.6414   23074874.9054
  20815325.017    -2010490.43549  -1488736.67049  20815326.3204   20815330.5344
  22245238.351     3371105.30249   2623304.75749  22245238.3314   22245243.1134
  21594255.370    -6706179.68449  -5215564.49549  21594256.4194   21594261.3264
  21728279.843     4807282.33049   3740080.52949  21728280.5694   21728286.4224
 96  2 18 17 33  0.0010000  0  5 19 29 22 18 14
  23060575.107    -7568041.12649  -5885200.80349  23060579.4034   23060585.6844
  20813558.600    -2019775.16049  -1495971.53149  20813559.7904   20813564.0354
  22257132.548     3433609.03349   2672008.95649  22257132.6424   22257137.5254
  21581546.957    -6772967.04749  -5267606.58949  21581547.0224   21581552.1324
  21742757.872     4883365.87049   3799366.36249  21742758.9104   21742764.8944
 96  2 18 17 33 30.0010000  0  5 19 29 22 18 14
  23046328.057    -7642924.50349  -5943551.46249  23046329.2614   23046335.3654
  20811851.667    -2028745.48649  -1502961.40749  20811852.7914   20811857.0494
  22269114.423     3496575.49949   2721073.72149  22269114.1974   22269119.2364
  21568877.268    -6839542.23049  -5319483.35249  21568877.8394   21568882.9414
  21757315.639     4959866.81849   3858977.46149  21757316.0444   21757322.4134
 96  2 18 17 34  0.0010000  0  5 19 29 22 18 14
  23032114.739    -7717598.48949  -6001738.96349  23032119.3074   23032125.9364
  20810204.289    -2037403.44549  -1509707.87949  20810205.2864   20810209.4774
  22281185.822     3560015.26949   2770507.30049  22281186.6274   22281191.5954
  21556247.963    -6905911.43449  -5371199.60849  21556248.1614   21556253.3604
  21771950.771     5036771.04749   3918902.79249  21771950.8304   21771956.7614
 96  2 18 17 34 30.0010000  0  5 19 29 22 18 14
  23017948.781    -7792064.75449  -6059764.59449  23017949.2454   23017955.6524
  20808618.783    -2045734.44449  -1516199.57649  20808619.9904   20808624.1854
  22293349.911     3623933.31049   2820313.55049  22293349.6484   22293354.8074
  21543659.733    -6972065.67749  -5422748.35849  21543659.6354   21543664.2534
  21786658.213     5114064.82749   3979131.66849  21786659.5294   21786665.2984
 96  2 18 17 35  0.0010000  0  5 19 29 22 18 14
  23003809.837    -7866368.09649  -6117663.26849  23003810.6444   23003816.0074
  20807088.784    -2053773.80449  -1522464.02149  20807090.0014   20807094.2954
  22305598.958     3688303.80449   2870472.36349  22305599.0524   22305604.0834
  21531108.416    -7038016.24549  -5474138.40449  21531109.5034   21531114.5884
  21801433.050     5191704.59949   4039630.14849  21801433.8244   21801440.0014
 96  2 18 17 35 30.0010000  0  5 19 29 22 18 14
  22989703.893    -7940485.75349  -6175417.26149  22989706.5974   22989711.8464
  20805619.566    -2061496.86849  -1528481.99849  20805620.3324   20805624.6654
  22317940.337     3753153.67049   2921004.71449  22317939.5574   22317944.6734
  21518600.407    -7103749.59849  -5525359.18749  21518600.9054   21518606.0564
  21816277.424     5269715.22849   4100417.60749  21816278.8484   21816284.3664
 96  2 18 17 36  0.0010000  0  5 19 29 22 18 14
  22975640.757    -8014401.00049  -6233013.52749  22975641.4454   22975647.0404
  20804210.943    -2068897.11249  -1534248.43349  20804212.3714   20804216.2614
  22330369.264     3818473.60549   2971903.33949  22330369.6594   22330374.5984
  21506132.935    -7169263.34049  -5576408.84949  21506133.9014   21506139.3344
  21831194.164     5348101.53249   4161497.80849  21831195.3674   21831201.3954
 96  2 18 17 36 30.0010000  0  5 19 29 22 18 14
  22961611.154    -8088120.75249  -6290457.45649  22961612.4694   22961618.3254
  20802866.272    -2075966.38449  -1539756.96049  20802867.0624   20802871.2184
  22342885.807     3884249.43749   3023157.21549  22342886.6094   22342891.5264
  21493709.434    -7234549.27649  -5627281.00249  21493710.4714   21493715.8174
  21846186.532     5426885.23649   4222887.65649  21846187.4474   21846193.4594
 96  2 18 17 37  0.0010000  0  5 19 29 22 18 14
  22947621.101    -8161637.84649  -6347743.47249  22947622.1944   22947628.3274
  20801581.570    -2082715.18149  -1545015.76949  20801582.6914   20801586.7984
  22355488.581     3950477.24249   3074763.27449  22355489.3924   22355494.4324
  21481329.193    -7299609.91449  -5677977.60149  21481330.0574   21481335.7114
  21861257.811     5506082.55549   4284599.81549  21861258.0974   21861264.0834
 96  2 18 17 37 30.0010000  0  5 19 29 22 18 14
  22933671.031    -8234947.57349  -6404867.91449  22933671.7064   22933679.0274
  20800357.583    -2089147.90049  -1550028.27849  20800358.6564   20800362.7724
  22368175.350     4017138.70549   3126707.25249  22368174.4144   22368179.6234
  21468988.588    -7364463.47549  -5728512.83649  21468989.1634   21468994.1344
  21876406.938     5585698.32849   4346638.03649  21876408.6274   21876414.2444
 96  2 18 17 38  0.0010000  0  5 19 29 22 18 14
  22919755.509    -8308059.58149  -6461838.29149  22919758.3074   22919765.8104
  20799191.534    -2095274.86049  -1554802.53949  20799192.7004   20799196.7174
  22380939.347     4084221.52249   3178979.55349  22380939.6894   22380944.4774
  21456684.651    -7429120.91849  -5778895.26349  21456684.9164   21456690.1574
  21891639.129     5665738.75749   4409007.15649  21891640.0614   21891645.7574
 96  2 18 17 38 30.0010000  0  5 19 29 22 18 14
  22905876.811    -8380984.38849  -6518662.79449  22905880.8674   22905888.3174
  20798081.293    -2101109.59149  -1559349.07749  20798082.3544   20798086.5304
  22393786.359     4151729.18349   3231582.90049  22393785.9194   22393791.3774
  21444418.953    -7493579.70749  -5829122.88249  21444418.4224   21444423.5834
  21906950.603     5746198.70749   4471703.18049  21906951.1734   21906956.8004
 96  2 18 17 39  0.0010000  0  5 19 29 22 18 14
  22892043.196    -8453712.87549  -6575334.32849  22892041.4024   22892048.9824
  20797026.046    -2106654.43349  -1563669.73649  20797026.9574   20797031.5434
  22406714.926     4219672.19849   3284525.48649  22406715.3184   22406720.3584
  21432190.520    -7557831.55249  -5879189.25349  21432191.9864   21432197.1484
  21922337.139     5827060.73749   4534712.50549  21922338.9064   21922344.3384
 96  2 18 17 39 30.0010000  0  5 19 29 22 18 14
  22878236.450    -8526241.99649  -6631850.49849  22878240.2054   22878247.0324
  20796030.395    -2111883.71149  -1567744.50449  20796031.9034   20796036.6454
  22419730.903     4288067.21749   3337820.27949  22419730.7934   22419735.5034
  21420007.336    -7621854.63549  -5929077.36349  21420008.7554   21420014.0184
  21937799.379     5908312.60949   4598025.60249  21937800.5474   21937806.3834
 96  2 18 17 40  0.0010000  0  5 19 29 22 18 14
  22864475.322    -8598569.11749  -6688209.28749  22864476.6984   22864482.7384
  20795097.657    -2116787.40049  -1571565.56549  20795098.6294   20795103.3124
  22432833.134     4356925.80549   3391476.29749  22432833.8664   22432838.8434
  21407874.541    -7685618.48949  -5978763.49149  21407874.9784   21407879.9074
  21953331.742     5989934.96549   4661627.39149  21953332.5234   21953338.1434
 96  2 18 17 40 30.0010000  0  5 19 29 22 18 14
  22850748.434    -8670701.64949  -6744416.42249  22850750.7054   22850756.3634
  20794226.156    -2121366.73449  -1575133.88149  20794227.4284   20794231.8604
  22446022.022     4426232.27149   3445481.31049  22446022.0704   22446027.7884
  21395791.894    -7749112.44649  -6028239.29949  21395792.3284   21395797.6334
  21968927.074     6071892.65449   4725490.47649  21968928.3834   21968934.5134
 96  2 18 17 41  0.0010000  0  5 19 29 22 18 14
  22837062.118    -8742642.83449  -6800474.46249  22837060.9034   22837066.9764
  20793417.180    -2125617.57949  -1578446.23549  20793418.6544   20793422.9684
  22459294.462     4495973.93149   3499825.43149  22459293.8114   22459298.9794
  21383759.557    -7812342.57949  -6077509.52949  21383760.1884   21383765.2634
  21984588.822     6154188.85749   4789617.33849  21984588.6594   21984594.9344
 96  2 18 17 41 30.0010000  0  5 19 29 22 18 14
  22823403.959    -8814405.65849  -6856393.50549  22823404.7294   22823410.1314
  20792668.307    -2129554.57849  -1581514.03349  20792669.4734   20792673.7414
  22472643.894     4566129.17849   3554491.82549  22472643.8154   22472649.1244
  21371774.413    -7875323.03149  -6126585.20549  21371775.4694   21371780.3934
  22000313.075     6236824.39049   4854008.60749  22000314.2084   22000319.8524
 96  2 18 17 42  0.0010000  0  5 19 29 22 18 14
  22809782.698    -8885971.91149  -6912159.40149  22809785.6744   22809791.7854
  20791980.753    -2133168.39249  -1584330.00249  20791982.1204   20791986.1234
  22486073.128     4636700.54449   3609482.48149  22486073.3774   22486078.5204
  21359839.257    -7938044.25849  -6175458.88049  21359839.9654   21359845.1184
  22016109.926     6319839.04249   4918695.30349  22016110.7154   22016117.2474
 96  2 18 17 42 30.0010000  0  5 19 29 22 18 14
  22796201.074    -8957351.27449  -6967779.66249  22796202.7024   22796209.1234
  20791355.061    -2136458.09749  -1586893.42149  20791356.0964   20791360.0434
  22499579.961     4707676.43749   3664788.34149  22499579.8244   22499584.7764
  21347947.111    -8000538.45649  -6224155.65249  21347947.6164   21347952.7004
  22031982.431     6403247.70749   4983689.01349  22031983.8794   22031989.3064
 96  2 18 17 43  0.0010000  0  6 19 29 22 18 28 14
  22782656.934    -9028540.17249  -7023251.50749  22782655.9794   22782662.6304
  20790791.439    -2139420.32149  -1589201.65449  20790792.2184   20790796.4744
  22513162.895     4779051.70649   3720405.40649  22513162.0394   22513167.1064
  21336093.279    -8062827.88949  -6272692.87249  21336094.3824   21336099.4214
  24806092.022     -168268.78019
  22047930.830     6487058.17749   5048995.82849  22047931.6844   22047938.2414
 96  2 18 17 43 30.0010000  0  6 19 29 22 18 28 14
  22769144.543    -9099533.32249  -7078570.82749  22769146.2494   22769152.9764
  20790293.919    -2142033.36849  -1591237.80949  20790295.0694   20790299.3704
  22526822.100     4850838.10349   3776342.82849  22526822.8924   22526827.4024
  21324282.564    -8124899.80649  -6321060.59649  21324282.3874   21324287.8304
  24791902.396     -242838.610 9
  22063955.088     6571266.39449   5114612.55249  22063956.2544   22063962.4844
 96  2 18 17 44  0.0010000  0  6 19 29 22 18 28 14
  22755671.031    -9170331.11849  -7133737.91449  22755673.8664   22755680.8664
  20789865.266    -2144283.35849  -1592991.06249  20789866.6264   20789870.5824
  22540560.735     4923032.18849   3832597.94449  22540560.4824   22540565.0724
  21312512.048    -8186748.77949  -6369254.59649  21312512.6864   21312518.2964
  24777742.984     -317240.674 9    -58519.72619                  24777750.824
  22080053.467     6655860.29249   5180529.83149  22080054.0684   22080060.2544
 96  2 18 17 44 30.0010000  0  6 19 29 22 18 28 14
  22742239.481    -9240941.99849  -7188759.35949  22742237.5424   22742243.7484
  20789503.518    -2146183.29749  -1594471.54649  20789505.1854   20789509.2474
  22554372.819     4995620.59849   3889160.31849  22554373.9614   22554378.9204
  21300784.914    -8248379.79749  -6417278.76649  21300784.8324   21300790.3164
  24763615.310     -391490.57219   -116376.708 9  24763615.432    24763622.511
  22096215.621     6740795.62549   5246713.15049  22096216.3524   22096222.8974
 96  2 18 17 45  0.0010000  0  6 19 29 22 18 28 14
  22728841.137    -9311351.54249  -7243623.91249  22728839.0054   22728844.8644
  20789209.398    -2147729.65049  -1595676.51549  20789211.1224   20789214.9224
  22568263.666     5068612.44049   3946037.06149  22568263.6224   22568268.9164
  21289105.298    -8309746.67849  -6465097.10249  21289107.0894   21289112.2564
  24749517.748     -465568.269 9   -174099.489 9  24749518.653    24749525.459
  22112442.844     6826070.00149   5313160.65649  22112444.0124   22112450.2454
 96  2 18 17 45 30.0010000  0  6 19 29 22 18 28 14
  22715476.596    -9381579.26649  -7298346.78249  22715475.1014   22715481.4194
  20788978.467    -2148944.16149  -1596622.90049  20788979.6274   20788984.1114
  22582228.628     5142002.22949   4003223.88149  22582229.1734   22582234.5764
  21277482.491    -8370835.21549  -6512698.56149  21277482.6064   21277487.3784
  24735453.539     -539479.517 9   -231692.614 9  24735453.955    24735460.822
  22128732.950     6911671.33149   5379862.93149  22128733.7544   22128739.2734
 96  2 18 17 46  0.0010000  0  6 19 29 22 18 28 14
  22702149.368    -9451596.13649  -7352905.35049  22702151.0164   22702157.6734
  20788811.929    -2149821.48049  -1597306.54349  20788812.9784   20788817.0324
  22596272.221     5215801.08449   4060729.46049  22596272.2514   22596277.8934
  21265913.587    -8431630.68649  -6560071.65449  21265913.8064   21265918.1764
  24721420.900     -613211.075 9   -289145.644 9  24721422.898    24721430.258
  22145085.302     6997606.24949   5446825.16149  22145086.2954   22145092.3014
 96  2 18 17 46 30.0010000  0  6 19 29 22 18 28 14
  22688862.067    -9521415.64849  -7407310.12649  22688864.4414   22688870.4044
  20788704.109    -2150388.57049  -1597748.45049  20788705.0574   20788709.1444
  22610391.561     5290003.87249   4118549.79449  22610392.7984   22610397.7884
  21254396.035    -8492153.82249  -6607232.53649  21254396.4864   21254401.4784
  24707424.550     -686768.867 9   -346463.336 9  24707425.425    24707431.914
  22161499.149     7083860.05349   5514035.85349  22161499.7904   22161506.0544
 96  2 18 17 47  0.0010000  0  6 19 29 22 18 28 14
  22675611.619    -9591033.13649  -7461557.49049  22675616.8804   22675623.0724
  20788654.134    -2150647.91749  -1597950.55849  20788655.6834   20788660.0714
  22624589.737     5364611.44649   4176685.53949  22624590.5784   22624595.7274
  21242927.239    -8552420.65049  -6654193.70049  21242928.0384   21242932.9964
  24693460.676     -760149.631 9   -403643.064 9  24693461.299    24693468.445
  22177977.149     7170450.23449   5581508.66249  22177977.9314   22177983.6074
 96  2 18 17 47 30.0010000  0  6 19 29 22 18 28 14
  22662409.005    -9660434.21449  -7515636.22449  22662410.0684   22662416.3624
  20788669.465    -2150569.19549  -1597889.23749  20788670.6134   20788675.0634
  22638865.286     5439625.96749   4235138.37749  22638865.2064   22638870.5574
  21231505.893    -8612441.38749  -6700963.10949  21231506.1394   21231511.2454
  24679532.769     -833343.199 9   -460676.936 9  24679533.442    24679539.779
  22194519.813     7257385.12749   5649250.07949  22194521.1624   22194527.1184
 96  2 18 17 48  0.0010000  0  6 19 29 22 18 28 14
  22649244.114    -9729611.29449  -7569540.41249  22649246.1464   22649252.2184
  20788748.604    -2150154.27349  -1597565.93449  20788749.6704   20788753.7784
  22653214.390     5515031.65849   4293896.03549  22653214.5774   22653219.7064
  21220125.775    -8672237.91249  -6747557.80049  21220127.5484   21220132.6024
  24665638.894     -906353.380 9   -517567.924 9  24665639.739    24665646.395
  22211127.201     7344656.10549   5717253.37749  22211127.9464   22211133.9424
 96  2 18 17 48 30.0010000  0  6 19 29 22 18 28 14
  22636118.355    -9798595.67349  -7623294.45149  22636118.8524   22636125.5364
  20788887.728    -2149420.32349  -1596994.04149  20788889.3104   20788893.3724
  22667633.538     5590811.24149   4352945.03949  22667635.3854   22667640.1404
  21208789.190    -8731817.34349  -6793983.33649  21208789.6504   21208795.0134
  24651778.332     -979187.905 9   -574322.002 9  24651779.311    24651786.028
  22227798.505     7432266.43149   5785521.10649  22227799.8514   22227805.9664
 96  2 18 17 49  0.0010000  0  6 19 29 22 18 28 14
  22623028.216    -9867381.00449  -7676893.37849  22623029.4824   22623036.0444
  20789092.875    -2148341.32249  -1596153.27549  20789094.3094   20789098.8664
  22682125.755     5666968.57649   4412288.38649  22682126.7634   22682132.2624
  21197498.014    -8791151.61949  -6840217.84549  21197498.7924   21197503.8284
  24637956.132    -1051827.000 9   -630923.774 9  24637957.086    24637963.422
  22244538.481     7520235.92149   5854068.69249  22244539.6314   22244545.9984
 96  2 18 17 49 30.0010000  0  6 19 29 22 18 28 14
  22609971.255    -9935990.81849  -7730355.54149  22609973.6694   22609979.6094
  20789361.628    -2146928.05049  -1595052.02949  20789363.2974   20789368.0374
  22696688.253     5743495.38349   4471919.63549  22696689.7564   22696694.7674
  21186254.509    -8850237.61249  -6886258.87849  21186255.2364   21186260.2904
  24624167.263    -1124273.943 9   -687375.824 9  24624169.937    24624177.303
  22261342.291     7608536.94549   5922874.63449  22261342.8914   22261349.2944
 96  2 18 17 50  0.0010000  0  6 19 29 22 18 28 14
  22596947.786   -10004430.68749  -7783685.28349  22596949.5674   22596956.1814
  20789690.388    -2145201.23349  -1593706.47149  20789691.9224   20789696.3584
  22711324.165     5820402.59349   4531847.30449  22711324.6674   22711330.1114
  21175057.223    -8909077.28249  -6932107.97949  21175058.4924   21175063.7364
  24610421.112    -1196527.981 9   -743677.526 9  24610421.075    24610427.713
  22278208.717     7697172.49349   5991941.22649  22278209.4484   22278216.3484
 96  2 18 17 50 30.0010000  0  6 19 29 22 18 28 14
  22583957.573   -10072701.39649  -7836883.21349  22583958.1694   22583964.1544
  20790083.879    -2143135.62749  -1592096.92049  20790085.3754   20790089.5264
  22726034.563     5897705.45149   4592083.25749  22726034.7004   22726040.3414
  21163912.418    -8967646.93849  -6977746.67249  21163913.1584   21163918.2014
  24596710.399    -1268569.120 9   -799813.334 9  24596712.063    24596718.373
  22295139.708     7786145.51649   6061270.79349  22295140.6854   22295146.7294
 96  2 18 17 51  0.0010000  0  6 19 29 22 18 28 14
  22570995.625   -10140808.80049  -7889953.89249  22570997.7224   22571003.6264
  20790540.241    -2140734.19849  -1590225.69549  20790541.9954   20790546.5684
  22740814.095     5975373.23449   4652603.57749  22740814.3004   22740819.6454
  21152813.567    -9025972.03649  -7023194.80749  21152814.2854   21152819.1334
  24583039.559    -1340415.803 9   -855797.644 9  24583039.818    24583046.157
  22312127.647     7875414.16749   6130830.72149  22312127.9744   22312134.4584
 96  2 18 17 51 30.0010000  0  6 19 29 22 18 28 14
  22558070.597   -10208726.58649  -7942876.80849  22558072.7594   22558078.4584
  20791065.907    -2137973.61749  -1588074.60549  20791067.4154   20791072.0684
  22755664.574     6053415.82149   4713415.94549  22755665.2234   22755671.1914
  21141765.301    -9084033.44149  -7068437.46349  21141765.6104   21141770.7964
  24569407.196    -1412053.671 9   -911619.255 9  24569407.468    24569414.141
  22329173.466     7964994.20849   6200633.28749  22329174.6854   22329180.9934
 96  2 18 17 52  0.0010000  0  6 19 29 22 18 28 14
  22545189.008   -10276439.58749  -7995640.16749  22545187.5354   22545194.2274
  20791661.114    -2134846.27749  -1585637.72949  20791662.4634   20791667.1764
  22770585.335     6131821.97649   4774511.62249  22770585.9384   22770591.3104
  21130768.170    -9141818.74749  -7113464.97949  21130769.4234   21130774.3174
  24555815.500    -1483476.971 9   -967273.715 9  24555816.060    24555822.530
  22346282.221     8054898.45049   6270688.47449  22346283.4304   22346289.5374
 96  2 18 17 52 30.0010000  0  6 19 29 22 18 28 14
  22532338.594   -10343950.78049  -8048246.26449  22532340.6854   22532347.5154
  20792326.052    -2131349.89949  -1582913.28949  20792327.8224   20792332.7214
  22785572.272     6210576.95049   4835879.08949  22785572.7544   22785577.9094
  21119827.506    -9199315.70749  -7158267.80949  21119828.2354   21119833.3024
  24542264.672    -1554689.140 9  -1022763.647 9  24542264.389    24542271.368
  22363449.998     8145116.94049   6340988.54449  22363451.1174   22363457.2854
 96  2 18 17 53  0.0000000  0  6 19 29 22 18 28 14
  22519535.976   -10411233.30849  -8100674.18949  22519537.4944   22519543.9484
  20793062.138    -2127483.23849  -1579900.32349  20793063.7534   20793068.3244
  22800625.702     6289687.21749   4897523.41349  22800626.3624   22800631.8304
  21108943.201    -9256509.93149  -7202834.74049  21108944.2924   21108949.6084
  24528753.686    -1625681.121 9  -1078081.980 9  24528755.197    24528762.048
  22380680.225     8235661.40549   6411542.61549  22380680.7584   22380687.3684
 96  2 18 17 53 30.0000000  0  6 19 29 22 18 28 14
  22506775.147   -10478294.24549  -8152929.43549  22506776.3284   22506783.0584
  20793863.126    -2123274.74649  -1576620.98849  20793864.5104   20793869.2334
  22815749.670     6369164.97049   4959454.09549  22815751.0524   22815756.4034
  21098115.452    -9313410.06449  -7247172.51249  21098116.5544   21098121.5594
  24515286.000    -1696459.495 9  -1133233.934 9  24515286.819    24515292.627
  22397972.733     8326532.29849   6482351.03749  22397973.3094   22397979.9974
 96  2 18 17 54  0.0000000  0  6 19 29 22 18 28 14
  22494055.074   -10545141.33249  -8205018.04849  22494055.9044   22494061.8834
  20794725.176    -2118744.97549  -1573091.31349  20794726.7944   20794731.5474
  22830945.003     6449006.16949   5021667.97149  22830944.0764   22830948.8184
  21087341.682    -9370026.50849  -7291289.22649  21087342.7004   21087348.0234
  24501858.278    -1767023.884 9  -1188219.123 9  24501858.603    24501865.242
  22415320.163     8417704.12649   6553393.95749  22415321.9974   22415329.0094
 96  2 18 17 54 30.0000000  0  6 19 29 22 18 28 14
  22481375.162   -10611774.64049  -8256940.07849  22481376.3624   22481382.4024
  20795650.626    -2113880.41149  -1569300.75849  20795652.2284   20795656.7974
  22846208.233     6529219.74549   5084172.01649  22846208.3704   22846213.5784
  21076623.196    -9426352.43949  -7335179.56549  21076624.1624   21076629.1854
  24488472.757    -1837364.828 9  -1243030.202 9  24488473.473    24488479.348
  22432726.477     8509170.28849   6624666.22149  22432728.1084   22432734.5644
 96  2 18 17 55  0.0000000  0  6 19 29 22 18 28 14
  22468739.722   -10678188.32749  -8308690.98149  22468738.2784   22468743.9744
  20796641.149    -2108675.65849  -1565245.12049  20796643.0104   20796647.4284
  22861540.828     6609796.88049   5146959.36549  22861541.6524   22861547.1394
  21065958.755    -9482393.09749  -7378847.61449  21065959.9894   21065965.2214
  24475131.110    -1907471.757 9  -1297658.911 9  24475132.621    24475138.413
  22450186.807     8600918.33949   6696158.14449  22450187.3954   22450194.1414
 96  2 18 17 55 30.0000000  0  6 19 29 22 18 28 14
  22456135.975   -10744414.14349  -8360295.48549  22456135.6484   22456141.7854
  20797691.777    -2103153.99449  -1560942.54049  20797693.7414   20797698.0344
  22876937.450     6690702.24549   5210002.46949  22876937.3944   22876943.2174
  21055346.350    -9538169.62549  -7422309.84349  21055346.3084   21055350.9384
  24461833.477    -1977359.902 9  -1352117.161 9  24461832.774    24461839.172
  22467692.160     8692916.94049   6767845.29749  22467693.8774   22467701.2264
 96  2 18 17 56  0.0000000  0  6 19 29 22 18 28 14
  22443565.046   -10810454.56649  -8411755.52649  22443567.9194   22443574.2064
  20798807.253    -2097292.98849  -1556375.53349  20798809.0134   20798813.3244
  22892393.387     6771928.89649   5273295.92249  22892394.4114   22892399.6084
  21044784.830    -9593665.98449  -7465553.75349  21044785.7914   21044790.3394
  24448575.796    -2047019.512 9  -1406397.349 9  24448577.237    24448583.213
  22485248.131     8785169.55949   6839730.39749  22485249.1664   22485255.9164
 96  2 18 17 56 30.0000000  0  6 19 29 22 18 28 14
  22431039.842   -10876298.67849  -8463062.60949  22431038.6134   22431044.1404
  20799988.673    -2091084.74349  -1551537.95849  20799990.2384   20799994.9074
  22907909.772     6853464.40649   5336830.06749  22907910.1934   22907915.4604
  21034278.669    -9648878.49449  -7508576.48549  21034279.1724   21034284.2004
  24435362.131    -2116449.958 9  -1460498.917 9  24435364.357    24435371.454
  22502850.522     8877669.97649   6911808.58449  22502851.5024   22502858.2474
 96  2 18 17 57  0.0000000  0  6 19 29 22 18 28 14
  22418544.977   -10941960.22149  -8514227.43649  22418543.3764   22418549.3654
  20801232.337    -2084549.53849  -1546445.60649  20801233.6464   20801238.1554
  22923483.939     6935302.76849   5400600.18149  22923483.7564   22923489.2124
  21023821.501    -9703825.17449  -7551392.07749  21023822.9914   21023828.1234
  24422195.354    -2185658.933 9  -1514427.935 9  24422195.477    24422201.507
  22520497.962     8970412.14149   6984075.13449  22520499.8064   22520506.4814
 96  2 18 17 57 30.0000000  0  6 19 29 22 18 28 14
  22406071.712   -11007491.24449  -8565290.54649  22406073.3424   22406079.3194
  20802529.615    -2077735.90249  -1541136.29249  20802530.8914   20802535.0314
  22939105.309     7017392.84349   5464566.44149  22939104.7484   22939109.8294
  21013408.221    -9758553.71949  -7594037.69749  21013408.5844   21013413.7324
  24409057.508    -2254695.847 9  -1568222.863 9  24409057.199    24409064.228
  22538186.224     9063361.03149   7056502.77249  22538187.4614   22538193.9434
 96  2 18 17 58  0.0000000  0  6 19 29 22 18 28 14
  22393640.331   -11072831.18349  -8616204.77249  22393639.5174   22393645.3274
  20803893.298    -2070564.90249  -1535548.51349  20803894.9494   20803899.4784
  22954788.736     7099813.37549   5528790.20949  22954788.6034   22954793.9224
  21003048.135    -9812993.37949  -7636458.21149  21003048.7834   21003054.4184
  24395964.738    -2323487.013 9  -1621826.291 9  24395965.992    24395973.175
  22555928.167     9156595.35549   7129152.83949  22555929.4634   22555935.6514
 96  2 18 17 58 30.0000000  0  6 19 29 22 18 28 14
  22381237.617   -11137996.12549  -8666982.63749  22381239.2284   22381245.3554
  20805325.987    -2063040.24149  -1529685.15149  20805327.2154   20805331.5434
  22970535.117     7182558.84049   5593267.15349  22970534.8094   22970540.6144
  20992739.302    -9867165.73249  -7678670.43549  20992740.0764   20992745.6304
  24382921.667    -2392036.595 9  -1675241.466 9  24382922.491    24382928.665
  22573721.838     9250104.99349   7202017.42049  22573723.5894   22573730.7744
 96  2 18 17 59  0.0000000  0  6 19 29 22 18 28 14
  22368866.977   -11203000.08749  -8717635.05649  22368869.4054   22368875.6134
  20806823.842    -2055166.86449  -1523550.06649  20806825.1754   20806829.9234
  22986344.693     7265639.15849   5658005.03549  22986344.8894   22986349.9144
  20982479.867    -9921078.25349  -7720680.19249  20982481.1934   20982486.3154
  24369925.887    -2460334.345 9  -1728460.428 9  24369925.884    24369931.779
  22591572.406     9343905.66249   7275108.77949  22591573.7684   22591580.7064
 96  2 18 17 59 30.0000000  0  6 19 29 22 18 28 14
  22356527.849   -11267848.43149  -8768166.21749  22356529.0404   22356534.8014
  20808390.068    -2046937.86049  -1517137.86049  20808391.4244   20808395.7334
  23002216.631     7349049.75849   5723000.27549  23002216.7494   23002222.5834
  20972272.798    -9974718.19649  -7762477.54949  20972273.8474   20972278.9834
  24356977.108    -2528379.281 9  -1781482.420 9  24356977.033    24356983.044
  22609476.956     9437995.60249   7348425.55049  22609478.7344   22609485.0924
 96  2 18 18  0  0.0000000  0  6 19 29 22 18 28 14
  22344214.318   -11332544.20049  -8818578.48149  22344217.8814   22344224.1814
  20810022.460    -2038357.29649  -1510451.72049  20810023.7204   20810028.6424
  23018155.379     7432802.55049   5788262.16249  23018154.6454   23018160.1064
  20962119.051   -10028079.23749  -7804057.58049  20962119.6064   20962124.7114
  24344074.690    -2596170.108 9  -1834306.388 9  24344076.815    24344082.950
  22627433.484     9532357.92249   7421954.55949  22627435.0964   22627441.9394
 96  2 18 18  0 30.0000000  0  7 19 29 22 18 28 27 14
  22331940.983   -11397053.82149  -8868845.71149  22331942.0034   22331948.3874
  20811724.373    -2029418.62549  -1503486.53149  20811725.5074   20811729.6094
  23034155.199     7516893.12949   5853787.24149  23034156.5614   23034162.1054
  20952019.409   -10081152.40249  -7845413.29349  20952019.9844   20952025.0204
  24331226.400    -2663695.758 9  -1886923.732 9  24331226.471    24331233.247
  25243286.256    -4987119.09059  -3871930.50259  25243287.3954   25243293.0074
  22645443.200     9626997.77549   7495699.83149  22645444.4824   22645450.6864
 96  2 18 18  1  0.0000000  0  8 19 29 31 22 18 28 27 14
  22319702.954   -11461362.54049  -8918956.38449  22319704.4734   22319710.7454
  20813492.174    -2020120.36049  -1496241.14349  20813494.6744   20813499.0064
  24725574.447     -279267.14919
  23050220.221     7601316.85449   5919571.92949  23050221.7994   23050227.2034
  20941978.939   -10133914.85049  -7886526.89149  20941979.8174   20941984.6454
  24318428.374    -2730952.921 9  -1939331.853 9  24318427.918    24318434.997
  25226851.241    -5073483.75949  -3939227.64949  25226852.8934   25226859.8424
  22663509.034     9721932.17449   7569674.62849  22663509.6954   22663516.9794
 96  2 18 18  1 30.0000000  0  8 19 29 31 22 18 28 27 14
  22307507.410   -11525451.25449  -8968895.62949  22307509.1394   22307515.2634
  20815335.267    -2010441.49449  -1488699.18149  20815336.8214   20815341.0124
  24707710.582     -373154.872 9   -254224.54159                  24707716.2964
  23066349.657     7686072.90649   5985615.57449  23066350.1004   23066355.6704
  20932003.060   -10186340.12249  -7927377.75249  20932003.7974   20932008.6104
  24305680.521    -2797935.951 9  -1991526.359 9  24305681.900    24305688.352
  25210432.532    -5159771.45249  -4006464.76949  25210432.1984   25210437.8494
  22681628.937     9817160.20449   7643878.21349  22681631.3034   22681637.4214
 96  2 18 18  2  0.0000000  0  8 19 29 31 22 18 28 27 14
  22295355.891   -11589304.70049  -9018651.54549  22295357.8784   22295363.9414
  20817247.310    -2000388.22549  -1480865.48249  20817249.2914   20817253.7354
  24689839.180     -467060.00559   -327397.18659  24689840.1404   24689850.0154
  23082537.918     7771134.36749   6051897.19249  23082537.0104   23082542.6084
  20922086.821   -10238446.25649  -7967979.93749  20922088.0414   20922093.4084
  24292986.196    -2864646.066 9  -2043508.265 9  24292987.226    24292993.319
  25194022.843    -5245998.33349  -4073654.56549  25194025.1634   25194028.5724
  22699805.013     9912671.57749   7718302.59349  22699806.4544   22699813.2304
 96  2 18 18  2 30.0000000  0  8 19 29 31 22 18 28 27 14
  22283251.120   -11652923.77749  -9068224.84049  22283251.2944   22283257.2544
  20819232.730    -1989959.76549  -1472739.42549  20819234.1374   20819238.2944
  24671965.234     -560981.36359   -400582.70849  24671966.5444   24671976.4924
  23098778.163     7856484.22949   6118403.53049  23098778.8294   23098783.7454
  20912229.784   -10290245.23549  -8008342.78149  20912230.8784   20912235.9534
  24280342.710    -2931085.735 9  -2095279.415 9  24280344.238    24280350.332
  25177627.685    -5332173.08549  -4140803.71049  25177626.3534   25177630.8944
  22718033.394    10008462.62749   7792944.90149  22718034.8174   22718040.9704
 96  2 18 18  3  0.0000000  0  8 19 29 31 22 18 28 27 14
  22271182.900   -11716324.41649  -9117627.91349  22271186.7804   22271193.1914
  20821289.130    -1979150.90749  -1464316.95149  20821290.7294   20821295.2114
  24654093.045     -654908.67949   -473772.83449  24654092.4314   24654101.8874
  23115078.236     7942140.15749   6185148.37649  23115078.4434   23115083.8944
  20902435.373   -10341712.77049  -8048447.35749  20902436.9004   20902442.4314
  24267753.185    -2997244.631 9  -2146831.794 9  24267754.940    24267760.298
  25161241.231    -5418272.50949  -4207894.13949  25161242.0134   25161248.1454
  22736314.607    10104526.82049   7867800.05449  22736315.9514   22736322.3174
 96  2 18 18  3 30.0000000  0  8 19 29 31 22 18 28 27 14
  22259160.154   -11779520.91149  -9166871.91149  22259161.1534   22259167.7404
  20823415.522    -1967979.20649  -1455611.74949  20823417.0974   20823421.2114
  24636212.236     -748861.68949   -546982.94149  24636212.6424   24636221.7244
  23131433.399     8028087.03049   6252119.91749  23131433.7484   23131439.8024
  20892701.988   -10392865.59949  -8088306.70349  20892702.9294   20892708.4684
  24255216.313    -3063132.081 9  -2198172.621 9  24255217.135    24255222.381
  25144869.482    -5504311.62949  -4274937.60949  25144869.1954   25144873.6704
  22754639.574    10200827.22749   7942839.27649  22754640.5054   22754647.3084
 96  2 18 18  4  0.0000000  0  8 19 29 31 22 18 28 27 14
  22247170.936   -11842512.32149  -9215956.11349  22247173.4784   22247180.3484
  20825611.084    -1956438.04649  -1446618.65949  20825612.8754   20825617.0474
  24618333.417     -842818.26749   -620195.78449  24618335.2064   24618343.4324
  23147845.280     8114335.44749   6319326.42949  23147846.2774   23147851.8524
  20883029.496   -10443693.58049  -8127912.92549  20883030.7804   20883036.2024
  24242732.438    -3128735.300 9  -2249291.993 9  24242733.851    24242739.243
  25128509.560    -5590282.43549  -4341927.83849  25128510.2144   25128515.0694
  22773011.252    10297368.90849   8018066.48849  22773012.0944   22773018.4884
 96  2 18 18  4 30.0000000  0  8 19 29 31 22 18 28 27 14
  22235216.325   -11905344.86049  -9264916.52149  22235216.9304   22235223.9484
  20827874.173    -1944547.40749  -1437353.24449  20827875.9404   20827880.1744
  24600452.848     -936789.15349   -693419.76249  24600453.3644   24600461.2364
  23164315.717     8200881.97049   6386765.23549  23164315.8844   23164321.5324
  20873416.329   -10494207.26249  -8167274.23849  20873418.3384   20873423.7364
  24230298.458    -3194070.770 9  -2300202.718 9  24230299.686    24230305.876
  25112160.627    -5676188.27749  -4408867.41149  25112161.0814   25112169.3334
  22791423.210    10394128.38149   8093463.41449  22791424.6784   22791430.9424
 96  2 18 18  5  0.0000000  0  8 19 29 31 22 18 28 27 14
  22223290.832   -11968021.72849  -9313755.62549  22223290.4114   22223296.7954
  20830201.411    -1932319.30549  -1427824.87849  20830202.5484   20830207.3894
  24582567.258    -1030767.33449   -766649.46149  24582569.6984   24582577.3024
  23180838.492     8287717.41149   6454429.16249  23180840.4134   23180845.4794
  20863864.902   -10544405.32249  -8206389.60849  20863866.0794   20863871.3684
  24217917.421    -3259135.984 9  -2350902.850 9  24217917.036    24217924.881
  25095823.728    -5762029.92949  -4475757.02249  25095826.3534   25095834.0874
  22809877.669    10491106.80049   8169030.94249  22809879.7524   22809886.2934
 96  2 18 18  5 30.0000000  0  8 19 29 31 22 18 28 27 14
  22211396.668   -12030510.07349  -9362447.83049  22211399.1844   22211405.3174
  20832596.172    -1919731.50249  -1418016.22049  20832598.0904   20832602.4844
  24564689.648    -1124719.15549   -839858.59949  24564690.9064   24564699.3144
  23197421.230     8374852.94149   6522326.95349  23197420.8174   23197427.0414
  20854372.417   -10594290.89949  -8245261.48649  20854373.2464   20854378.2934
  24205592.048    -3323904.779 9  -2401371.997 9  24205593.841    24205599.360
  25079504.194    -5847788.41849  -4542581.83149  25079506.3094   25079513.5614
  22828379.430    10588327.20649   8244787.03149  22828379.9284   22828386.4244
 96  2 18 18  6  0.0000000  0  8 19 29 31 22 18 28 27 14
  22199542.596   -12092801.12549  -9410986.29649  22199545.8834   22199551.7124
  20835063.514    -1906769.73549  -1407916.15849  20835064.7364   20835069.3674
  24546818.744    -1218621.24349   -913028.92149  24546821.6164   24546829.5084
  23214061.538     8462309.77749   6590475.08049  23214063.9954   23214069.3514
  20844940.656   -10643853.56349  -8283881.73749  20844941.6714   20844946.7874
  24193328.341    -3388358.962 9  -2451596.027 9  24193327.392    24193333.657
  25063206.986    -5933440.13049  -4609323.40649  25063207.1174   25063215.7914
  22846927.260    10685805.98449   8320744.45149  22846929.1904   22846936.8014
 96  2 18 18  6 30.0000000  0  8 19 29 31 22 18 28 27 14
  22187725.773   -12154902.83749  -9459377.22849  22187728.5014   22187733.9904
  20837595.692    -1893457.81249  -1397543.25549  20837597.8714   20837602.5364
  24528954.614    -1312508.14349   -986187.43149  24528956.7234   24528964.1064
  23230761.379     8550059.01149   6658851.07149  23230761.3144   23230767.2674
  20835564.295   -10693125.72449  -8322275.62649  20835565.4434   20835570.5154
  24181117.967    -3452512.976 9  -2501586.109 9  24181119.702    24181125.636
  25046919.335    -6019006.19849  -4675998.20349  25046922.6894   25046933.0604
  22865521.056    10783508.80049   8396876.45349  22865522.4394   22865528.3464
 96  2 18 18  7  0.0000000  0  8 19 29 31 22 18 28 27 14
  22175953.191   -12216781.73149  -9507594.53749  22175953.5154   22175958.6054
  20840200.584    -1879774.70649  -1386881.11049  20840201.8364   20840206.2644
  24511094.029    -1406365.43549  -1059322.92849  24511095.1084   24511103.2764
  23247516.767     8638105.71849   6727458.84449  23247516.7134   23247522.0044
  20826248.056   -10742083.28049  -8360424.36649  20826249.0334   20826254.2534
  24168972.263    -3516351.011 9  -2551330.013 9  24168971.554    24168977.546
  25030649.896    -6104494.99149  -4742612.81549  25030654.5374   25030664.4524
  22884155.977    10881444.55549   8473189.95749  22884158.3754   22884164.9234
 96  2 18 18  7 30.0000000  0  8 19 29 31 22 18 28 27 14
  22164216.831   -12278452.35649  -9555649.56149  22164217.5124   22164222.8134
  20842874.180    -1865719.55049  -1375929.06249  20842876.1774   20842881.0724
  24493233.409    -1500212.90949  -1132450.68849  24493236.0064   24493245.5254
  23264325.708     8726447.52549   6796296.55549  23264327.4134   23264333.2814
  20816989.860   -10790733.27149  -8398333.45149  20816991.0954   20816996.7614
  24156880.047    -3579883.909 9  -2600836.122 9  24156882.209    24156888.248
  25014399.103    -6189927.35949  -4809183.42749  25014399.2184   25014408.5214
  22902833.543    10979589.11849   8549666.17649  22902834.1844   22902840.9744
 96  2 18 18  8  0.0000000  0  8 19 29 31 22 18 28 27 14
  22152519.247   -12339917.59149  -9603544.53349  22152521.3394   22152526.9314
  20845620.670    -1851290.74349  -1364685.85649  20845622.4014   20845626.7024
  24475378.278    -1594052.96849  -1205572.70049  24475379.5974   24475387.2244
  23281193.192     8815075.64949   6865357.38949  23281192.7204   23281198.6854
  20807795.603   -10839051.70149  -8435984.17749  20807796.0424   20807801.7334
  24144850.132    -3643107.377 9  -2650101.153 9  24144850.620    24144856.826
  24998150.477    -6275308.44149  -4875714.00349  24998151.6094   24998160.8314
  22921550.814    11077945.50449   8626307.44349  22921551.3484   22921558.3064
 96  2 18 18  8 30.0000000  0  8 19 29 31 22 18 28 27 14
  22140861.080   -12401184.46449  -9651284.94049  22140862.3054   22140868.1744
  20848437.015    -1836491.33649  -1353153.86249  20848438.2704   20848442.5874
  24457521.109    -1687892.34549  -1278694.20149  24457522.2154   24457530.6904
  23298106.107     8903960.08449   6934617.93149  23298106.7194   23298113.1224
  20798665.009   -10887032.36649  -8473371.70949  20798665.9324   20798671.5034
  24132877.444    -3706026.520 9  -2699129.041 9  24132877.656    24132884.058
  24981907.431    -6360648.24149  -4942212.42749  24981911.7104   24981920.1524
  22940306.256    11176512.11349   8703112.52249  22940307.9114   22940314.7734
 96  2 18 18  9  0.0000000  0  8 19 29 31 22 18 28 27 14
  22129239.529   -12462252.96649  -9698870.76949  22129241.0434   22129247.2714
  20851327.699    -1821298.07949  -1341314.97849  20851329.5504   20851334.1264
  24439668.371    -1781702.54649  -1351792.86449  24439669.5414   24439678.8874
  23315072.851     8993121.18249   7004094.06949  23315073.6514   23315080.0954
  20789604.028   -10934646.63749  -8510473.74149  20789605.3134   20789610.8014
  24120962.005    -3768629.471 9  -2747910.518 9  24120964.941    24120971.668
  24965683.512    -6445931.36749  -5008666.70349  24965683.5384   24965692.3164
  22959107.989    11275316.23549   8780102.68249  22959109.5984   22959115.6464
 96  2 18 18  9 30.0000000  0  8 19 29 31 22 18 28 27 14
  22117654.583   -12523130.97149  -9746308.15649  22117656.5004   22117662.7404
  20854292.697    -1805719.29449  -1329175.67549  20854294.0674   20854298.4704
  24421826.725    -1875477.98849  -1424864.49149  24421825.6244   24421833.3004
  23332092.366     9082552.38049   7073780.65949  23332092.1504   23332098.0054
  20780610.734   -10981907.97749  -8547300.76349  20780611.6194   20780617.3434
  24109110.324    -3830917.819 9  -2796446.834 9  24109112.282    24109117.336
  24949466.596    -6531143.15249  -5075065.35749  24949468.0514   24949476.6524
  22977953.914    11374347.50149   8857269.85049  22977954.8904   22977961.3104
 96  2 18 18 10  0.0000000  0  8 19 29 31 22 18 28 27 14
  22106106.551   -12583805.92549  -9793587.31449  22106110.3384   22106116.2154
  20857330.006    -1789752.72149  -1316734.21249  20857332.2504   20857336.3994
  24403986.659    -1969206.17149  -1497899.26649  24403988.5714   24403997.3264
  23349159.522     9172245.79949   7143671.58949  23349160.4124   23349165.4724
  20771687.263   -11028801.56949  -8583841.22649  20771688.5434   20771693.8554
  24097320.284    -3892882.095 9  -2844730.683 9  24097320.460    24097327.218
  24933268.288    -6616271.02949  -5141398.63449  24933270.3844   24933277.2864
  22996843.028    11473616.26249   8934622.04849  22996844.9094   22996851.4454
 96  2 18 18 10 30.0000000  0  8 19 29 31 22 18 28 27 14
  22094605.803   -12644263.33649  -9840696.96849  22094606.3384   22094611.6484
  20860445.840    -1773387.09549  -1303981.77849  20860446.5264   20860451.2694
  24386162.055    -2062874.93049  -1570887.72249  24386163.8964   24386172.7234
  23366279.042     9262214.19649   7213776.78449  23366280.3324   23366286.3764
  20762831.958   -11075337.33049  -8620102.85549  20762833.1514   20762838.2314
  24085588.935    -3954521.239 9  -2892761.152 9  24085591.048    24085595.018
  24917083.703    -6701318.34049  -5207669.12249  24917085.2764   24917093.2654
  23015777.005    11573114.04749   9012152.74949  23015778.0224   23015784.9464
 96  2 18 18 11  0.0000000  0  8 19 29 31 22 18 28 27 14
  22083145.385   -12704480.21249  -9887619.19049  22083147.1134   22083153.0584
  20863634.159    -1756621.40949  -1290917.63749  20863636.7014   20863641.4164
  24368356.422    -2156456.65249  -1643808.40449  24368355.4664   24368364.7204
  23383456.607     9352477.39149   7284111.69749  23383457.3624   23383463.3124
  20754043.497   -11121519.39849  -8656088.88549  20754044.8234   20754049.9914
  24073923.651    -4015825.620 9  -2940530.771 9  24073925.025    24073930.903
  24900918.214    -6786273.37649  -5273867.74749  24900919.8694   24900924.3924
  23034751.261    11672824.74349   9089849.33949  23034752.9644   23034759.9754
 96  2 18 18 11 30.0000000  0  8 19 29 31 22 18 28 27 14
  22071729.385   -12764463.92749  -9934359.72349  22071732.2194   22071738.3904
  20866897.961    -1739482.94749  -1277562.99549  20866898.8444   20866902.9044
  24350559.855    -2249962.24849  -1716669.74149  24350562.0854   24350570.5164
  23400681.996     9443001.99749   7354650.30249  23400683.6064   23400689.4654
  20745318.579   -11167372.05449  -8691818.22749  20745319.4494   20745324.5124
  24062320.244    -4076805.744 9  -2988047.708 9  24062320.732    24062327.665
  24884767.030    -6871151.37849  -5340006.38849  24884767.7064   24884772.6974
  23053761.528    11772723.51249   9167692.48849  23053763.3754   23053770.5414
 96  2 18 18 12  0.0000000  0  8 19 29 31 22 18 28 27 14
  22060360.761   -12824214.11549  -9980918.29249  22060362.2644   22060368.4244
  20870229.074    -1721967.27749  -1263914.44349  20870230.6404   20870236.3124
  24332782.323    -2343386.69249  -1789467.91449  24332784.0784   24332793.0864
  23417958.420     9533784.70849   7425390.05049  23417958.9924   23417964.7864
  20736656.918   -11212890.59049  -8727287.21949  20736657.5994   20736662.6484
  24050780.467    -4137453.806 9  -3035305.937 9  24050779.661    24050786.528
  24868629.183    -6955959.06849  -5406090.20449  24868629.5184   24868634.8834
  23072808.705    11872817.29649   9245687.58649  23072810.8424   23072817.3504
 96  2 18 18 12 30.0000000  0  8 19 29 31 22 18 28 27 14
  22049033.883   -12883744.45249 -10027305.54849  22049033.9794   22049040.5574
  20873635.531    -1704073.11349  -1249970.95449  20873637.1434   20873641.2784
  24315022.056    -2436731.31749  -1862203.88049  24315022.5894   24315029.8564
  23435282.869     9624825.22449   7496330.64649  23435284.0804   23435289.2574
  20728052.836   -11258100.47549  -8762515.70549  20728054.4354   20728059.3884
  24039300.504    -4197772.599 9  -3082307.541 9  24039301.321    24039305.147
  24852502.940    -7040698.07249  -5472120.54849  24852503.2244   24852509.2154
  23091892.256    11973095.50749   9323826.38349  23091893.0674   23091900.3724
 96  2 18 18 13  0.0000000  0  8 19 29 31 22 18 28 27 14
  22037745.289   -12943068.95049 -10073532.41249  22037745.2164   22037751.2764
  20877112.876    -1685797.49549  -1235730.22149  20877114.1144   20877118.8924
  24297270.707    -2530002.27049  -1934882.44149  24297272.8374   24297280.8444
  23452656.347     9716119.69649   7567469.16449  23452656.7344   23452662.0894
  20719512.230   -11302985.90449  -8797491.36449  20719512.7704   20719517.9874
  24027886.423    -4257750.378 9  -3129043.438 9  24027887.078    24027893.676
  24836388.889    -7125353.50349  -5538085.78149  24836393.0624   24836399.6354
  23111010.621    12073567.40549   9402116.09949  23111012.3154   23111019.3654
 96  2 18 18 13 30.0000000  0  8 19 29 31 22 18 28 27 14
  22026490.196   -13002204.64549 -10119612.15649  22026491.9334   22026497.6694
  20880667.621    -1667116.97549  -1221173.99249  20880669.3914   20880673.8934
  24279534.622    -2623211.32649  -2007512.75649  24279536.0814   24279543.2774
  23470077.092     9807668.11249   7638805.54349  23470078.0904   23470083.3504
  20711033.974   -11347534.60449  -8832204.64149  20711035.1264   20711040.6634
  24016541.550    -4317376.842 9  -3175505.568 9  24016542.354    24016546.862
  24820298.279    -7209930.64149  -5603989.99849  24820298.9764   24820304.6694
  23130171.320    12174263.75149   9480580.72049  23130173.9574   23130180.8774
 96  2 18 18 14  0.0000000  0  8 19 29 31 22 18 28 27 14
  22015269.452   -13061175.14149 -10165563.17449  22015270.5474   22015276.1524
  20884298.519    -1648038.81149  -1206307.90349  20884299.8414   20884304.2514
  24261805.050    -2716378.72949  -2080110.66049  24261806.3234   24261814.1464
  23487546.265     9899465.03149   7710335.56749  23487546.2394   23487551.5234
  20702619.016   -11391758.01349  -8866664.44449  20702619.7584   20702625.1554
  24005258.643    -4376666.116 9  -3221704.959 9  24005258.770    24005264.697
  24804214.616    -7294440.67149  -5669841.92449  24804216.1174   24804223.2874
  23149375.289    12275169.74349   9559208.69049  23149375.0544   23149383.8614
 96  2 18 18 14 30.0000000  0  8 19 29 31 22 18 28 27 14
  22004081.744   -13119960.06649 -10211369.60149  22004083.4454   22004089.2804
  20888008.322    -1628540.24349  -1191114.23149  20888010.1584   20888014.8444
  24244089.108    -2809481.95049  -2152658.57049  24244089.6124   24244096.8254
  23505063.083     9991524.83449   7782070.43849  23505064.4094   23505071.2274
  20694271.286   -11435624.56749  -8900846.17849  20694272.5254   20694278.0474
  23994043.234    -4435598.030 9  -3267625.913 9  23994044.667    23994050.542
  24788144.671    -7378862.11549  -5735624.82749  24788150.5964   24788158.3974
  23168617.864    12376297.93949   9638009.79249  23168619.3334   23168627.6104
 96  2 18 18 15  0.0000000  0  8 19 29 31 22 18 28 27 14
  21992930.425   -13178549.41149 -10257023.61849  21992934.4724   21992940.0874
  20891797.012    -1608634.60349  -1175603.36349  20891798.4614   20891803.0724
  24226384.773    -2902514.90949  -2225151.73149  24226385.9524   24226393.9014
  23522631.721    10083846.24249   7854009.16149  23522632.3784   23522638.8754
  20685997.882   -11479102.48149  -8934725.07549  20685999.0204   20686004.2354
  23982898.455    -4494168.094 9  -3313264.878 9  23982898.735    23982904.876
  24772099.580    -7463199.88149  -5801342.52649  24772102.2564   24772110.0874
  23187903.928    12477638.28449   9716976.21649  23187904.9214   23187912.1294
 96  2 18 18 15 30.0000000  0  8 19 29 31 22 18 28 27 14
  21981822.179   -13236936.48549 -10302520.02449  21981823.8194   21981829.2054
  20895656.907    -1588345.65849  -1159793.81749  20895658.7424   20895663.4294
  24208695.058    -2995467.02149  -2297581.87449  24208697.0054   24208705.4694
  23540247.515    10176422.24649   7926146.26449  23540249.1794   23540254.9054
  20677797.115   -11522196.83449  -8968305.09549  20677798.3554   20677803.3694
  23971820.802    -4552380.452 9  -3358625.143 9  23971821.723    23971828.060
  24756063.761    -7547466.04349  -5867004.44749  24756067.0304   24756075.4294
  23207224.255    12579171.35949   9796092.82149  23207225.3854   23207232.9264
 96  2 18 18 16  0.0000000  0  8 19 29 31 22 18 28 27 14
  21970753.822   -13295100.40849 -10347842.54549  21970755.4804   21970761.1914
  20899589.936    -1567682.49549  -1143692.66749  20899591.5694   20899595.5674
  24191028.262    -3088315.21449  -2369931.01649  24191028.5714   24191037.5584
  23557915.132    10269257.98649   7998485.74849  23557915.3114   23557920.7134
  20669670.518   -11564903.61249  -9001583.10949  20669671.9424   20669676.9174
  23960813.826    -4610223.700 9  -3403697.763 9  23960814.710    23960818.825
  24740049.964    -7631654.33849  -5932605.69349  24740047.2214   24740054.4144
  23226576.742    12680875.26649   9875342.54549  23226578.5814   23226586.6224
 96  2 18 18 16 30.0000000  0  8 19 29 31 22 18 28 27 14
  21959729.888   -13353039.68649 -10392990.02449  21959730.2034   21959735.9894
  20903589.989    -1546658.63849  -1127310.46249  20903591.5924   20903596.7994
  24173379.099    -3181064.42849  -2442203.05049  24173379.1694   24173386.4324
  23575626.927    10362335.94849   8071013.98349  23575627.5834   23575632.8334
  20661617.411   -11607218.57349  -9034555.81349  20661619.6974   20661624.7134
  23949875.909    -4667702.976 9  -3448486.754 9  23949876.704    23949880.596
  24724040.993    -7715782.17849  -5998159.83449  24724039.2824   24724046.3524
  23245960.624    12782733.91049   9954712.83449  23245961.9304   23245969.5884
 96  2 18 18 17  0.0000000  0  8 19 29 31 22 18 28 27 14
  21948742.606   -13410759.74849 -10437966.67849  21948746.5624   21948752.5944
  20907658.727    -1525279.10449  -1110651.11749  20907660.2064   20907664.8824
  24155743.732    -3273728.29449  -2514408.57949  24155746.2424   24155753.2544
  23593382.457    10455648.19049   8143724.78849  23593384.4354   23593389.6264
  20653637.095   -11649158.74049  -9067236.46649  20653638.5194   20653643.7474
  23939007.113    -4724821.919 9  -3492994.999 9  23939005.882    23939015.120
  24708039.449    -7799861.23449  -6063675.96149  24708040.6564   24708045.5704
  23265372.806    12884743.98449  10034201.15049  23265374.2734   23265381.4004
 96  2 18 18 17 30.0000000  0  8 19 29 31 22 18 28 27 14
  21937803.185   -13468265.64849 -10482776.45349  21937803.6334   21937809.5514
  20911799.651    -1503517.71749  -1093694.20349  20911801.0454   20911805.8664
  24138128.674    -3366301.69149  -2586543.57249  24138129.5734   24138137.0534
  23611183.547    10549187.82349   8216612.77349  23611185.1334   23611189.7784
  20645725.359   -11690739.10049  -9099636.75449  20645726.3434   20645731.5434
  23928205.352    -4781574.123 9  -3537217.434 9  23928206.993    23928215.297
  24692050.896    -7883886.52349  -6129150.20149  24692049.9704   24692056.1274
  23284818.133    12986924.49049  10113822.26449  23284819.4904   23284826.4234
 96  2 18 18 18  0.0000000  0  8 19 29 31 22 18 28 27 14
  21926899.524   -13525561.14849 -10527422.28749  21926900.4494   21926906.8214
  20916018.493    -1481347.58349  -1076418.80049  20916020.1324   20916025.0994
  24120529.721    -3458787.44549  -2658610.24949  24120531.1494   24120538.1234
  23629027.267    10642952.15649   8289675.86049  23629027.0044   23629032.5894
  20637883.565   -11731943.94149  -9131744.43149  20637885.0974   20637890.1054
  23917477.702    -4837949.168 9  -3581146.027 9  23917478.572    23917484.118
  24676071.326    -7967843.23849  -6194570.98049  24676073.6724   24676080.5454
  23304299.085    13089302.86649  10193597.57249  23304300.1964   23304308.4874
 96  2 18 18 18 30.0000000  0  8 19 29 31 22 18 28 27 14
  21916034.184   -13582654.31849 -10571910.45249  21916035.5254   21916041.9114
  20920316.451    -1458762.93149  -1058820.39149  20920317.7154   20920322.4714
  24102943.817    -3551196.31249  -2730616.99049  24102945.2454   24102953.3584
  23646911.439    10736937.66349   8362911.27049  23646912.0264   23646917.8274
  20630117.514   -11772756.54149  -9163546.46049  20630118.7424   20630123.8654
  23906823.838    -4893946.531 9  -3624780.294 9  23906824.146    23906830.454
  24660113.012    -8051710.08349  -6259921.78549  24660114.5824   24660120.8434
  23323823.269    13191897.47549  10273541.35549  23323823.5094   23323831.5214
 96  2 18 18 19  0.0000000  0  8 19 29 31 22 18 28 27 14
  21905203.327   -13639565.71049 -10616256.97649  21905205.7904   21905212.1944
  20924691.375    -1435770.23949  -1040904.03249  20924693.1964   20924697.6634
  24085374.893    -3643525.82849  -2802561.91449  24085375.9174   24085382.6984
  23664838.354    10831140.66749   8436316.16649  23664838.0894   23664843.9304
  20622423.736   -11813190.14849  -9195053.17049  20622424.3804   20622429.4954
  23896240.749    -4949566.840 9  -3668120.780 9  23896241.100    23896243.344
  24644172.285    -8135479.48649  -6325196.62549  24644173.1074   24644180.7504
  23343386.797    13294703.86549  10353650.18249  23343387.7344   23343394.2964
 96  2 18 18 19 30.0000000  0  8 19 29 31 22 18 28 27 14
  21894406.098   -13696299.71149 -10660465.27149  21894409.4714   21894415.6134
  20929142.859    -1412379.96149  -1022677.85849  20929144.0574   20929149.1204
  24067825.284    -3735751.43249  -2874425.88149  24067826.1154   24067832.1884
  23682807.194    10925565.48149   8509893.90849  23682806.7604   23682812.0634
  20614804.183   -11853229.03249  -9226252.30349  20614805.2884   20614810.3274
  23885727.738    -5004799.594 9  -3711159.292 9  23885729.973    23885737.689
  24628256.896    -8219130.38949  -6390379.13549  24628255.3034   24628260.2454
  23362988.918    13397723.61249  10433925.21949  23362991.5044   23362999.2704
 96  2 18 18 20  0.0000000  0  8 19 29 31 22 18 28 27 14
  21883647.238   -13752857.19449 -10704536.02049  21883647.3154   21883652.8464
  20933664.056    -1388618.38349  -1004162.37049  20933666.0344   20933670.8544
  24050293.051    -3827876.84349  -2946211.76849  24050295.3144   24050302.2214
  23700816.819    11020212.48949   8583644.76149  23700816.7254   23700822.4854
  20607260.304   -11892871.28349  -9257142.37449  20607261.6894   20607266.7274
  23875290.761    -5059650.032 9  -3753899.842 9  23875290.088    23875295.312
  24612357.533    -8302663.46749  -6455469.83349  24612357.8554   24612364.7634
  23382628.576    13500926.21449  10514342.74949  23382629.8314   23382638.1254
 96  2 18 18 20 30.0000000  0  8 19 29 31 22 18 28 27 14
  21872921.194   -13809217.43649 -10748453.07649  21872922.1924   21872928.0984
  20938257.521    -1364482.85149   -985355.48249  20938258.7554   20938263.3154
  24032785.437    -3919881.18449  -3017903.30349  24032786.5244   24032793.9364
  23718872.185    11115097.87549   8657581.36249  23718873.7054   23718880.1794
  20599790.832   -11932126.71449  -9287731.02349  20599791.4574   20599796.5034
  23864925.331    -5114112.770 9  -3796338.288 9  23864926.740    23864935.501
  24596477.440    -8386090.14249  -6520477.61249  24596482.2284   24596489.3114
  23402297.814    13604287.41349  10594883.88049  23402299.3764   23402306.7274
 96  2 18 18 21  0.0000000  0  8 19 29 31 22 18 28 27 14
  21862234.456   -13865377.14349 -10792213.86149  21862235.7634   21862241.0344
  20942919.888    -1339977.64149   -966260.53949  20942921.8044   20942926.6894
  24015303.667    -4011744.72949  -3089485.11849  24015305.7694   24015312.9034
  23736973.471    11210212.83649   8731696.86049  23736973.4364   23736979.7694
  20592388.584   -11971021.62449  -9318038.74949  20592390.1134   20592395.1604
  23854636.102    -5168192.832 9  -3838478.613 9  23854636.067    23854642.083
  24580619.080    -8469442.08149  -6585427.16249  24580620.9024   24580628.1474
  23421991.503    13707786.09549  10675532.11049  23421993.7864   23422002.3004
 96  2 18 18 21 30.0000000  0  8 19 29 31 22 18 28 27 14
  21851590.659   -13921302.42349 -10835791.97949  21851592.9694   21851599.3094
  20947659.634    -1315075.80049   -946856.53349  20947660.8454   20947665.3364
  23997856.070    -4103442.51649  -3160937.82949  23997856.1204   23997863.4464
  23755122.797    11305586.40149   8806013.86549  23755122.4964   23755128.5264
  20585058.700   -12009542.05849  -9348054.67149  20585059.7694   20585064.9344
  23844421.219    -5221871.083 9  -3880305.775 9  23844421.594    23844427.534
  24564775.888    -8552705.45249  -6650307.67749  24564775.2874   24564782.8384
  23441716.551    13811439.12649  10756300.61149  23441718.8094   23441726.7234
 96  2 18 18 22  0.0000000  0  8 19 29 31 22 18 28 27 14
  21840997.096   -13976980.19949 -10879177.24249  21840997.9234   21841004.2404
  20952476.476    -1289759.31649   -927129.42449  20952478.1044   20952483.2524
  23980433.734    -4194984.70749  -3232269.29449  23980435.7234   23980443.7064
  23773320.381    11401218.17549   8880532.07349  23773320.5264   23773326.7214
  20577798.768   -12047692.64649  -9377782.40649  20577799.8084   20577805.0524
  23834280.818    -5275147.355 9  -3921819.717 9  23834282.702    23834288.683
  24548947.663    -8635893.17749  -6715129.24749  24548946.6124   24548951.8704
  23461472.086    13915249.25549  10837191.53149  23461472.8484   23461481.7824
 96  2 18 18 22 30.0000000  0  8 19 29 31 22 18 28 27 14
  21830447.838   -14032420.32149 -10922377.32949  21830448.0144   21830454.3684
  20957374.381    -1264019.34049   -907072.32949  20957376.5754   20957381.2224
  23963042.694    -4286377.39949  -3303484.28249  23963044.1084   23963051.5774
  23791562.971    11497085.29049   8955233.65849  23791563.2574   23791569.2274
  20570608.838   -12085477.89049  -9407225.45549  20570609.7014   20570614.9084
  23824219.102    -5328030.292 9  -3963027.174 9  23824219.930    23824225.532
  24533125.882    -8719014.82649  -6779899.26349  24533129.8164   24533135.5164
  23481257.487    14019215.63649  10918204.21249  23481257.3854   23481265.9174
 96  2 18 18 23  0.0000000  0  8 19 29 31 22 18 28 27 14
  21819939.123   -14087629.60749 -10965397.54149  21819941.4994   21819948.6264
  20962355.773    -1237845.33149   -886677.01749  20962357.4374   20962362.0864
  23945678.862    -4377624.13849  -3374585.54249  23945680.7014   23945687.2824
  23809849.704    11593183.96049   9030115.69349  23809850.8354   23809856.8004
  20563492.346   -12122872.85549  -9436364.39349  20563493.5094   20563498.9354
  23814232.959    -5380511.334 9  -4003921.453 9  23814232.198    23814238.871
  24517327.194    -8802048.78649  -6844600.99649  24517329.1124   24517333.8184
  23501072.938    14123352.69749  10999349.87449  23501074.5014   23501082.3044
 96  2 18 18 23 30.0000000  0  8 19 29 31 22 18 28 27 14
  21809479.277   -14142610.46849 -11008239.76449  21809479.3524   21809485.7214
  20967418.229    -1211236.23049   -865942.67749  20967420.6404   20967425.6394
  23928337.431    -4468746.52749  -3445589.92349  23928340.1464   23928348.6524
  23828180.989    11689511.56149   9105176.10049  23828181.0104   23828186.8534
  20556453.952   -12159859.94449  -9465185.50349  20556455.2124   20556460.3764
  23804322.019    -5432586.786 9  -4044499.715 9  23804324.134    23804329.594
  24501545.264    -8884987.08949  -6909228.19249  24501546.9404   24501552.5724
  23520921.094    14227652.91049  11080622.67549  23520921.2764   23520929.7764
 96  2 18 18 24  0.0000000  0  8 19 29 31 22 18 28 27 14
  21799057.601   -14197374.14649 -11050912.74749  21799058.2164   21799064.3304
  20972565.185    -1184194.08149   -844870.89549  20972567.1764   20972571.7554
  23911021.769    -4559750.05249  -3516501.67849  23911021.7744   23911029.7814
  23846550.687    11786045.41249   9180397.23649  23846550.9984   23846556.8914
  20549495.247   -12196425.70149  -9493678.30749  20549497.1314   20549502.1074
  23794489.040    -5484256.637 9  -4084761.882 9  23794491.613    23794496.472
  24485779.727    -8967844.25449  -6973792.14349  24485780.6154   24485785.0814
  23540795.571    14332102.80549  11162012.11849  23540798.3834   23540806.6134
 96  2 18 18 24 30.0000000  0  8 19 29 31 22 18 28 27 14
  21788673.457   -14251937.62549 -11093429.72849  21788675.5194   21788680.8444
  20977789.906    -1156738.25749   -823476.77249  20977791.1514   20977796.3324
  23893725.049    -4650634.80649  -3587320.93849  23893729.2704   23893734.0914
  23864957.549    11882767.86149   9255765.32649  23864956.9884   23864962.3084
  20542615.408   -12232583.92149  -9521853.54649  20542616.7254   20542621.4904
  23784732.997    -5535528.193 9  -4124713.745 9  23784733.990    23784739.921
  24470024.992    -9050631.83349  -7038301.89749  24470023.9804   24470031.7444
  23560697.163    14436680.28249  11243500.98149  23560699.3754   23560706.5934
 96  2 18 18 25  0.0000000  0  8 19 29 31 22 18 28 27 14
  21778328.808   -14306297.25549 -11135787.85949  21778331.2794   21778336.6544
  20983089.866    -1128886.13149   -801773.84149  20983091.7644   20983096.4014
  23876454.084    -4741394.60249  -3658042.77749  23876456.6154   23876464.4714
  23883398.197    11979676.62049   9331278.57949  23883397.3714   23883403.9094
  20535810.255   -12268343.50149  -9549718.15849  20535811.9414   20535816.9724
  23775055.297    -5586389.539 9  -4164345.951 9  23775055.605    23775061.236
  24454282.397    -9133351.53349  -7102758.78149  24454284.4464   24454291.1164
  23580622.790    14541388.89349  11325092.01149  23580623.8414   23580632.4164
 96  2 18 18 25 30.0000000  0  8 19 29 31 22 18 28 27 14
  21768024.964   -14360445.52349 -11177981.29449  21768026.6434   21768032.5764
  20988464.511    -1100643.19449   -779766.37249  20988465.9034   20988471.0654
  23859212.778    -4832012.01349  -3728653.69249  23859213.5504   23859220.5914
  23901872.196    12076760.00949   9406927.89749  23901872.5744   23901878.0124
  20529081.245   -12303706.92949  -9577274.07349  20529082.2914   20529087.0094
  23765455.575    -5636831.544 9  -4203651.383 9  23765456.968    23765462.888
  24438554.197    -9216002.42249  -7167162.04749  24438554.7704   24438563.4914
  23600575.163    14646237.87749  11406792.41249  23600576.0894   23600584.0624
 96  2 18 18 26  0.0000000  0  8 19 29 31 22 18 28 27 14
  21757760.520   -14414385.68849 -11220012.57349  21757762.0914   21757768.0554
  20993913.101    -1072008.09749   -757453.33949  20993915.1574   20993919.8954
  23841996.700    -4922475.98649  -3799145.05049  23841998.4524   23842006.0764
  23920375.488    12173998.94949   9482698.43049  23920376.4134   23920382.3924
  20522426.263   -12338678.89849  -9604524.95949  20522427.3434   20522431.7584
  23755936.497    -5686852.407 9  -4242628.667 9  23755938.230    23755944.080
  24422842.799    -9298575.94049  -7231505.01349  24422841.2354   24422850.2484
  23620555.728    14751234.04749  11488607.53449  23620556.0494   23620564.1054
 96  2 18 18 26 30.0000000  0  8 19 29 31 22 18 28 27 14
  21747537.734   -14468110.05849 -11261875.70349  21747538.5934   21747544.8994
  20999437.894    -1042978.68149   -734833.02749  20999439.5804   20999444.1814
  23824813.430    -5012774.39049  -3869507.38649  23824815.2384   23824822.4534
  23938910.154    12271397.64749   9558593.44949  23938910.4334   23938916.6704
  20515846.053   -12373259.83249  -9631471.14349  20515846.8274   20515851.6364
  23746500.571    -5736444.410 9  -4281271.785 9  23746500.980    23746507.411
  24407146.996    -9381046.94549  -7295768.12949  24407147.8374   24407157.1574
  23640563.461    14856380.52749  11570539.78049  23640566.1754   23640572.7924
 96  2 18 18 27  0.0000000  0  8 19 29 31 22 18 28 27 14
  21737350.078   -14521647.31249 -11303593.02649  21737351.2274   21737357.3464
  21005033.849    -1013572.77149   -711919.35549  21005035.2634   21005039.7894
  23807658.246    -5102925.57549  -3939755.01549  23807659.1464   23807666.8334
  23957470.245    12368925.64449   9634589.22949  23957469.5314   23957475.8834
  20509337.399   -12407460.12549  -9658120.72949  20509338.6184   20509343.4694
  23737138.962    -5785634.025 9  -4319601.333 9  23737140.397    23737146.838
  24391470.493    -9463438.82749  -7359969.57149  24391469.1574   24391478.0084
  23660595.187    14961646.86649  11652565.38949  23660596.5444   23660604.8474
 96  2 18 18 27 30.0000000  0  8 19 29 31 22 18 28 27 14
  21727202.537   -14574966.64949 -11345140.53949  21727205.3864   21727210.8744
  21010712.043     -983732.11649   -688666.91449  21010713.7734   21010718.2824
  23790543.162    -5192874.01249  -4009844.67449  23790543.0584   23790550.6764
  23976064.174    12466643.55749   9710733.02149  23976064.7194   23976070.1564
  20502911.861   -12441224.74849  -9684430.82949  20502913.3774   20502918.5224
  23727863.253    -5834384.698 9  -4357588.855 9  23727864.060    23727870.004
  24375811.595    -9545705.65049  -7424073.55549  24375813.7314   24375822.1634
  23680653.613    15067057.45449  11734703.41049  23680655.8784   23680663.9714
 96  2 18 18 28  0.0000000  0  8 19 29 31 22 18 28 27 14
  21717093.666   -14628083.31149 -11386530.12949  21717097.4964   21717102.9564
  21016470.683     -953469.71449   -665085.83849  21016472.2224   21016477.2964
  23773463.564    -5282622.77949  -4079778.73449  23773464.0334   23773471.9744
  23994697.079    12564567.31049   9787037.20049  23994699.2204   23994704.7884
  20496568.548   -12474561.55749  -9710407.56749  20496569.5034   20496574.4584
  23718667.586    -5882707.611 9  -4395243.038 9  23718668.416    23718674.178
  24360179.472    -9627861.07649  -7488090.75949  24360181.2764   24360188.0914
  23700736.208    15172581.87049  11816930.13549  23700736.5044   23700743.8124
 96  2 18 18 28 30.0000000  0  8 19 29 31 22 18 28 27 14
  21707027.888   -14680987.16149 -11427753.89249  21707029.8764   21707035.4904
  21022310.621     -922782.99749   -641174.13249  21022311.7584   21022316.8364
  23756426.312    -5372154.62049  -4149543.76849  23756427.3624   23756434.8154
  24013375.725    12662718.67749   9863518.73749  24013377.0604   24013382.5484
  20490309.165   -12507452.93649  -9736037.22149  20490310.7344   20490315.6374
  23709552.920    -5930591.481 9  -4432555.128 9  23709555.979    23709562.452
  24344566.705    -9709918.26949  -7552031.38049  24344566.4294   24344572.8924
  23720838.593    15278223.77049  11899248.40049  23720840.2944   23720847.7374
 96  2 18 18 29  0.0000000  0  8 19 29 31 22 18 28 27 14
  21696996.647   -14733698.19349 -11468827.41449  21696998.6754   21697005.1544
  21028225.964     -891695.00249   -616949.74049  21028227.5544   21028232.4664
  23739424.832    -5461499.16349  -4219162.85549  23739426.0024   23739432.6654
  24032093.060    12761075.45349   9940160.32149  24032093.7734   24032099.4424
  20484130.714   -12539922.34649  -9761338.06549  20484132.1924   20484137.3754
  23700523.134    -5978058.690 9  -4469542.548 9  23700523.560    23700529.485
  24328965.078    -9791918.66949  -7615927.74949  24328963.4034   24328968.2324
  23740961.330    15383963.66649  11981643.01549  23740962.0944   23740969.3634
 96  2 18 18 29 30.0000000  0  8 19 29 31 22 18 28 27 14
  21687010.074   -14786184.78749 -11509726.05349  21687011.0454   21687016.9854
  21034221.885     -860184.02749   -592395.76149  21034223.8994   21034229.0914
  23722461.483    -5550645.32849  -4288627.37149  23722460.9114   23722468.4924
  24050856.113    12859674.50149  10016990.69449  24050856.8524   24050862.8874
  20478036.641   -12571946.67549  -9786292.09249  20478038.0964   20478043.0384
  23691574.428    -6025077.635 9  -4506180.664 9  23691575.921    23691582.451
  24313374.504    -9873832.63949  -7679756.76449  24313374.3184   24313379.8514
  23761104.416    15489822.93449  12064130.63849  23761106.1724   23761113.6934
 96  2 18 18 30  0.0000000  0  8 19 29 31 22 18 28 27 14
  21677066.595   -14838431.05249 -11550437.42249  21677068.7724   21677074.7614
  21040296.828     -828267.75749   -567525.96349  21040297.9274   21040302.5634
  23705529.467    -5639616.89249  -4357955.83749  23705530.8564   23705537.7574
  24069658.084    12958479.87149  10093981.82249  24069658.5404   24069665.3534
  20472025.658   -12603538.60949  -9810909.18849  20472026.2534   20472031.5894
  23682712.992    -6071652.082 9  -4542472.445 9  23682713.483    23682719.494
  24297799.372    -9955668.98049  -7743525.29549  24297801.6714   24297806.7244
  23781270.798    15595795.33849  12146706.44349  23781272.0314   23781280.3594
 96  2 18 18 30 30.0000000  0  8 19 29 31 22 18 28 27 14
  21667170.160   -14890444.77049 -11590967.58349  21667171.4254   21667176.8764
  21046444.276     -795955.08449   -542347.28149  21046446.2734   21046451.3854
  23688625.841    -5728441.83449  -4427170.04349  23688628.1794   23688635.1284
  24088490.983    13057448.51949  10171100.19049  24088491.4424   24088497.0554
  20466091.239   -12634721.39449  -9835207.46749  20466092.5904   20466097.5034
  23673931.352    -6117795.976 9  -4578428.700 9  23673932.085    23673938.598
  24282238.445   -10037442.99649  -7807245.23349  24282240.3644   24282245.5614
  23801454.899    15701867.60849  12229360.05649  23801457.2494   23801465.2854
 96  2 18 18 31  0.0000000  0  8 19 29 31 22 18 28 27 14
  21657315.176   -14942235.50449 -11631323.99649  21657316.0594   21657321.8224
  21052668.700     -763248.42149   -516861.59649  21052670.3514   21052675.0924
  23671752.444    -5817113.41449  -4496264.75349  23671754.2664   23671761.8194
  24107355.474    13156587.12349  10248351.00049  24107355.8034   24107362.0684
  20460233.584   -12665499.59749  -9859190.48849  20460235.4954   20460240.3404
  23665232.036    -6163507.260 9  -4614047.857 9  23665233.359    23665240.092
  24266696.316   -10119123.93849  -7870892.64749  24266697.2454   24266703.5464
  23821658.017    15808025.92149  12312080.69049  23821658.6034   23821666.3704
 96  2 18 18 31 30.0000000  0  8 19 29 31 22 18 28 27 14
  21647501.410   -14993801.84049 -11671505.55349  21647503.2664   21647509.2144
  21058969.016     -730143.38049   -491065.48249  21058970.0444   21058975.0054
  23654914.024    -5905600.90249  -4565216.01549  23654915.8774   23654923.0694
  24126253.677    13255898.45349  10325736.42249  24126255.5994   24126261.4744
  20454456.693   -12695859.31249  -9882847.41449  20454458.2164   20454463.3854
  23656618.828    -6208772.000 9  -4649319.075 9  23656619.605    23656625.699
  24251171.409   -10200689.85249  -7934450.45349  24251175.4964   24251181.6784
  23841873.230    15914275.52549  12394872.47149  23841877.4854   23841884.9974
 96  2 18 18 32  0.0000000  0  8 19 29 31 22 18 28 27 14
  21637727.284   -15045161.98349 -11711526.44349  21637729.6784   21637735.6344
  21065343.082     -696642.00649   -464960.54149  21065344.9634   21065350.0964
  23638111.443    -5993897.22849  -4634018.31349  23638113.1524   23638120.0714
  24145181.772    13355360.08049  10403238.96549  24145182.7314   24145186.9554
  20448758.075   -12725806.51049  -9906182.89949  20448759.4044   20448764.2644
  23648089.295    -6253594.792 9  -4684245.900 9  23648090.526    23648096.839
  24235670.917   -10282153.73749  -7997928.74249  24235673.0224   24235680.0614
  23862113.785    16020620.31449  12477738.43249  23862113.8624   23862122.2874
 96  2 18 18 32 30.0000000  0  8 19 29 31 22 18 28 27 14
  21627989.043   -15096346.08549 -11751410.16149  21627989.4364   21627995.4234
  21071796.438     -662733.14949   -438538.07849  21071797.5724   21071802.6204
  23621349.531    -6081987.17049  -4702659.76749  23621350.3644   23621356.7644
  24164140.196    13454985.29849  10480868.98349  24164140.1024   24164146.4464
  20443138.764   -12755339.39849  -9929195.54149  20443139.4894   20443144.6044
  23639645.040    -6297971.785 9  -4718825.364 9  23639645.931    23639652.147
  24220186.886   -10363514.49849  -8061326.68049  24220190.1744   24220198.3004
  23882370.812    16127070.33649  12560686.38149  23882370.8524   23882379.1274
 96  2 18 18 33  0.0000000  0  8 19 29 31 22 18 28 27 14
  21618279.552   -15147368.18249 -11791167.63949  21618280.0834   21618286.0374
  21078326.959     -628413.72649   -411795.69349  21078328.6214   21078333.6644
  23604625.284    -6169867.43149  -4771137.83649  23604627.0944   23604633.9814
  24183129.037    13554770.05849  10558623.29449  24183129.1864   24183134.8644
  20437597.329   -12784454.78749  -9951882.86449  20437598.9454   20437604.1694
  23631284.656    -6341904.786 9  -4753058.853 9  23631285.729    23631291.784
  24204728.547   -10444768.41649  -8124641.37849  24204728.9824   24204736.9704
  23902645.326    16233622.17449  12643713.65649  23902647.3514   23902655.2254
 96  2 18 18 33 30.0000000  0  8 19 29 31 22 18 28 27 14
  21608603.571   -15198216.88749 -11830790.00549  21608604.3054   21608609.9334
  21084938.600     -593668.35549   -384721.40149  21084940.5164   21084945.2514
  23587941.092    -6257546.93049  -4839459.46949  23587943.3104   23587948.5834
  24202144.391    13654700.45549  10636491.08049  24202145.3934   24202151.7604
  20432137.618   -12813149.24449  -9974242.17849  20432138.9624   20432143.7794
  23623010.776    -6385391.426 9  -4786944.535 9  23623010.837    23623016.730
  24189282.271   -10525940.56149  -8187892.36649  24189282.2744   24189290.1614
  23922942.043    16340281.64149  12726824.79449  23922944.4004   23922952.5504
 96  2 18 18 34  0.0000000  0  8 19 29 31 22 18 28 27 14
  21598962.699   -15248874.35649 -11870263.34849  21598964.3224   21598969.9554
  21091634.764     -558484.97349   -357305.80749  21091635.7364   21091640.5924
  23571293.579    -6345025.62449  -4907624.61649  23571294.8154   23571302.3204
  24221191.519    13754785.45049  10714479.32649  24221190.2374   24221197.1244
  20426759.072   -12841413.27749  -9996266.10049  20426760.2774   20426765.1354
  23614821.398    -6428423.629 9  -4820476.097 9  23614821.787    23614827.477
  24173854.250   -10607025.36549  -8251075.27149  24173852.6514   24173859.6074
  23943259.435    16447044.86849  12810016.79749  23943260.6174   23943268.5594
 96  2 18 18 34 30.0000000  0  8 19 29 31 22 18 28 27 14
  21589363.371   -15299320.24349 -11909571.82749  21589364.9034   21589370.6134
  21098410.587     -522872.94549   -329556.19749  21098412.3834   21098417.1844
  23554688.728    -6432293.54649  -4975625.53149  23554689.4394   23554696.3664
  24240267.369    13855027.34549  10792589.82949  24240266.5164   24240271.8764
  20421462.533   -12869245.44749 -10017953.50949  20421464.0924   20421469.0754
  23606719.831    -6470997.336 9  -4853650.406 9  23606720.210    23606725.764
  24158438.812   -10688016.50749  -8314185.21249  24158440.2764   24158447.1064
  23963593.945    16553902.29549  12893282.21749  23963594.3764   23963602.8464
 96  2 18 18 35  0.0000000  0  8 19 29 31 22 18 28 27 14
  21579806.268   -15349538.69549 -11948703.07949  21579808.5294   21579814.4754
  21105266.918     -486846.70649   -301483.82849  21105268.0114   21105272.7014
  23538121.745    -6519349.21149  -5043461.02549  23538122.5044   23538130.4624
  24259369.170    13955417.18649  10870815.62349  24259370.1654   24259375.6764
  20416250.992   -12896632.64549 -10039294.18649  20416252.7094   20416257.5004
  23598705.717    -6513112.407 9  -4886467.331 9  23598706.357    23598711.872
  24143040.874   -10768932.99449  -8377236.98649  24143042.5004   24143049.0844
  23983944.205    16660840.14449  12976610.28049  23983944.8394   23983952.9034
 96  2 18 18 35 30.0000000  0  8 19 29 31 22 18 28 27 14
  21570297.825   -15399515.07449 -11987645.70449  21570298.2704   21570304.5394
  21112197.005     -450425.92849   -273104.03249  21112198.7204   21112203.4154
  23521596.567    -6606184.11749  -5111124.53249  23521598.4154   23521605.0464
  24278501.125    14055954.72649  10949156.51649  24278501.1654   24278506.5814
  20411126.526   -12923563.58749 -10060279.34049  20411127.6614   20411132.6814
  23590777.890    -6554764.359 9  -4918923.361 9  23590779.925    23590785.482
  24127656.471   -10849780.66049  -8440235.12049  24127657.8714   24127663.5204
  24004307.672    16767855.75849  13059998.92349  24004309.5134   24004316.6944
 96  2 18 18 36  0.0000000  0  8 19 29 31 22 18 28 27 14
  21560832.935   -15449251.09149 -12026401.03449  21560834.1464   21560839.9124
  21119201.434     -413620.52049   -244424.51149  21119202.3934   21119207.0474
  23505114.914    -6692797.94349  -5178615.78449  23505116.3234   23505122.6954
  24297655.995    14156623.34249  11027599.53449  24297657.4464   24297663.1554
  20406086.286   -12950050.00449 -10080918.11049  20406087.2024   20406092.3634
  23582942.075    -6595954.275 9  -4951019.394 9  23582942.056    23582947.250
  24112286.274   -10930557.10849  -8503177.76349  24112286.0194   24112292.9744
  24024688.515    16874952.87649  13143451.09649  24024689.7194   24024697.1964
 96  2 18 18 36 30.0000000  0  8 19 29 31 22 18 28 27 14
  21551413.320   -15498745.74849 -12064968.28049  21551415.7744   21551421.5254
  21126278.566     -376426.99149   -215442.56849  21126280.3624   21126285.0694
  23488678.256    -6779183.84849  -5245929.40349  23488677.2944   23488685.0754
  24316837.606    14257422.43949  11106144.22749  24316839.1124   24316845.4914
  20401130.492   -12976089.63849 -10101208.73749  20401132.2794   20401137.5234
  23575191.424    -6636675.709 9  -4982750.360 9  23575192.629    23575198.811
  24096928.309   -11011267.51949  -8566068.95549  24096927.5874   24096933.8254
  24045087.530    16982147.71949  13226979.43849  24045088.1994   24045096.3844
 96  2 18 18 37  0.0000000  0  8 19 29 31 22 18 28 27 14
  21542036.967   -15548022.17949 -12103365.48549  21542038.7044   21542044.2034
  21133430.747     -338840.99149   -186154.79949  21133432.7334   21133437.1094
  23472279.813    -6865347.59549  -5313069.93049  23472280.7504   23472288.3824
  24336043.739    14358344.19249  11184784.47549  24336044.6424   24336051.2084
  20396258.133   -13001695.12349 -10121161.07049  20396259.3674   20396264.6674
  23567530.205    -6676936.326 9  -5014122.238 9  23567531.003    23567537.020
  24081576.292   -11091917.49149  -8628913.01149  24081579.8074   24081586.4934
  24065500.824    17089423.85449  13310571.08149  24065501.0744   24065510.8644
 96  2 18 18 37 30.0000000  0  8 19 29 31 22 18 28 27 14
  21532701.048   -15597084.55349 -12141595.89149  21532702.0914   21532707.6534
  21140660.948     -300847.35549   -156549.39249  21140662.5614   21140667.1404
  23455928.473    -6951278.20949  -5380028.79749  23455928.1954   23455937.4464
  24355270.608    14459388.90549  11263520.53049  24355272.3884   24355278.0744
  20391463.591   -13026892.14949 -10140795.11849  20391464.7284   20391470.0224
  23559956.748    -6716733.693 9  -5045133.177 9  23559957.838    23559963.451
  24066244.570   -11172486.09249  -8691693.69249  24066247.4134   24066254.5644
  24085930.236    17196783.44549  13394227.75349  24085931.7124   24085940.1244
 96  2 18 18 38  0.0000000  0  8 19 29 31 22 18 28 27 14
  21523402.714   -15645949.24449 -12179672.25049  21523403.3364   21523409.2514
  21147968.830     -262443.15849   -126624.06849  21147970.8204   21147975.6324
  23439620.920    -7036968.17849  -5446800.16649  23439622.0274   23439629.4244
  24374524.389    14560558.33849  11342353.79149  24374524.6264   24374530.9394
  20386744.259   -13051692.68649 -10160120.21649  20386745.4074   20386750.2394
  23552472.318    -6756067.084 9  -5075782.559 9  23552473.205    23552479.140
  24050931.023   -11252977.15949  -8754413.95049  24050930.6884   24050938.2194
  24106376.224    17304219.07649  13477943.70949  24106376.2634   24106385.4734
 96  2 18 18 38 30.0000000  0  8 19 29 31 22 18 28 27 14
  21514139.161   -15694626.67349 -12217602.68949  21514140.2074   21514146.1694
  21155352.891     -223639.79449    -96387.70349  21155354.7224   21155359.6394
  23423360.982    -7122409.61049  -5513377.85049  23423362.7534   23423372.0134
  24393799.722    14661863.74849  11421292.99849  24393802.3804   24393808.5364
  20382103.352   -13076079.80949 -10179123.17149  20382104.8484   20382109.8244
  23545076.132    -6794933.152 9  -5106067.788 9  23545076.794    23545083.039
  24035633.913   -11333373.90149  -8817060.72249  24035632.7314   24035638.9374
  24126832.449    17411715.06749  13561706.67049  24126832.2074   24126840.6934
 96  2 18 18 39  0.0000000  0  8 19 29 31 22 18 28 27 14
  21504911.257   -15743114.93949 -12255385.72749  21504913.5074   21504919.6094
  21162813.491     -184435.79949    -65839.16049  21162814.8724   21162819.9584
  23407151.281    -7207594.50149  -5579755.62849  23407153.2724   23407159.5074
  24413105.677    14763305.12449  11500338.15149  24413105.8214   24413112.5014
  20377542.369   -13100047.68049 -10197799.43649  20377544.0544   20377548.6634
  23537769.936    -6833327.934 9  -5135985.781 9  23537771.175    23537776.883
  24020348.077   -11413661.00149  -8879622.03349  24020353.6274   24020360.4684
  24147294.580    17519251.47349  13645501.11849  24147295.1084   24147304.3624
 96  2 18 18 39 30.0000000  0  8 19 29 31 22 18 28 27 14
  21495725.716   -15791391.18949 -12293003.57149  21495726.7064   21495732.7324
  21170350.145     -144829.71049    -34977.30249  21170352.0384   21170356.8524
  23390990.971    -7292527.78649  -5645937.36749  23390991.8544   23390998.8984
  24432436.635    14864892.43149  11579497.02649  24432438.1294   24432444.5574
  20373064.774   -13123578.37349 -10216135.04349  20373066.1964   20373071.0414
  23530555.563    -6871242.382 9  -5165529.499 9  23530556.033    23530562.090
  24005097.558   -11493833.56449  -8942094.13449  24005097.7304   24005104.7604
  24167766.531    17626831.53649  13729329.59249  24167767.6154   24167776.1594
 96  2 18 18 40  0.0000000  0  8 19 29 31 22 18 28 27 14
  21486578.546   -15839452.42249 -12330453.86649  21486580.7364   21486587.0194
  21177961.797     -104831.73849     -3810.07049  21177963.1214   21177968.2544
  23374871.254    -7377232.18349  -5711940.72649  23374872.4954   23374879.9024
  24451795.000    14966621.50549  11658766.36549  24451795.8484   24451803.1544
  20368675.364   -13146646.18149 -10234109.96349  20368676.5524   20368681.2994
  23523430.940    -6908679.691 9  -5194701.402 9  23523431.849    23523438.174
  23989860.157   -11573898.64449  -9004482.45949  23989861.8614   23989869.1974
  24188244.233    17734442.46249  13813182.12749  24188244.8704   24188254.5724
 96  2 18 18 40 30.0000000  0  8 19 29 31 22 18 28 27 14
  21477475.781   -15887291.92449 -12367731.39249  21477477.1544   21477482.9854
  21185649.458      -64432.06049     27670.16449  21185651.2614   21185655.9704
  23358795.599    -7461714.36549  -5777770.96749  23358796.6624   23358803.1924
  24471179.636    15068493.07549  11738146.73949  24471181.7974   24471188.3964
  20364374.104   -13169246.14449 -10251720.32849  20364375.5764   20364380.5044
  23516397.290    -6945642.045 9  -5223503.201 9  23516398.031    23516403.899
  23974645.701   -11653856.43749  -9066787.19649  23974646.4754   23974653.2094
  24208725.556    17842078.38249  13897054.10449  24208727.5574   24208736.4714
 96  2 18 18 41  0.0000000  0  8 19 29 31 22 18 28 27 14
  21468417.139   -15934896.70749 -12404826.01349  21468418.5744   21468423.8884
  21193418.041      -23610.07049     59479.48449  21193419.1294   21193424.1334
  23342764.401    -7545958.88049  -5843415.99849  23342764.8104   23342771.1314
  24490595.364    15170516.86549  11817645.73149  24490596.2134   24490602.2354
  20360162.791   -13191380.66649 -10268968.01449  20360163.6364   20360168.4224
  23509456.320    -6982120.247 9  -5251927.763 9  23509456.980    23509462.396
  23959444.975   -11733715.99149  -9129015.37849  23959449.2444   23959455.7004
  24229214.726    17949750.12049  13980953.98249  24229217.7074   24229225.9604
 96  2 18 18 41 30.0000000  0  8 19 29 31 22 18 28 27 14
  21459398.751   -15982286.54649 -12441753.15249  21459400.4374   21459405.8674
  21201262.890       17618.81649     91605.85249  21201264.7664   21201270.1154
  23326777.559    -7629974.20749  -5908882.43449  23326777.4174   23326784.6464
  24510032.759    15272664.76849  11897241.41549  24510033.6874   24510039.8954
  20356035.858   -13213063.42849 -10285863.68349  20356037.8544   20356042.3754
  23502603.156    -7018126.130 9  -5279984.285 9  23502604.870    23502610.484
  23944267.201   -11813500.86549  -9191185.38749  23944267.3044   23944273.5594
  24249712.855    18057460.83449  14064884.24049  24249713.9804   24249721.5214
 96  2 18 18 42  0.0000000  0  8 19 29 31 22 18 28 27 14
  21450418.800   -16029477.87849 -12478525.60949  21450420.2374   21450426.0434
  21209186.766       59254.53249    124049.24649  21209187.7304   21209192.6904
  23310836.646    -7713735.04349  -5974150.53949  23310838.5724   23310844.8114
  24529490.238    15374924.94449  11976924.60149  24529493.3924   24529500.0744
  20351996.506   -13234291.94349 -10302405.38849  20351997.7754   20352002.7964
  23495844.577    -7053651.144 9  -5307666.108 9  23495844.953    23495850.207
  23929095.688   -11893212.30949  -9253298.16049  23929097.7564   23929104.3074
  24270220.764    18165228.66649  14148859.02149  24270220.2714   24270229.9504
 96  2 18 18 42 30.0000000  0  8 19 29 31 22 18 28 27 14
  21441472.555   -16076488.14049 -12515156.97949  21441474.5594   21441480.3724
  21217185.941      101295.39649    156808.32649  21217188.0664   21217193.2744
  23294951.838    -7797219.14549  -6039203.03649  23294951.8934   23294959.0244
  24548969.604    15477286.57949  12056686.84049  24548971.6404   24548979.1034
  20348040.169   -13255083.13149 -10318606.32049  20348041.4134   20348046.4464
  23489176.301    -7088694.033 9  -5334972.266 9  23489176.304    23489182.343
  23913939.906   -11972862.60849  -9315363.28749  23913941.7154   23913947.5794
  24290738.830    18273051.41049  14232876.56949  24290739.6674   24290748.4914
 96  2 18 18 43  0.0000000  0  8 19 29 31 22 18 28 27 14
  21432560.614   -16123319.76049 -12551649.14849  21432562.5084   21432568.5494
  21225265.042      143747.94149    189888.19849  21225266.6214   21225271.5044
  23279116.490    -7880417.49949  -6104032.84649  23279118.6154   23279127.2214
  24568464.855    15579732.78549  12136515.01049  24568467.0984   24568473.6314
  20344168.385   -13275430.25649 -10334461.23249  20344169.7074   20344174.5084
  23482600.109    -7123249.759 9  -5361898.802 9  23482600.915    23482606.732
  23898793.367   -12052455.67249  -9377383.80249  23898795.2904   23898800.3784
  24311266.030    18380931.60649  14316938.87849  24311267.9554   24311277.8804
 96  2 18 18 43 30.0000000  0  8 19 29 31 22 18 28 27 14
  21423683.191   -16169975.66649 -12588004.40649  21423684.5724   21423690.2344
  21233420.880      186605.90449    223283.98149  21233422.0104   21233426.8754
  23263340.638    -7963326.10449  -6168636.87549  23263343.1084   23263349.3394
  24587975.318    15682258.97049  12216405.51449  24587976.8914   24587983.3344
  20340382.685   -13295321.90549 -10349961.22749  20340384.2714   20340389.2614
  23476118.618    -7157311.129 9  -5388440.130 9  23476119.229    23476124.642
  23883658.943   -12131989.35649  -9439358.05849  23883660.1514   23883666.3454
  24331804.578    18488866.91049  14401044.13949  24331808.1704   24331816.5624
 96  2 18 18 44  0.0000000  0  8 19 29 31 22 18 28 27 14
  21414835.706   -16216458.58649 -12624224.86649  21414839.1294   21414844.6354
  21241652.320      229866.74349    256993.69949  21241654.4374   21241659.0814
  23247618.682    -8045950.21149  -6233019.23149  23247620.2344   23247626.3534
  24607503.697    15784867.82749  12296360.41049  24607503.7334   24607509.2954
  20336683.919   -13314760.76049 -10365108.39549  20336685.3914   20336690.1924
  23469730.650    -7190880.481 9  -5414598.066 9  23469731.072    23469736.496
  23868534.468   -12211463.00549  -9501285.54649  23868537.4704   23868543.1824
  24352351.192    18596835.55649  14485175.36849  24352353.1904   24352362.1744
 96  2 18 18 44 30.0000000  0  8 19 29 31 22 18 28 27 14
  21406032.508   -16262728.59649 -12660279.42549  21406034.0004   21406039.9924
  21249967.998      273567.56949    291046.25849  21249970.3804   21249975.1874
  23231955.740    -8128264.57649  -6297160.23349  23231955.9084   23231962.4684
  24627049.566    15887587.79549  12376401.92149  24627049.8344   24627057.0304
  20333075.746   -13333720.71749 -10379882.39649  20333077.5574   20333082.2164
  23463439.195    -7223933.305 9  -5440353.529 9  23463441.385    23463446.902
  23853429.756   -12290843.51849  -9563140.44349  23853431.9574   23853438.4464
  24372904.652    18704844.14249  14569337.74449  24372907.1004   24372916.2634
 96  2 18 18 45  0.0000000  0  8 19 29 31 22 18 28 27 14
  21397269.509   -16308780.71849 -12696164.19649  21397270.6794   21397276.5984
  21258366.426      317695.49549    325431.62449  21258367.9944   21258372.3344
  23216346.142    -8210288.32749  -6361074.77449  23216346.9334   23216353.8674
  24646613.591    15990401.05449  12456516.10849  24646614.6534   24646622.9734
  20329559.049   -13352206.26849 -10394286.72849  20329559.8334   20329564.4384
  23457245.812    -7256479.070 9  -5465713.868 9  23457248.334    23457253.375
  23838343.682   -12370120.10049  -9624914.37749  23838345.6534   23838352.3934
  24393464.320    18812883.85849  14653524.35149  24393467.4674   24393475.9074
 96  2 18 18 45 30.0000000  0  8 19 29 31 22 18 28 27 14
  21388545.618   -16354621.05049 -12731883.93449  21388547.5664   21388553.5454
  21266840.480      362228.97649    360133.01049  21266842.2184   21266847.1024
  23200790.352    -8292039.43449  -6424776.87449  23200790.1524   23200797.6824
  24666195.512    16093302.42549  12536698.93049  24666196.3104   24666203.7334
  20326127.491   -13370235.15149 -10408335.21549  20326129.2684   20326133.8404
  23451149.337    -7288527.479 9  -5490686.671 9  23451149.259    23451155.451
  23823282.236   -12449290.65249  -9686605.70249  23823280.1044   23823286.6724
  24414026.839    18920938.52149  14737722.64149  24414028.7984   24414038.0654
 96  2 18 18 46  0.0000000  0  8 19 29 31 22 18 28 27 14
  21379865.660   -16400237.72749 -12767429.39749  21379867.2214   21379872.8654
  21275394.569      407180.83649    395160.40549  21275396.3964   21275401.3494
  23185285.222    -8373520.93149  -6488268.89649  23185285.0914   23185292.3534
  24685793.594    16196295.24749  12616953.02049  24685795.3164   24685801.8594
  20322785.609   -13387798.84649 -10422021.22349  20322786.8424   20322791.8004
  23445143.965    -7320078.705 9  -5515272.048 9  23445145.366    23445150.830
  23808234.049   -12528343.60249  -9748205.37249  23808237.2354   23808242.5844
  24434592.466    19029009.32249  14821933.50149  24434594.9964   24434603.4034
 96  2 18 18 46 30.0000000  0  8 19 29 31 22 18 28 27 14
  21371233.044   -16445609.40049 -12802783.94749  21371233.1654   21371238.7564
  21284030.614      452564.70449    430524.43249  21284032.8164   21284037.6854
  23169830.460    -8454722.34849  -6551542.66249  23169833.4874   23169838.3934
  24705411.570    16299391.29949  12697287.53549  24705413.8674   24705422.6074
  20319534.807   -13404881.72149 -10435332.56649  20319535.8214   20319540.7934
  23439238.525    -7351117.506 9  -5539458.147 9  23439238.794    23439244.330
  23793214.616   -12607270.90749  -9809707.15549  23793216.6874   23793223.1624
  24455165.346    19137116.37949  14906172.59249  24455166.6074   24455174.9444
 96  2 18 18 47  0.0000000  0  8 19 29 31 22 18 28 27 14
  21362640.819   -16490749.79249 -12837958.27649  21362642.9194   21362648.5624
  21292744.183      498353.41949    466203.92049  21292745.6044   21292750.9814
  23154428.255    -8535664.37249  -6614614.31949  23154429.6014   23154436.4264
  24725046.225    16402572.20749  12777688.20249  24725048.6204   24725054.8504
  20316374.054   -13421490.35049 -10448274.36549  20316375.2894   20316380.5474
  23433427.334    -7381653.515 9  -5563252.436 9  23433427.974    23433434.123
  23778218.888   -12686091.97049  -9871126.14849  23778218.2824   23778225.0854
  24475742.244    19245247.31249  14990430.28649  24475744.2074   24475751.4034
 96  2 18 18 47 30.0000000  0  8 19 29 31 22 18 28 27 14
  21354093.414   -16535668.37349 -12872959.76149  21354095.4344   21354100.9174
  21301532.924      544537.43049    502191.43849  21301534.3264   21301539.7424
  23139075.258    -8616342.59649  -6677480.41849  23139077.8044   23139083.1734
  24744700.106    16505851.46949  12858165.48049  24744702.1484   24744709.8194
  20313301.837   -13437633.77149 -10460853.66549  20313303.1754   20313308.5764
  23427711.949    -7411686.127 9  -5586654.470 9  23427712.861    23427718.585
  23763231.653   -12764828.71049  -9932479.41249  23763234.9324   23763241.1504
  24496320.993    19353391.79949  15074698.55249  24496322.9464   24496331.4484
 96  2 18 18 48  0.0000000  0  8 19 29 31 22 18 28 27 14
  21345587.877   -16580366.10149 -12907789.15349  21345589.4264   21345595.0284
  21310397.131      591119.43549    538489.06849  21310398.6834   21310403.8454
  23123775.102    -8696745.46549  -6740131.96149  23123777.3724   23123782.9964
  24764373.889    16609235.05449  12938724.07049  24764376.3964   24764382.9164
  20310319.283   -13453306.55949 -10473066.23849  20310320.7894   20310326.1654
  23422093.148    -7441210.980 9  -5609660.851 9  23422094.421    23422100.751
  23748265.461   -12843479.67549  -9993765.83749  23748268.2934   23748274.2804
  24516902.807    19461552.12449  15158979.19149  24516905.6324   24516913.1534
 96  2 18 18 48 30.0000000  0  8 19 29 31 22 18 28 27 14
  21337122.444   -16624852.25849 -12942453.68349  21337124.1644   21337129.7734
  21319335.766      638091.53949    575090.68049  21319337.2874   21319341.7334
  23108531.251    -8776862.52949  -6802560.80249  23108530.5184   23108537.5784
  24784067.377    16712719.92949  13019361.61049  24784068.4154   24784073.7684
  20307424.335   -13468523.54449 -10484923.64049  20307425.5604   20307430.4184
  23416572.291    -7470227.533 9  -5632271.150 9  23416572.852    23416578.650
  23733314.664   -12922051.50949 -10054990.61049  23733316.2144   23733322.0904
  24537487.578    19569719.46649  15243265.31249  24537488.4914   24537497.1254
 96  2 18 18 49  0.0000000  0  8 19 29 31 22 18 28 27 14
  21328690.130   -16669159.18449 -12976978.55249  21328692.7274   21328698.7324
  21328342.957      685423.39549    611972.61849  21328344.0574   21328349.3664
  23093337.277    -8856697.52949  -6864769.83049  23093339.3934   23093345.5644
  24803776.631    16816283.89149  13100060.77249  24803777.2084   24803781.9764
  20304611.209   -13483307.34849 -10496443.50049  20304612.2534   20304617.1444
  23411140.434    -7498761.441 9  -5654505.359 9  23411142.988    23411148.868
  23718374.155   -13000564.93949 -10116169.84949  23718376.6154   23718381.9974
  24558065.623    19677858.36749  15327529.20449  24558066.8844   24558075.8194
 96  2 18 18 49 30.0000000  0  8 19 29 31 22 18 28 27 14
  21320304.984   -16713240.20549 -13011327.38649  21320304.8534   21320310.4494
  21337429.223      733179.55449    649185.17249  21337432.0874   21337436.8674
  23078210.872    -8936190.61949  -6926712.45149  23078212.0814   23078218.7484
  24823508.749    16919978.34949  13180861.60549  24823508.3864   24823514.4484
  20301889.942   -13497604.01149 -10507583.76549  20301891.3884   20301896.2324
  23405813.352    -7526764.438 9  -5676325.866 9  23405814.168    23405820.629
  23703452.761   -13078969.51049 -10177264.26449  23703455.8274   23703461.4384
  24578647.491    19786011.90249  15411804.50849  24578647.2664   24578656.5124
 96  2 18 18 50  0.0000000  0  8 19 29 31 22 18 28 27 14
  21311954.430   -16757113.41049 -13045514.28549  21311955.8704   21311961.7604
  21346598.431      781351.60549    686721.80949  21346599.0024   21346603.5594
  23063143.824    -9015360.13849  -6988402.94849  23063146.7204   23063152.9264
  24843257.264    17023758.17049  13261728.93349  24843257.6064   24843263.4774
  20299261.938   -13511414.75949 -10518345.39849  20299263.4514   20299268.4324
  23400580.535    -7554256.816 9  -5697748.493 9  23400582.212    23400588.385
  23688551.547   -13157280.95749 -10238286.10749  23688553.6014   23688559.8544
  24599227.651    19894153.30549  15496070.37349  24599226.8784   24599235.1644
 96  2 18 18 50 30.0000000  0  8 19 29 31 22 18 28 27 14
  21303642.603   -16800793.28049 -13079550.53549  21303643.5434   21303649.6134
  21355835.690      829905.98149    724556.35049  21355838.3314   21355843.2784
  23048138.747    -9094219.65449  -7049851.88749  23048140.4394   23048146.3554
  24863012.009    17127579.46449  13342628.56749  24863012.9704   24863019.7824
  20296722.176   -13524764.77049 -10528748.01349  20296723.2664   20296727.9164
  23395442.975    -7581262.169 9  -5718791.621 9  23395443.782    23395449.386
  23673659.171   -13235542.59249 -10299269.13549  23673660.5714   23673667.1944
  24619797.443    20002247.15049  15580299.20849  24619796.4784   24619805.5064
 96  2 18 18 51  0.0000000  0  8 19 29 31 22 18 28 27 14
  21295367.583   -16844273.44649 -13113431.17549  21295369.6864   21295375.2514
  21365151.538      878853.14049    762696.96449  21365153.2684   21365157.9914
  23033194.072    -9172760.28749  -7111052.32349  23033194.5694   23033201.0164
  24882776.729    17231438.47949  13423557.59649  24882776.4304   24882784.2114
  20294271.996   -13537639.61349 -10538780.37049  20294273.3014   20294278.1134
  23390397.894    -7607768.186 9  -5739445.657 9  23390399.430    23390405.720
  23658779.228   -13313746.85049 -10360207.46649  23658779.0164   23658785.5524
  24640361.310    20110303.22549  15664498.60749  24640359.3184   24640368.5154
 96  2 18 18 51 30.0000000  0  7 19 29 31 18 28 27 14
  21287133.548   -16887544.79349 -13147149.09549  21287135.5814   21287141.2224
  21374542.853      928206.76849    801154.30449  21374544.4784   21374549.6154
  23018310.265    -9250977.10249  -7172000.46549  23018310.5504   23018316.4434
  20291913.069   -13550035.08749 -10548439.19549  20291914.2824   20291919.1854
  23385454.866    -7633755.502 9  -5759695.521 9  23385454.540    23385460.444
  23643907.268   -13391882.96049 -10421092.68549  23643910.3474   23643916.9924
  24660918.295    20218343.92049  15748685.97549  24660917.7124   24660927.7754
 96  2 18 18 52  0.0000000  0  7 19 29 31 18 28 27 14
  21278936.294   -16930621.75149 -13180715.54749  21278938.2674   21278944.0984
  21384007.166      977943.60349    839910.25049  21384009.2494   21384014.5464
  23003487.265    -9328860.07749  -7232688.45949  23003489.7204   23003496.0204
  20289640.511   -13561976.40349 -10557744.13049  20289641.7394   20289647.0464
  23380606.690    -7659224.980 9  -5779541.874 9  23380607.798    23380613.682
  23629054.409   -13469944.24449 -10481919.61549  23629056.0394   23629062.5424
  24681473.931    20326373.37249  15832864.61249  24681476.1454   24681485.4034
 96  2 18 18 52 30.0000000  0  7 19 29 31 18 28 27 14
  21270772.220   -16973522.05649 -13214144.35249  21270774.6384   21270780.4964
  21393543.993     1028054.94149    878958.02649  21393544.8414   21393550.3894
  22988732.100    -9406405.78949  -7293113.61349  22988732.9084   22988739.2994
  20287451.232   -13573481.96549 -10566709.51949  20287452.3854   20287457.3634
  23375859.469    -7684181.322 9  -5798988.366 9  23375858.867    23375864.811
  23614212.552   -13547939.79949 -10542695.33049  23614213.6904   23614219.7364
  24702027.705    20434389.50349  15917032.87949  24702031.5024   24702041.1514
 96  2 18 18 53  0.0000000  0  7 19 29 31 18 28 27 14
  21262638.221   -17016268.45449 -13247453.22949  21262640.3274   21262646.0284
  21403150.645     1078545.91649    918301.60649  21403152.7494   21403157.9124
  22974036.504    -9483626.33149  -7353285.41649  22974037.8884   22974044.3934
  20285346.139   -13584544.65249 -10575329.81449  20285347.4064   20285352.4314
  23371204.901    -7708629.433 9  -5818038.857 9  23371206.154    23371212.231
  23599387.225   -13625847.26849 -10603402.41649  23599388.7314   23599395.1164
  24722580.458    20542391.97749  16001190.50549  24722582.1794   24722591.9954
 96  2 18 18 53 30.0000000  0  7 19 29 31 18 28 27 14
  21254538.941   -17058838.87349 -13280624.98049  21254539.3234   21254544.9204
  21412831.963     1129418.12749    957942.26749  21412833.9924   21412838.6404
  22959408.369    -9560506.78249  -7413192.21349  22959409.2584   22959413.9814
  20283329.514   -13595141.27749 -10583586.93749  20283330.6164   20283336.0144
  23366653.156    -7732557.549 9  -5836684.132 9  23366653.045    23366659.243
  23584579.697   -13703647.48449 -10664025.93549  23584583.5094   23584589.5414
  24743131.015    20650380.11349  16085336.93249  24743131.9314   24743142.3354
 96  2 18 18 54  0.0000000  0  7 19 29 31 18 28 27 14
  21246474.446   -17101219.54949 -13313648.88549  21246474.6564   21246479.9774
  21422587.809     1180681.53749    997887.75249  21422588.4954   21422594.0884
  22944844.298    -9637045.15349  -7472832.46649  22944843.4224   22944849.5054
  20281406.041   -13605250.28749 -10591464.10949  20281407.3694   20281412.3414
  23362199.228    -7755958.772 9  -5854918.856 9  23362199.931    23362205.597
  23569801.261   -13781331.53249 -10724558.94049  23569800.5594   23569806.3414
  24763677.453    20758341.64549  16169462.64949  24763677.4964   24763686.9074
 96  2 18 18 54 30.0000000  0  7 19 29 31 18 28 27 14
  21238446.445   -17143400.40549 -13346517.07749  21238447.9444   21238453.5514
  21432416.285     1232337.90749   1038139.43849  21432418.6084   21432423.7684
  22930341.649    -9713257.74349  -7532218.86149  22930340.6284   22930346.9714
  20279577.068   -13614859.58749 -10598951.89549  20279578.6624   20279583.7074
  23357846.333    -7778837.470 9  -5872746.417 9  23357846.594    23357852.383
  23555032.599   -13858916.15649 -10785014.45849  23555036.2064   23555042.8724
  24784214.927    20866257.27149  16253552.61749  24784213.3514   24784222.1794
 96  2 18 18 55  0.0000000  0  7 19 29 31 18 28 27 14
  21230462.319   -17185352.12249 -13379206.72449  21230464.6944   21230470.4474
  21442323.712     1284394.75949   1078703.19149  21442325.1434   21442329.6934
  22915899.982    -9789132.19449  -7591341.73949  22915902.1214   22915908.9574
  20277847.044   -13623953.73249 -10606038.25249  20277848.1094   20277853.1554
  23353593.053    -7801180.567 9  -5890156.623 9  23353594.469    23353600.891
  23540291.372   -13936391.83349 -10845385.10149  23540293.2884   23540299.8274
  24804742.855    20974138.68249  16337615.91649  24804742.6824   24804751.3674
 96  2 18 18 55 30.0000000  0  7 19 29 31 18 28 27 14
  21222521.240   -17227089.51749 -13411729.37049  21222522.3014   21222527.9894
  21452301.705     1336832.50349   1119563.73549  21452303.2044   21452308.0264
  22901525.497    -9864685.12749  -7650214.11849  22901525.0914   22901531.2794
  20276207.450   -13632569.37649 -10612751.75849  20276209.0584   20276213.9944
  23349438.437    -7823011.493 9  -5907167.728 9  23349440.328    23349446.166
  23525558.360   -14013816.81149 -10905716.23049  23525559.5974   23525566.3004
  24825260.308    21081959.92349  16421632.31249  24825261.1604   24825269.7764
 96  2 18 18 56  0.0000000  0  6 19 29 31 18 28 27
  21214621.886   -17268600.35449 -13444075.47749  21214623.1704   21214628.6244
  21462359.428     1389687.37349   1160749.32049  21462361.7154   21462366.5614
  22887213.472    -9939889.95549  -7708815.23749  22887213.7464   22887220.2154
  20274661.347   -13640694.63749 -10619083.14149  20274662.4344   20274667.2264
  23345385.995    -7844308.974 9  -5923763.172 9  23345387.554    23345393.464
  23510836.071   -14091181.15949 -10966000.12249  23510838.3034   23510843.4114
 96  2 18 18 56 30.0000000  0  6 19 29 31 18 28 27
  21206759.447   -17309910.10049 -13476264.88549  21206762.1554   21206767.8824
  21472494.928     1442944.91949   1202248.68449  21472495.9914   21472500.9564
  22872963.749   -10014759.03549  -7767154.72449  22872967.0474   22872973.1424
  20273202.921   -13648357.89649 -10625054.52549  20273204.3284   20273209.4144
  23341430.210    -7865097.808 9  -5939962.248 9  23341431.470    23341437.174
  23496121.732   -14168511.71949 -11026257.68649  23496122.4564   23496128.7864
 96  2 18 18 57  0.0000000  0  6 19 29 31 18 28 27
  21198936.628   -17351023.97249 -13508301.66149  21198938.3044   21198944.0564
  21482707.524     1496617.66249   1244071.56949  21482709.8314   21482714.5014
  22858780.258   -10089288.07149  -7825229.25749  22858784.4944   22858790.7314
  20271832.497   -13655559.72349 -10630666.34649  20271833.9224   20271838.5174
  23337571.910    -7885373.027 9  -5955761.105 9  23337573.437    23337579.299
  23481412.852   -14245804.23349 -11086485.59649  23481414.7314   23481420.9224
 96  2 18 18 57 30.0000000  0  6 19 29 31 18 28 27
  21191151.778   -17391938.08749 -13540182.78949  21191152.5064   21191158.2944
  21493003.238     1550718.16649   1286227.78149  21493004.5394   21493009.6554
  22844664.275   -10163471.17949  -7883034.23449  22844667.9454   22844672.8174
  20270551.516   -13662292.52449 -10635912.69749  20270552.8724   20270557.5964
  23333815.031    -7905120.174 9  -5971148.457 9  23333815.564    23333821.184
  23466718.641   -14323025.08149 -11146657.65449  23466719.3684   23466726.4394
 96  2 18 18 58  0.0000000  0  6 19 29 31 18 28 27
  21183402.544   -17432660.40049 -13571914.46249  21183403.4894   21183409.0714
  21503376.003     1605230.05349   1328704.54649  21503377.9694   21503383.1994
  22830615.693   -10237315.87849  -7940575.53249  22830615.7674   22830621.4774
  20269359.827   -13668557.75149 -10640794.69749  20269360.7004   20269365.3164
  23330156.926    -7924342.431 9  -5986126.815 9  23330157.550    23330163.466
  23452042.105   -14400143.57149 -11206749.94149  23452043.7584   23452051.2864
 96  2 18 18 58 30.0000000  0  6 19 29 31 18 28 27
  21175689.489   -17473179.75149 -13603487.98149  21175692.8754   21175698.5404
  21513826.128     1660142.93249   1371493.77549  21513827.7844   21513832.7974
  22816626.724   -10310821.51149  -7997852.59049  22816627.2204   22816634.3004
  20268257.958   -13674345.11549 -10645304.33949  20268259.4594   20268264.0694
  23326600.229    -7943037.821 9  -6000694.622 9  23326600.233    23326605.460
  23437388.863   -14477153.59149 -11266757.73349  23437389.6634   23437396.5984
 96  2 18 18 59  0.0000000  0  6 19 29 31 18 28 27
  21168017.034   -17513507.25749 -13634912.01149  21168018.7904   21168024.4194
  21524347.356     1715432.97049   1414576.89649  21524349.2114   21524354.4724
  22802701.860   -10383990.31049  -8054867.19049  22802703.8084   22802709.9874
  20267245.853   -13679662.34349 -10649447.64349  20267247.2004   20267251.7174
  23323140.820    -7961211.438 9  -6014855.845 9  23323141.735    23323147.776
  23422753.125   -14554056.78149 -11326682.25049  23422755.5004   23422761.6874
 96  2 18 18 59 30.0000000  0  6 19 29 31 18 28 27
  21160383.453   -17553624.19749 -13666171.96649  21160384.8564   21160390.5144
  21534940.178     1771099.68549   1457953.52249  21534942.3924   21534947.2754
  22788846.324   -10456795.28249  -8111598.29349  22788849.6714   22788857.1894
  20266328.076   -13684485.52749 -10653205.97749  20266329.2344   20266334.0584
  23319783.133    -7978849.214 9  -6028599.534 9  23319785.169    23319791.167
  23408143.669   -14630835.72449 -11386509.96549  23408144.9864   23408151.3254
 96  2 18 19  0  0.0000000  0  6 19 29 31 18 28 27
  21152790.114   -17593530.29149 -13697267.62449  21152791.2194   21152796.2724
  21545604.023     1827139.62649   1501620.97749  21545606.0824   21545611.0204
  22775067.870   -10529222.40449  -8168034.97849  22775066.7054   22775073.4724
  20265506.478   -13688803.45249 -10656570.60449  20265507.6424   20265512.4354
  23316529.670    -7995951.912 9  -6041926.276 9  23316530.709    23316536.541
  23393552.400   -14707510.36749 -11446256.40849  23393554.0504   23393560.2904
 96  2 18 19  0 30.0000000  0  6 19 29 31 18 28 27
  21145236.095   -17633222.66849 -13728196.75049  21145237.9474   21145243.3754
  21556339.302     1883550.87049   1545577.76549  21556341.1524   21556345.9334
  22761356.252   -10601263.18149  -8224170.59349  22761358.7874   22761364.4854
  20264781.301   -13692616.12749 -10659541.52249  20264782.1774   20264787.0094
  23313376.944    -8012517.653 9  -6054834.617 9  23313377.916    23313384.033
  23378979.859   -14784093.23249 -11505931.33849  23378980.9074   23378987.1374
 96  2 18 19  1  0.0000000  0  6 19 29 31 18 28 27
  21137727.390   -17672688.39249 -13758949.25549  21137727.7034   21137733.2754
  21567147.837     1940351.93249   1589838.30349  21567149.8744   21567155.3134
  22747725.197   -10672904.82349  -8279995.20949  22747725.4234   22747731.8374
  20264153.038   -13695918.85249 -10662115.08149  20264153.8824   20264158.5984
  23310330.380    -8028526.880 9  -6067309.314 9  23310331.611    23310337.916
  23364426.669   -14860573.37849 -11565526.21849  23364427.8024   23364433.3074
 96  2 18 19  1 30.0000000  0  7 19 29  2 31 18 28 27
  21130256.594   -17711935.96549 -13789531.78349  21130258.8294   21130264.6934
  21578028.393     1997534.62049   1634396.20049  21578030.8244   21578036.7474
  25144993.181    -3822782.06059  -2960389.16159  25144993.8984   25145003.5614
  22734164.260   -10744156.45049  -8335515.92549  22734166.2394   22734173.2874
  20263618.368   -13698725.46649 -10664302.05949  20263619.6954   20263624.7904
  23307387.579    -8043991.490 9  -6079359.626 9  23307389.119    23307394.700
  23349888.215   -14936974.16549 -11625059.26349  23349888.6444   23349894.8524
 96  2 18 19  2  0.0000000  0  7 19 29  2 31 18 28 27
  21122828.870   -17750977.42449 -13819953.69349  21122829.4164   21122835.4004
  21588984.583     2055101.81649   1679253.72249  21588985.9214   21588991.1974
  25125955.907    -3922805.58049  -3038329.43649  25125959.2554   25125967.6724
  22720675.672   -10815036.69349  -8390747.24549  22720678.4894   22720685.3664
  20263174.608   -13701057.43949 -10666119.18449  20263175.9774   20263180.7904
  23304548.282    -8058919.854 9  -6090992.106 9  23304548.304    23304554.006
  23335358.114   -15013310.81949 -11684542.34849  23335362.2134   23335368.3174
 96  2 18 19  2 30.0000000  0  7 19 29  2 31 18 28 27
  21115441.595   -17789799.25149 -13850204.46649  21115442.3414   21115447.8404
  21600016.798     2113079.12349   1724430.81549  21600018.8534   21600024.1354
  25106955.531    -4022666.17949  -3116142.76749  25106956.0244   25106966.2484
  22707263.038   -10885527.85449  -8445675.38549  22707264.8004   22707270.8814
  20262822.588   -13702904.84349 -10667558.72349  20262824.2254   20262829.3844
  23301812.803    -8073291.872 9  -6102191.056 9  23301813.486    23301819.067
  23320848.947   -15089571.74949 -11743966.42549  23320849.8974   23320856.8004
 96  2 18 19  3  0.0000000  0  7 19 29  2 31 18 28 27
  21108092.824   -17828412.82449 -13880292.96249  21108094.3564   21108099.9904
  21611128.940     2171474.76849   1769933.87749  21611130.7514   21611136.3244
  25087976.898    -4122399.30649  -3193856.83749  25087977.7994   25087987.7544
  22693925.464   -10955621.58049  -8500293.84549  22693926.5444   22693932.0944
  20262565.029   -13704260.89249 -10668615.38849  20262566.3914   20262571.4844
  23299181.255    -8087108.004 9  -6112956.841 9  23299184.124    23299189.665
  23306349.068   -15165766.67949 -11803339.06449  23306350.7534   23306357.0394
 96  2 18 19  3 30.0000000  0  7 19 29  2 31 18 28 27
  21100783.707   -17866823.67449 -13910223.48949  21100784.7084   21100790.4784
  21622321.963     2230294.09849   1815767.08349  21622323.9384   21622329.3734
  25069017.953    -4222022.90649  -3271485.57849  25069020.1324   25069030.5034
  22680667.257   -11025296.01549  -8554585.58349  22680667.6894   22680673.8674
  20262403.505   -13705108.01849 -10669275.48949  20262405.0934   20262410.1634
  23296662.336    -8100360.169 9  -6123283.186 9  23296662.422    23296668.177
  23291866.947   -15241878.97249 -11862647.33649  23291867.2184   23291873.8124
 96  2 18 19  4  0.0000000  0  7 19 29  2 31 18 28 27
  21093509.830   -17905045.43849 -13940006.68149  21093511.3434   21093516.7694
  21633594.203     2289527.89749   1861923.25749  21633595.6944   21633600.9524
  25050080.650    -4321547.07149  -3349036.87049  25050081.8084   25050089.6754
  22667486.213   -11094562.04549  -8608559.07749  22667486.6634   22667493.1234
  20262338.263   -13705450.38449 -10669542.27049  20262339.9164   20262344.8194
  23294245.640    -8113052.652 9  -6133173.407 9  23294247.107    23294252.517
  23277400.578   -15317896.15549 -11921881.47949  23277401.8034   23277408.6094
 96  2 18 19  4 30.0000000  0  7 19 29  2 31 18 28 27
  21086273.087   -17943075.95549 -13969640.84449  21086274.5604   21086279.9624
  21644941.074     2349156.66549   1908387.20449  21644942.4884   21644947.8064
  25031158.351    -4420972.92449  -3426511.59549  25031161.7564   25031170.4834
  22654384.342   -11163406.63749  -8662204.18249  22654385.4634   22654392.4894
  20262372.073   -13705272.13449 -10669403.37649  20262373.7704   20262378.8354
  23291938.667    -8125179.884 9  -6142623.188 9  23291939.082    23291945.066
  23262956.756   -15393805.66749 -11981031.71549  23262956.2534   23262962.7034
 96  2 18 19  5  0.0000000  0  7 19 29  2 31 18 28 27
  21079074.667   -17980905.80649 -13999118.65149  21079075.7254   21079081.1524
  21656362.026     2409173.10249   1955153.21249  21656363.6164   21656368.8344
  25012260.268    -4520293.02249  -3503903.91149  25012261.2614   25012271.0524
  22641362.840   -11231837.39349  -8715526.82849  22641363.5034   22641369.6194
  20262506.360   -13704568.82549 -10668855.34649  20262507.6154   20262512.4464
  23289738.334    -8136740.569 9  -6151631.486 9  23289739.523    23289744.980
  23248533.961   -15469588.62949 -12040083.36049  23248535.0394   23248541.3964
 96  2 18 19  5 30.0000000  0  7 19 29  2 31 18 28 27
  21071915.111   -18018526.77349 -14028433.68149  21071916.7834   21071922.3884
  21667854.727     2469567.72149   2002213.92249  21667856.5764   21667861.7074
  24993386.171    -4619479.62349  -3581192.21149  24993387.2214   24993396.1364
  22628416.568   -11299869.58349  -8768538.87549  22628418.0844   22628424.4464
  20262739.688   -13703341.67149 -10667899.12749  20262741.4244   20262746.1504
  23287645.380    -8147734.376 9  -6160198.073 9  23287646.919    23287653.245
  23234137.141   -15545239.66349 -12099032.19949  23234140.0004   23234145.7794
 96  2 18 19  6  0.0000000  0  7 19 29  2 31 18 28 27
  21064797.773   -18055927.89649 -14057577.41649  21064799.5244   21064805.1494
  21679416.853     2530329.55049   2049560.77249  21679418.9054   21679424.2134
  24974538.498    -4718523.14749  -3658369.02149  24974540.6084   24974549.7804
  22615545.374   -11367509.87349  -8821245.57649  22615546.8274   22615552.2444
  20263071.267   -13701600.78149 -10666542.59849  20263072.7864   20263077.6674
  23285660.222    -8158171.079 9  -6168330.549 9  23285661.027    23285666.939
  23219765.511   -15620768.79449 -12157886.06249  23219767.0154   23219772.6864
 96  2 18 19  6 30.0000000  0  7 19 29  2 31 18 28 27
  21057726.811   -18093089.15449 -14086534.24349  21057727.9334   21057733.8184
  21691050.748     2591464.55049   2097198.39449  21691052.4644   21691057.7504
  24955722.491    -4817419.23649  -3735430.95649  24955720.4444   24955729.1404
  22602751.787   -11434742.00149  -8873634.21349  22602752.9784   22602759.0884
  20263503.415   -13699329.25049 -10664772.57649  20263504.6784   20263509.7524
  23283780.321    -8168043.480 9  -6176023.300 9  23283782.616    23283788.043
  23205412.553   -15696192.00849 -12216657.38649  23205414.3044   23205419.5524
 96  2 18 19  7  0.0000000  0  7 19 29  2 31 18 28 27
  21050700.498   -18130016.72949 -14115308.98149  21050700.7684   21050706.7874
  21702760.256     2652999.90549   2145147.99349  21702762.2984   21702767.7104
  24936929.355    -4916161.96649  -3812373.37849  24936929.9684   24936939.2344
  22590036.088   -11501560.81149  -8925700.79449  22590037.7284   22590043.6244
  20264035.959   -13696533.29349 -10662593.91649  20264037.0354   20264042.1144
  23282009.094    -8177352.984 9  -6183277.445 9  23282010.879    23282017.198
  23191077.205   -15771520.00149 -12275354.48349  23191079.3164   23191085.4774
 96  2 18 19  7 30.0000000  0  7 19 29  2 31 18 28 27
  21043717.490   -18166706.19849 -14143898.17749  21043718.8674   21043724.7704
  21714548.436     2714948.26649   2193419.41149  21714550.8374   21714555.9634
  24918171.300    -5014735.08449  -3889183.54149  24918172.7474   24918180.1694
  22577406.396   -11567928.76849  -8977416.05549  22577408.0364   22577413.8614
  20264669.267   -13693199.80849 -10659996.40249  20264671.0764   20264676.1154
  23280350.093    -8186089.047 9  -6190084.737 9  23280348.505    23280354.238
  23176763.739   -15846741.33649 -12333968.49149  23176765.6364   23176771.0274
 96  2 18 19  8  0.0000000  0  7 19 29  2 31 18 28 27
  21036781.570   -18203156.10949 -14172300.70049  21036782.7044   21036788.4314
  21726416.766     2777310.90849   2242013.64049  21726418.0364   21726423.5384
  24899442.747    -5113142.15249  -3965864.24549  24899445.9864   24899455.3474
  22564869.523   -11633819.75149  -9028759.64049  22564869.2944   22564875.5114
  20265408.228   -13689321.39949 -10656974.27349  20265409.3474   20265414.3204
  23278795.453    -8194244.161 9  -6196439.346 9  23278796.805    23278802.766
  23162472.373   -15921849.74249 -12392494.48949  23162472.9804   23162478.7234
 96  2 18 19  8 30.0000000  0  7 19 29  2 31 18 28 27
  21029885.432   -18239398.30149 -14200541.36949  21029886.3184   21029891.9074
  21738361.387     2840081.98549   2290926.13549  21738362.9794   21738368.6534
  24880743.659    -5211408.21749  -4042435.02549  24880747.0994   24880755.3714
  22552415.227   -11699254.66349  -9079747.84649  22552416.9694   22552423.4424
  20266244.658   -13684921.14449 -10653545.51049  20266246.3494   20266251.2654
  23277351.369    -8201836.209 9  -6202355.218 9  23277352.097    23277357.874
  23148196.993   -15996870.62049 -12450952.28349  23148196.5954   23148203.2324
 96  2 18 19  9  0.0000000  0  7 19 29  2 31 18 28 27
  21023026.388   -18275441.23649 -14228626.76249  21023027.7424   21023033.2604
  21750384.418     2903266.67149   2340160.92349  21750386.5104   21750392.1254
  24862075.719    -5309520.13549  -4118885.66349  24862076.9624   24862085.6034
  22540051.046   -11764228.95749  -9130377.13649  22540053.3074   22540059.8624
  20267179.645   -13680008.47849 -10649717.46849  20267181.3804   20267186.2244
  23276014.414    -8208860.723 9  -6207828.849 9  23276015.190    23276020.833
  23133940.025   -16071776.39749 -12509320.38449  23133943.2944   23133948.4824
 96  2 18 19  9 30.0000000  0  7 19 29  2 31 18 28 27
  21016209.558   -18311259.46849 -14256537.06549  21016211.5384   21016217.3574
  21762485.963     2966858.52249   2389712.98349  21762487.6404   21762493.1304
  24843438.943    -5407464.02749  -4195205.31449  24843437.5494   24843447.3034
  22527777.251   -11828729.67149  -9180637.40749  22527779.1604   22527784.5844
  20268215.347   -13674569.39749 -10645479.23049  20268216.8144   20268221.4264
  23274788.203    -8215302.208 9  -6212848.168 9  23274789.755    23274795.048
  23119713.479   -16146546.03349 -12567582.39849  23119714.2264   23119720.0924
 96  2 18 19 10  0.0000000  0  7 19 29  2 31 18 28 27
  21009429.119   -18346886.18149 -14284298.13749  21009431.7164   21009437.6274
  21774658.982     3030827.91449   2439559.22449  21774660.7434   21774666.4934
  24824825.739    -5505275.85949  -4271422.05849  24824825.2744   24824834.3014
  22515583.827   -11892813.45949  -9230572.78749  22515584.2454   22515590.8494
  20269343.399   -13668637.64749 -10640857.09349  20269345.1154   20269350.1444
  23273665.949    -8221194.978 9  -6217439.927 9  23273668.090    23273673.582
  23105499.631   -16221231.93449 -12625779.16349  23105501.7984   23105508.4904
 96  2 18 19 10 30.0000000  0  7 19 29  2 31 18 28 27
  21002694.288   -18382286.77549 -14311883.01349  21002695.3534   21002701.5014
  21786911.371     3095213.91449   2489730.09549  21786912.8144   21786918.6754
  24806243.280    -5602925.70149  -4347512.57049  24806241.9164   24806252.0654
  22503468.502   -11956466.16049  -9280172.26549  22503471.7154   22503478.0444
  20270572.611   -13662182.18249 -10635826.86449  20270573.5674   20270578.8924
  23272655.915    -8226507.462 9  -6221579.506 9  23272657.004    23272663.056
  23091311.870   -16295800.84449 -12683884.77549  23091312.2794   23091318.4954
 96  2 18 19 11  0.0000000  0  7 19 29  2 31 18 28 27
  20995999.562   -18417472.07449 -14339300.12849  20996000.0064   20996005.6664
  21799236.047     3159982.90749   2540199.40449  21799238.1624   21799243.9484
  24787689.531    -5700417.83149  -4423480.18949  24787690.8944   24787699.6294
  22491437.070   -12019695.52849  -9329441.85049  22491439.1804   22491445.8514
  20271898.976   -13655208.38049 -10630392.74649  20271900.4834   20271905.4764
  23271754.417    -8231248.290 9  -6225273.650 9  23271754.881    23271760.521
  23077142.870   -16370252.92649 -12741899.36549  23077144.0694   23077150.6114
 96  2 18 19 11 30.0000000  0  7 19 29  2 31 18 28 27
  20989344.368   -18452438.67249 -14366546.82149  20989346.3574   20989351.7184
  21811631.473     3225117.71549   2590953.75749  21811632.8724   21811638.9284
  24769164.258    -5797762.51249  -4499332.92549  24769167.1934   24769175.8554
  22479487.005   -12082497.88349  -9378378.71249  22479488.2704   22479494.2524
  20273324.097   -13647723.79349 -10624560.61349  20273325.0764   20273330.1474
  23270958.254    -8235425.408 9  -6228528.539 9  23270959.706    23270965.862
  23062989.523   -16444627.25949 -12799853.36049  23062991.4044   23062997.7374
 96  2 18 19 12  0.0000000  0  7 19 29  2 31 18 28 27
  20982734.936   -18487170.18449 -14393610.33549  20982737.0334   20982742.4774
  21824096.862     3290631.87549   2642003.70849  21824099.8504   21824105.6954
  24750673.560    -5894942.97449  -4575057.71649  24750674.0144   24750682.7544
  22467620.937   -12144856.58749  -9426969.86949  22467622.2254   22467628.2854
  20274846.169   -13639722.21649 -10618325.63249  20274847.7394   20274852.9554
  23270273.742    -8239028.724 9  -6231336.308 9  23270274.308    23270279.958
  23048851.909   -16518921.40749 -12857744.89149  23048853.7204   23048859.8044
 96  2 18 19 12 30.0000000  0  7 19 29  2 31 18 28 27
  20976172.422   -18521661.44549 -14420486.63849  20976173.4824   20976178.9354
  21836632.199     3356498.83149   2693328.57349  21836633.6894   21836639.3594
  24732210.555    -5991964.65649  -4650658.81049  24732210.6624   24732218.3754
  22455841.307   -12206757.92849  -9475204.62849  22455841.9834   22455848.5484
  20276463.285   -13631226.31549 -10611705.45949  20276464.3604   20276469.6864
  23269692.267    -8242067.316 9  -6233704.043 9  23269695.840    23269701.635
  23034729.792   -16593132.89949 -12915572.00549  23034731.8414   23034738.6884
 96  2 18 19 13  0.0000000  0  7 19 29  2 31 18 28 27
  20969661.285   -18555874.13749 -14447145.87349  20969662.5694   20969668.6524
  21849238.243     3422740.10649   2744945.10949  21849239.1174   21849244.5234
  24713782.773    -6088796.26649  -4726111.81449  24713782.9624   24713791.4814
  22444159.153   -12268147.05049  -9523040.26449  22444160.3944   22444167.7654
  20278177.917   -13622215.81049 -10604684.30249  20278179.2574   20278184.1974
  23269229.368    -8244515.673 9  -6235611.843 9  23269230.033    23269235.817
  23020627.104   -16667243.46449 -12973320.48449  23020629.5494   23020635.2684
 96  2 18 19 13 30.0000000  0  7 19 29  2 31 18 28 27
  20963201.242   -18589824.32649 -14473600.56149  20963202.3194   20963208.1344
  21861912.254     3489347.79849   2796847.16949  21861914.1034   21861919.3154
  24695387.968    -6185465.40449  -4801438.24849  24695387.6764   24695396.9714
  22432566.954   -12329054.42749  -9570500.50449  22432570.2494   22432575.7354
  20279984.380   -13612720.05549 -10597285.02949  20279985.8154   20279991.3164
  23268871.411    -8246402.007 9  -6237081.713 9  23268871.198    23268876.839
  23006538.502   -16741281.73649 -13031012.63549  23006540.3814   23006546.1564
 96  2 18 19 14  0.0000000  0  8 19 29  2 31 18 16 28 27
  20956786.694   -18623530.79649 -14499865.34249  20956788.3514   20956793.7994
  21874656.796     3556324.13849   2849036.48449  21874659.2634   21874665.4844
  24677020.487    -6281979.71249  -4876643.99749  24677023.4784   24677031.8984
  22421065.792   -12389503.32849  -9617603.48949  22421067.1574   22421073.4274
  20281885.888   -13602732.00649 -10589502.14749  20281886.8284   20281891.6384
  24906874.820    -3778481.88059  -2928885.10959  24906874.7934   24906881.4224
  23268617.373    -8247730.155 9  -6238116.629 9  23268618.393    23268624.409
  22992468.501   -16815219.84349 -13088626.73249  22992469.7634   22992475.9334
 96  2 18 19 14 30.0000000  0  8 19 29  2 31 18 16 28 27
  20950412.865   -18657028.17649 -14525967.19949  20950414.1004   20950419.9924
  21887472.004     3623667.82049   2901512.03349  21887474.5564   21887480.1044
  24658680.989    -6378354.38949  -4951740.97749  24658681.7694   24658690.3514
  22409648.366   -12449506.16349  -9664358.90449  22409648.3594   22409654.5974
  20283880.577   -13592246.61449 -10581331.72449  20283881.7984   20283887.1944
  24892570.543    -3853640.90849  -2987450.57349  24892572.0134   24892578.7584
  23268469.357    -8248507.212 9  -6238722.133 9  23268470.496    23268476.120
  22978418.061   -16889052.36149 -13146158.54949  22978419.9914   22978426.5944
 96  2 18 19 15  0.0000000  0  8 19 29  2 31 18 16 28 27
  20944074.194   -18690330.18549 -14551916.81949  20944076.7404   20944082.5994
  21900363.003     3691405.89049   2954294.91649  21900364.8644   21900370.2054
  24640369.987    -6474581.30249  -5026722.86249  24640371.0954   24640378.9924
  22398314.608   -12509060.46249  -9710764.79949  22398316.5054   22398321.9814
  20285975.371   -13581236.07049 -10572752.09249  20285977.1904   20285982.3304
  24878347.374    -3928389.15749  -3045695.97049  24878347.0314   24878356.0174
  23268427.715    -8248720.528 9  -6238888.340 9  23268429.574    23268435.501
  22964394.817   -16962764.60049 -13203596.65049  22964392.9724   22964398.9464
 96  2 18 19 15 30.0000000  0  8 19 29  2 31 18 16 28 27
  20937767.390   -18723474.16349 -14577743.29949  20937769.2124   20937775.4624
  21913326.573     3759528.72049   3007377.60349  21913328.2944   21913333.4244
  24622084.798    -6570670.34849  -5101597.34549  24622087.0694   24622094.8104
  22387062.911   -12568191.90849  -9756841.20549  22387063.3384   22387069.5234
  20288171.143   -13569697.83149 -10563761.26649  20288172.6134   20288177.9524
  24864198.576    -4002741.16149  -3103632.55749  24864200.3614   24864206.4964
  23268491.726    -8248380.733 9  -6238623.575 9  23268494.657    23268500.375
  22950381.865   -17036365.71449 -13260948.14149  22950387.2534   22950393.2284
 96  2 18 19 16  0.0000000  0  8 19 29  2 31 18 16 28 27
  20931488.023   -18756479.45149 -14603461.71449  20931488.7414   20931494.6714
  21926361.680     3828029.52349   3060754.81249  21926363.8194   21926369.2184
  24603824.134    -6666624.99049  -5176367.09549  24603825.4854   24603833.3994
  22375895.347   -12626883.33349  -9802574.74149  22375895.1074   22375901.2884
  20290467.488   -13557628.57449 -10554356.66649  20290469.6244   20290474.5004
  24850125.077    -4076700.22649  -3161263.01049  24850125.7424   24850132.7354
  23268663.595    -8247487.348 9  -6237927.415 9  23268665.028    23268670.294
  22936397.065   -17109871.38749 -13318225.26249  22936399.6464   22936405.5594
 96  2 18 19 16 30.0000000  0  8 19 29  2 31 18 16 28 27
  20925234.287   -18789338.51149 -14629066.18149  20925236.1004   20925241.8604
  21939470.861     3896913.10849   3114430.28649  21939471.8864   21939477.1874
  24585590.856    -6762437.33449  -5251026.01449  24585592.6854   24585600.9964
  22364812.972   -12685105.78949  -9847942.84049  22364815.2864   22364821.9894
  20292863.109   -13545042.52649 -10544549.36649  20292864.4224   20292869.8244
  24836128.469    -4150257.76549  -3218580.57649  24836127.7334   24836135.4344
  23268937.650    -8246038.674 9  -6236798.579 9  23268940.198    23268945.975
  22922426.533   -17183300.83849 -13375442.98849  22922427.1284   22922432.8294
 96  2 18 19 17  0.0000000  0  8 19 29  2 31 18 16 28 27
  20919016.763   -18822015.64849 -14654528.88949  20919017.5484   20919023.5334
  21952651.293     3966179.17749   3168403.80649  21952652.5674   21952658.0574
  24567390.876    -6858089.23349  -5325559.91649  24567392.3504   24567400.1754
  22353826.417   -12742847.86249  -9892936.63849  22353827.5704   22353833.7994
  20295355.358   -13531945.81949 -10534344.15949  20295357.0804   20295362.1864
  24822207.622    -4223409.08749  -3275581.62249  24822208.1924   24822215.0674
  23269322.471    -8244028.235 9  -6235232.008 9  23269323.251    23269328.815
  22908466.008   -17256657.96249 -13432604.35249  22908467.1114   22908472.6904
 96  2 18 19 17 30.0000000  0  8 19 29  2 31 18 16 28 27
  20912833.956   -18854502.89649 -14679843.62449  20912835.7124   20912841.5944
  21965902.351     4035809.71249   3222661.32249  21965903.2844   21965908.5124
  24549220.442    -6953574.76449  -5399964.18249  24549221.8444   24549229.6414
  22342927.875   -12800112.14649  -9937558.12849  22342931.0184   22342936.5804
  20297941.100   -13518357.62249 -10523755.96549  20297942.7894   20297947.8884
  24808361.258    -4296159.51249  -3332270.25449  24808363.4954   24808370.5374
  23269810.551    -8241463.085 9  -6233233.188 9  23269810.897    23269817.007
  22894514.526   -17329966.74049 -13489728.04949  22894516.6254   22894523.0214
 96  2 18 19 18  0.0000000  0  8 19 29  2 31 18 16 28 27
  20906691.951   -18886779.11949 -14704993.93349  20906693.8594   20906699.4854
  21979219.198     4105794.04149   3277194.52149  21979221.0824   21979226.7264
  24531083.853    -7048886.31149  -5474232.89149  24531083.7144   24531092.2044
  22332127.510   -12856894.19749  -9981803.85249  22332125.9244   22332131.8064
  20300617.090   -13504293.78449 -10512797.14749  20300619.0474   20300623.8074
  24794598.007    -4368493.11749  -3388634.11949  24794599.0604   24794605.5254
  23270403.877    -8238341.960 9  -6230801.144 9  23270404.867    23270410.744
  22880577.160   -17403211.67049 -13546801.99849  22880578.6784   22880584.7404
 96  2 18 19 18 30.0000000  0  8 19 29  2 31 18 16 28 27
  20900594.911   -18918819.04949 -14729960.11649  20900596.6934   20900602.4654
  21992601.177     4176121.29249   3331994.92149  21992603.1764   21992609.5184
  24512980.892    -7144012.97549  -5548357.55549  24512981.8894   24512990.3534
  22321407.150   -12913205.04749 -10025682.40649  22321409.4744   22321415.5044
  20303385.869   -13489746.77849 -10501461.83049  20303386.9864   20303391.9504
  24780914.283    -4440399.53749  -3444665.09949  24780915.5704   24780922.9314
  23271104.443    -8234659.670 9  -6227931.838 9  23271105.773    23271111.242
  22866657.480   -17476366.66349 -13603805.86349  22866657.5784   22866664.0424
 96  2 18 19 19  0.0000000  0  8 19 29  2 31 18 16 28 27
  20894543.870   -18950621.86749 -14754741.53549  20894544.8484   20894550.9334
  22006046.914     4246779.83949   3387053.48249  22006049.2624   22006054.9774
  24494914.091    -7238957.64849  -5622340.41149  24494914.6434   24494922.5314
  22310781.131   -12969061.65849 -10069207.01649  22310780.4724   22310786.7394
  20306250.407   -13474694.05349 -10489732.45049  20306251.6054   20306256.4034
  24767309.884    -4511886.83649  -3500369.50049  24767311.2904   24767319.4334
  23271910.853    -8230417.679 9  -6224626.384 9  23271912.841    23271918.473
  22852752.229   -17549427.61949 -13660736.45549  22852754.7524   22852760.9304
 96  2 18 19 19 30.0000000  0  8 19 29  2 31 18 16 28 27
  20888530.613   -18982221.84149 -14779364.89349  20888531.8194   20888537.4374
  22019553.816     4317758.07749   3442361.15549  22019555.8824   22019561.3454
  24476875.154    -7333746.69849  -5696201.99749  24476876.0824   24476885.1874
  22300234.335   -13024464.38849 -10112377.94649  22300237.5924   22300242.8654
  20309210.620   -13459134.13049 -10477607.85249  20309212.4904   20309217.5364
  24753784.570    -4582961.31349  -3555752.17149  24753787.1304   24753794.1514
  23272822.982    -8225624.228 9  -6220891.234 9  23272824.902    23272831.046
  22838868.227   -17622393.63649 -13717593.06449  22838869.3744   22838876.2394
 96  2 18 19 20  0.0000000  0  8 19 29  2 31 18 16 28 27
  20882560.182   -19013594.80749 -14803811.35949  20882561.4634   20882567.1424
  22033130.514     4389100.16649   3497952.33449  22033131.8754   22033138.2764
  24458870.598    -7428358.52749  -5769925.49649  24458872.0924   24458881.0404
  22289787.225   -13079370.61049 -10155161.98649  22289790.0254   22289795.7484
  20312277.834   -13443019.07949 -10465050.68349  20312278.9644   20312284.4554
  24740345.871    -4653595.47349  -3610791.77449  24740344.4294   24740353.4404
  23273847.821    -8220241.192 9  -6216696.661 9  23273849.613    23273854.985
  22825014.358   -17695207.06549 -13774330.78049  22825013.5614   22825020.6204
 96  2 18 19 20 30.0000000  0  8 19 29  2 31 18 16 28 27
  20876628.619   -19044760.66749 -14828096.43849  20876630.7504   20876636.3704
  22046776.247     4460807.19849   3553827.88549  22046777.6294   22046783.5154
  24440895.463    -7522822.63649  -5843533.88449  24440896.6074   24440905.5874
  22279433.061   -13133780.54449 -10197559.30449  22279435.2454   22279441.2654
  20315449.069   -13426352.16549 -10452063.49849  20315450.7794   20315456.1264
  24726982.743    -4723812.77149  -3665506.53849  24726984.0944   24726991.4024
  23274982.069    -8214282.456 9  -6212053.491 9  23274983.298    23274989.219
  22811180.174   -17767891.43349 -13830967.92449  22811181.5834   22811188.6044
 96  2 18 19 21  0.0000000  0  8 19 29  2 31 18 16 28 27
  20870731.314   -19075755.94249 -14852248.59849  20870732.6654   20870737.9994
  22060488.221     4532866.74949   3609978.13549  22060490.5944   22060495.8134
  24422942.357    -7617167.21349  -5917049.14549  24422942.9174   24422952.7654
  22269175.933   -13187700.31449 -10239574.67449  22269174.8694   22269181.2354
  20318718.060   -13409174.69549 -10438678.47449  20318719.2284   20318724.5584
  24713700.559    -4793628.26749  -3719908.22649  24713698.9094   24713706.3264
  23276223.113    -8207773.221 9  -6206981.362 9  23276222.190    23276227.635
  22797364.939   -17840484.93849 -13887534.27449  22797367.9564   22797374.5824
 96  2 18 19 21 30.0000000  0  8 19 29  2 31 18 16 28 27
  20864866.322   -19106581.95649 -14876268.86749  20864866.7514   20864872.3674
  22074267.413     4605279.20349   3666403.37649  22074269.1714   22074275.6214
  24405014.233    -7711385.95449  -5990466.36149  24405014.0814   24405022.2514
  22259008.366   -13241113.72849 -10281195.49449  22259010.6714   22259016.2944
  20322079.917   -13391505.88949 -10424910.59349  20322081.9874   20322086.8604
  24700492.059    -4863016.81149  -3773977.19549  24700493.8324   24700502.5284
  23277564.863    -8200708.219 9  -6201476.175 9  23277566.301    23277572.244
  22783571.247   -17912984.33449 -13944027.29749  22783571.7504   22783578.7054
 96  2 18 19 22  0.0000000  0  8 19 29  2 31 18 16 28 27
  20859038.632   -19137202.65549 -14900129.15249  20859039.8144   20859045.5114
  22088115.375     4678050.29349   3723108.05649  22088117.6234   22088123.2074
  24387112.008    -7805454.08949  -6063766.19649  24387114.4984   24387122.7294
  22248944.248   -13294016.18649 -10322418.16449  22248943.7284   22248949.3524
  20325537.849   -13373338.42949 -10410754.14849  20325539.0184   20325544.0794
  24687372.413    -4931969.65649  -3827706.67149  24687372.8814   24687380.7674
  23279017.441    -8193079.157 9  -6195531.453 9  23279018.270    23279023.876
  22769793.428   -17985393.49949 -14000450.00549  22769793.1694   22769799.4174
 96  2 18 19 22 30.0000000  0  8 19 29  2 31 18 16 28 27
  20853256.553   -19167589.27949 -14923807.04149  20853257.5804   20853263.0874
  22102030.799     4751176.69949   3780089.60849  22102033.2214   22102038.9134
  24369245.250    -7899352.59749  -6136933.85549  24369245.5174   24369253.0164
  22238970.977   -13346407.20249 -10363242.30249  22238974.0904   22238979.7554
  20329090.762   -13354663.33449 -10396202.14549  20329092.3554   20329097.8554
  24674339.443    -5000461.70849  -3881077.09949  24674340.0534   24674347.5564
  23280577.655    -8184877.036 9  -6189140.203 9  23280578.922    23280584.688
  22756026.138   -18057715.69549 -14056804.93349  22756030.3134   22756037.4434
 96  2 18 19 23  0.0000000  0  8 19 29  2 31 18 16 28 27
  20847516.026   -19197750.79849 -14947309.51949  20847517.6544   20847523.5314
  22116011.851     4824642.35049   3837335.51649  22116013.7224   22116018.7764
  24351411.976    -7993068.95149  -6209959.57149  24351412.9484   24351419.8664
  22229097.632   -13398306.06649 -10403682.96549  22229098.4574   22229104.2574
  20332741.488   -13335481.41249 -10381255.20849  20332742.7584   20332747.9214
  24661393.255    -5068490.60349  -3934086.59849  24661395.1524   24661401.3504
  23282245.318    -8176108.255 9  -6182307.394 9  23282247.645    23282253.438
  22742282.027   -18129959.28249 -14113098.62749  22742283.3294   22742288.9584
 96  2 18 19 23 30.0000000  0  8 19 29  2 31 18 16 28 27
  20841819.552   -19227687.49149 -14970636.81349  20841821.0964   20841826.6744
  22130056.037     4898444.51549   3894843.63749  22130057.5124   22130063.0724
  24333612.850    -8086605.14549  -6282844.88249  24333613.8784   24333620.9174
  22219311.421   -13449727.78749 -10443751.80949  22219312.7384   22219318.0434
  20336492.361   -13315769.49349 -10365895.28649  20336493.5774   20336499.3004
  24648532.049    -5136071.93249  -3986747.42049  24648533.2424   24648540.5304
  23284022.315    -8166778.135 9  -6175037.179 9  23284023.132    23284029.055
  22728550.491   -18202118.82849 -14169326.82649  22728551.4944   22728557.7024
 96  2 18 19 24  0.0000000  0  8 19 29  2 31 18 16 28 27
  20836167.344   -19257391.60849 -14993782.87549  20836168.7154   20836173.9994
  22144165.725     4972592.83449   3952621.49549  22144167.6174   22144173.1744
  24315847.629    -8179963.76549  -6355591.80549  24315847.9774   24315856.0484
  22209615.511   -13500676.94849 -10483452.42749  22209617.7244   22209623.4934
  20340345.265   -13295521.92549 -10350117.97049  20340347.0224   20340351.9674
  24635752.967    -5203236.16149  -4039083.17449  24635753.5344   24635759.7194
  23285904.626    -8156889.281 9  -6167331.578 9  23285904.885    23285910.797
  22714835.215   -18274188.85449 -14225485.25849  22714837.4634   22714843.1454
 96  2 18 19 24 30.0000000  0  8 19 29  2 31 18 16 28 27
  20830560.384   -19286856.39849 -15016742.45549  20830561.4204   20830567.0614
  22158347.769     5047122.83449   4010696.76449  22158350.3044   22158355.9734
  24298119.275    -8273126.49149  -6428186.09349  24298120.1024   24298126.8534
  22200016.929   -13551119.26049 -10522758.11449  22200018.6374   22200024.2684
  20344305.177   -13274716.45449 -10333905.92649  20344306.2504   20344311.6254
  24623054.791    -5269962.32649  -4091077.59049  24623056.0954   24623063.1184
  23287896.330    -8146416.349 9  -6159170.853 9  23287897.842    23287903.625
  22701143.642   -18346135.63549 -14281547.65749  22701145.9354   22701152.1964
 96  2 18 19 25  0.0000000  0  8 19 29  2 31 18 16 28 27
  20824994.080   -19316108.57949 -15039536.36449  20824994.7524   20825000.6324
  22172601.541     5122024.49849   4069061.63849  22172603.2764   22172608.9754
  24280425.163    -8366102.13349  -6500634.58649  24280427.1954   24280433.5054
  22190515.508   -13601047.28449 -10561663.04649  22190517.8284   22190523.5364
  20348364.500   -13253382.80449 -10317282.31949  20348365.8224   20348371.1694
  24610435.903    -5336269.82049  -4142745.74549  24610436.7004   24610442.7614
  23289998.323    -8135373.713 9  -6150566.197 9  23289998.922    23290005.220
  22687474.785   -18417969.36549 -14337521.96849  22687476.1664   22687482.3124
 96  2 18 19 25 30.0000000  0  8 19 29  2 31 18 16 28 27
  20819470.764   -19345133.39549 -15062153.10749  20819471.5314   20819477.2644
  22186926.459     5197300.96349   4127718.57349  22186927.7874   22186933.1774
  24262769.885    -8458884.02149  -6572932.09849  24262770.8714   24262778.0824
  22181121.158   -13650427.01149 -10600140.74049  22181120.6334   22181126.2514
  20352522.921   -13231531.23249 -10300255.13249  20352524.1344   20352529.1254
  24597899.261    -5402147.05949  -4194078.66649  24597901.4904   24597906.6664
  23292207.995    -8123751.394 9  -6141509.855 9  23292210.863    23292216.804
  22673826.113   -18489682.53649 -14393402.33749  22673829.4914   22673835.6674
 96  2 18 19 26  0.0000000  0  8 19 29  2 31 18 16 28 27
  20813985.329   -19373954.44049 -15084611.06449  20813987.3594   20813993.3494
  22201320.324     5272938.03349   4186656.48949  22201321.4594   22201327.1744
  24245150.203    -8551474.46549  -6645080.40749  24245151.7324   24245158.9844
  22171828.559   -13699254.49049 -10638188.09549  22171828.9154   22171835.0474
  20356775.220   -13209185.51849 -10282842.89449  20356776.4554   20356781.7954
  24585450.093    -5467577.13449  -4245063.15149  24585449.9774   24585456.6794
  23294530.594    -8111555.357 9  -6132006.458 9  23294531.524    23294537.452
  22660202.963   -18561287.83749 -14449198.66749  22660203.2954   22660209.6344
 96  2 18 19 26 30.0000000  0  8 19 29  2 31 18 16 28 27
  20808539.612   -19402578.80249 -15106915.76849  20808540.2674   20808546.0024
  22215779.332     5348930.60149   4245871.41249  22215781.7664   22215788.1034
  24227572.209    -8643853.34749  -6717063.86149  24227572.7814   24227579.9804
  22162643.941   -13747523.56649 -10675800.34149  22162644.3104   22162649.6654
  20361123.103   -13186331.97349 -10265034.95249  20361125.2054   20361130.6594
  24573089.984    -5532520.78549  -4295668.57749  24573092.1574   24573098.4424
  23296960.628    -8098781.583 9  -6122052.885 9  23296962.466    23296968.185
  22646596.942   -18632782.14749 -14504908.49649  22646598.9744   22646605.2894
 96  2 18 19 27  0.0000000  0  8 19 29  2 31 18 16 28 27
  20803128.104   -19431013.46449 -15129072.64449  20803129.5294   20803135.2904
  22230304.246     5425259.53749   4305348.45949  22230307.6174   22230312.6394
  24210033.172    -8736019.05049  -6788881.18649  24210033.3084   24210040.6714
  22153560.834   -13795256.08949 -10712994.48249  22153560.4104   22153566.7444
  20365570.047   -13162970.77649 -10246831.42249  20365570.9874   20365576.0084
  24560823.549    -5596980.70149  -4345897.08549  24560825.3544   24560833.2824
  23299500.418    -8085439.078 9  -6111656.139 9  23299501.575    23299507.051
  22633013.410   -18704173.72349 -14560538.28249  22633013.4094   22633019.5694
 96  2 18 19 27 30.0000000  0  8 19 29  2 31 18 16 28 27
  20797753.139   -19459257.00149 -15151080.59449  20797754.8904   20797760.6854
  22244894.763     5501928.80649   4365090.70249  22244896.6404   22244902.7344
  24192531.754    -8827982.15849  -6860540.65849  24192534.0414   24192541.0934
  22144571.576   -13842480.86449 -10749792.97549  22144573.8904   22144579.9154
  20370115.231   -13139077.11249 -10228213.00249  20370117.4694   20370122.8834
  24548651.188    -5660955.30149  -4395747.40949  24548650.9994   24548658.5194
  23302147.215    -8071528.743 9  -6100816.936 9  23302148.490    23302154.381
  22619445.807   -18775459.17849 -14616085.35949  22619448.5974   22619454.0934
 96  2 18 19 28  0.0000000  0  8 19 29  2 31 18 16 28 27
  20792418.615   -19487287.54149 -15172922.56849  20792420.6804   20792426.5954
  22259553.885     5578964.04449   4425118.10449  22259555.8134   22259561.6914
  24175076.520    -8919713.33049  -6932019.43149  24175078.3874   24175084.5834
  22135684.151   -13889202.05349 -10786199.06249  22135683.0574   22135688.8474
  20374771.864   -13114616.03149 -10209152.42549  20374772.7284   20374777.4694
  24536571.346    -5724431.60849  -4445209.46749  24536572.9074   24536581.4464
  23304906.232    -8057031.110 9  -6089520.088 9  23304907.307    23304913.210
  22605908.424   -18846613.54749 -14671530.30549  22605908.6534   22605913.6604
 96  2 18 19 28 30.0000000  0  8 19 29  2 31 18 16 28 27
  20787127.253   -19515096.81549 -15194592.13149  20787128.6224   20787134.5054
  22274280.168     5656345.61249   4485415.38349  22274281.3474   22274287.3544
  24157660.634    -9011236.93549  -7003336.44849  24157661.4654   24157669.1504
  22126885.090   -13935437.08949 -10822226.32249  22126884.7974   22126890.4414
  20379529.140   -13089606.80849 -10189664.73649  20379531.2774   20379536.5194
  24524578.323    -5787459.77449  -4494322.33449  24524579.8844   24524585.4324
  23307773.728    -8041965.683 9  -6077780.821 9  23307774.167    23307779.717
  22592386.265   -18917657.78449 -14726889.42049  22592388.8464   22592394.7984
 96  2 18 19 29  0.0000000  0  8 19 29  2 31 18 16 28 27
  20781883.407   -19542653.71849 -15216065.03749  20781884.8754   20781890.4584
  22289073.173     5734090.52049   4545995.78349  22289075.7184   22289081.6974
  24140282.946    -9102558.95849  -7074496.40349  24140283.6114   24140290.3314
  22118182.873   -13981160.71649 -10857855.08649  22118184.0374   22118189.8704
  20384393.970   -13064052.30249 -10169752.14349  20384394.6474   20384399.7894
  24512668.234    -5850040.28949  -4543086.36049  24512670.3124   24512678.5574
  23310751.244    -8026318.808 9  -6065588.462 9  23310751.532    23310757.348
  22578890.691   -18988584.64349 -14782157.08849  22578892.1894   22578897.6914
 96  2 18 19 29 30.0000000  0  8 19 29  2 31 18 16 28 27
  20776686.778   -19569960.87949 -15237343.33849  20776688.4684   20776694.4274
  22303937.215     5812197.58849   4606858.38349  22303939.2344   22303945.0014
  24122938.978    -9193691.72949  -7145508.88949  24122940.7494   24122948.6404
  22109583.731   -14026351.13349 -10893068.36249  22109584.6224   22109591.0154
  20389355.129   -13037972.15149 -10149429.96349  20389357.0184   20389362.3724
  24500845.740    -5912173.04649  -4591501.51749  24500846.6334   24500854.3864
  23313837.692    -8010095.378 9  -6052946.848 9  23313839.043    23313844.525
  22565413.565   -19059406.88049 -14837343.22849  22565414.6154   22565421.1634
 96  2 18 19 30  0.0000000  0  8 19 29  2 31 18 16 28 27
  20771537.204   -19597020.23649 -15258428.54649  20771539.4854   20771545.0904
  22318867.027     5890650.53249   4667990.50749  22318868.1464   22318874.5874
  24105632.268    -9284643.21649  -7216380.10949  24105633.8444   24105640.9834
  22101090.762   -14070982.82549 -10927846.27249  22101091.1854   22101097.0954
  20394416.003   -13011384.75449 -10128712.52449  20394417.0124   20394422.4944
  24489105.758    -5973861.39449  -4639570.38749  24489108.3524   24489115.2254
  23317033.138    -7993301.450 9  -6039860.685 9  23317034.817    23317040.392
  22551955.099   -19130133.78449 -14892455.08549  22551955.6614   22551962.3164
 96  2 18 19 30 30.0000000  0  8 19 29  2 31 18 16 28 27
  20766436.856   -19623827.92749 -15279317.65749  20766438.0784   20766443.6664
  22333862.314     5969453.51649   4729395.37749  22333863.9614   22333870.0584
  24088356.762    -9375428.22149  -7287121.60449  24088358.5114   24088365.4774
  22092704.686   -14115040.99849 -10962177.28049  22092707.1254   22092712.8984
  20399571.602   -12984283.90049 -10107595.00149  20399573.7494   20399578.6394
  24477455.020    -6035086.67149  -4687278.37249  24477457.2764   24477465.1244
  23320338.944    -7975932.891 9  -6026326.736 9  23320339.832    23320345.635
  22538513.434   -19200761.47049 -14947489.64049  22538515.6524   22538522.4544
 96  2 18 19 31  0.0000000  0  8 19 29  2 31 18 16 28 27
  20761379.840   -19650399.44449 -15300022.73249  20761381.7634   20761387.1304
  22348921.997     6048597.94649   4791066.29249  22348924.5074   22348930.6294
  24071111.994    -9466043.55149  -7357730.88949  24071113.5204   24071121.3574
  22084433.926   -14158524.13949 -10996060.22049  22084432.8934   22084438.8064
  20404829.345   -12956660.60149 -10086070.36549  20404830.6154   20404835.6984
  24465897.798    -6095822.74649  -4734605.19749  24465899.0214   24465904.9544
  23323753.979    -7957987.395 9  -6012343.246 9  23323754.824    23323760.390
  22525094.231   -19271289.19449 -15002446.30049  22525094.9474   22525101.2214
 96  2 18 19 31 30.0000000  0  8 19 29  2 31 18 16 28 27
  20756365.157   -19676750.19549 -15320555.78449  20756367.0904   20756372.8544
  22364048.739     6128084.12349   4853003.53649  22364050.5344   22364056.7274
  24053904.052    -9556471.43349  -7428194.11749  24053906.9054   24053913.4594
  22076265.682   -14201424.44349 -11029489.00249  22076268.9634   22076275.1994
  20410189.289   -12928491.23549 -10064120.23949  20410191.0684   20410196.4104
  24454434.141    -6156056.43349  -4781540.51549  24454436.2234   24454444.3324
  23327281.045    -7939456.908 9  -5997903.918 9  23327280.921    23327286.858
  22511694.463   -19341699.58549 -15057311.53049  22511696.1494   22511703.1064
 96  2 18 19 32  0.0000000  0  8 19 29  2 31 18 16 28 27
  20751389.597   -19702897.78649 -15340930.52549  20751391.4174   20751397.1284
  22379235.330     6207888.79349   4915188.94649  22379236.9374   22379243.3354
  24036730.308    -9646720.23549  -7498517.80849  24036732.5464   24036740.1844
  22068209.884   -14243775.29449 -11062489.63949  22068209.9204   22068216.5424
  20415652.033   -12899787.95149 -10041754.05649  20415653.0574   20415658.0334
  24443063.748    -6215806.29949  -4828098.86349  24443066.0724   24443073.2894
  23330913.673    -7920358.459 9  -5983022.027 9  23330915.537    23330921.008
  22498317.777   -19412003.84449 -15112094.05749  22498317.9294   22498323.8194
 96  2 18 19 32 30.0000000  0  8 19 29  2 31 18 16 28 27
  20746452.020   -19728845.57749 -15361149.58449  20746453.8074   20746459.6954
  22394484.339     6288018.16349   4977627.35249  22394485.1594   22394491.0114
  24019595.039    -9736771.66349  -7568687.68649  24019595.3664   24019603.4354
  22060258.320   -14285577.76949 -11095062.96849  22060255.0994   22060261.6014
  20421213.231   -12870557.49149 -10018977.09949  20421215.2134   20421220.7594
  24431786.319    -6275070.55349  -4874278.80349  24431789.0964   24431796.8914
  23334656.314    -7900691.540 9  -5967697.154 9  23334657.811    23334663.333
  22484956.763   -19482199.07849 -15166791.62949  22484960.3384   22484966.0074
 96  2 18 19 33  0.0000000  0  8 19 29  2 31 18 16 28 27
  20741552.060   -19754594.55949 -15381213.72649  20741554.0524   20741559.7924
  22409790.467     6368462.07549   5040310.86049  22409792.9174   22409798.8324
  24002498.631    -9826614.54249  -7638695.07149  24002498.8644   24002507.3344
  22052406.802   -14326823.89649 -11127202.78649  22052406.6414   22052412.3804
  20426872.796   -12840821.64049  -9995806.32349  20426874.0684   20426879.1594
  24420600.701    -6333860.69649  -4920089.29349  24420602.3334   24420609.2644
  23338507.374    -7880460.634 9  -5951932.809 9  23338507.503    23338513.189
  22471620.063   -19552291.67249 -15221409.22049  22471622.1284   22471627.4614
 96  2 18 19 33 30.0000000  0  8 19 29  2 31 18 16 28 27
  20736693.187   -19780130.66349 -15401111.98949  20736694.6114   20736700.4314
  22425160.768     6449231.81349   5103248.26649  22425163.1404   22425169.2084
  23985442.793    -9916238.86349  -7708532.14349  23985444.1654   23985451.1804
  22044663.034   -14367515.41049 -11158910.43849  22044663.2764   22044668.5714
  20432624.258   -12810590.30049  -9972249.46149  20432626.4364   20432632.1094
  24409505.623    -6392167.68449  -4965523.30449  24409506.9394   24409514.0364
  23342465.284    -7859664.571 9  -5935728.076 9  23342464.974    23342470.709
  22458303.403   -19622273.02349 -15275940.12649  22458304.8794   22458310.3804
 96  2 18 19 34  0.0000000  0  8 19 29  2 31 18 16 28 27
  20731881.177   -19805419.43349 -15420817.52649  20731882.3594   20731888.0194
  22440597.629     6530347.90449   5166455.54649  22440599.0344   22440605.1564
  23968433.374   -10005622.58749  -7778181.74149  23968434.3934   23968442.5134
  22037025.491   -14407644.41649 -11190179.76949  22037026.8844   22037032.4464
  20438474.072   -12779856.26249  -9948300.87549  20438475.3984   20438480.6644
  24398503.928    -6449978.28249  -5010570.51549  24398505.4534   24398511.8824
  23346529.425    -7838288.030 9  -5919071.020 9  23346532.488    23346538.625
  22445012.037   -19692133.04349 -15330376.49449  22445011.3064   22445016.9014
 96  2 18 19 34 30.0000000  0  8 19 29  2 31 18 16 28 27
  20727111.567   -19830476.63349 -15440342.61649  20727114.0314   20727119.6884
  22456095.727     6611798.03849   5229923.11849  22456098.5894   22456104.6224
  23951466.795   -10094783.64449  -7847657.81249  23951468.1404   23951475.6494
  22029493.579   -14447220.90849 -11221018.56549  22029495.2774   22029501.2594
  20444415.575   -12748626.74549  -9923966.20849  20444417.4824   20444423.3854
  24387595.686    -6507308.72349  -5055243.59649  24387595.8424   24387603.5054
  23350707.478    -7816346.893 9  -5901974.049 9  23350707.842    23350713.836
  22431734.717   -19761888.67549 -15384731.50749  22431736.9804   22431742.8264
 96  2 18 19 35  0.0000000  0  8 19 29  2 31 18 16 28 27
  20722392.128   -19855282.62649 -15459671.96449  20722393.6644   20722399.1334
  22471662.063     6693600.73749   5293665.40949  22471664.7104   22471671.5094
  23934545.588   -10183709.94249  -7916950.97449  23934545.7814   23934552.8084
  22022070.882   -14486231.08549 -11251416.07349  22022072.0954   22022078.0844
  20450459.787   -12716869.79349  -9899220.54949  20450461.1334   20450466.0304
  24376785.522    -6564125.82249  -5099516.66149  24376784.2934   24376791.3794
  23354993.538    -7793820.615 9  -5884421.112 9  23354994.865    23355000.330
  22418483.588   -19831520.08449 -15438989.71949  22418486.1644   22418492.3884
 96  2 18 19 35 30.0000000  0  8 19 29  2 31 18 16 28 27
  20717710.241   -19879885.32549 -15478842.90149  20717711.9804   20717717.4234
  22487291.448     6775730.06049   5357662.23349  22487294.0884   22487300.4304
  23917662.025   -10272428.46749  -7986082.23049  23917663.4744   23917670.3374
  22014748.357   -14524705.27049 -11281395.93549  22014750.5204   22014756.6634
  20456600.393   -12684595.96149  -9874072.13049  20456602.0934   20456608.3794
  24366062.439    -6620461.50149  -5143414.56949  24366064.1934   24366071.0464
  23359386.262    -7770737.345 9  -5866434.135 9  23359386.976    23359392.615
  22405255.295   -19901042.96949 -15493163.38049  22405256.8014   22405262.4014
 96  2 18 19 36  0.0000000  0  8 19 29  2 31 18 16 28 27
  20713072.106   -19904258.29249 -15497834.82549  20713073.9404   20713079.5434
  22502988.685     6858215.47049   5421936.50549  22502990.5344   22502996.1014
  23900824.871   -10360908.43149  -8055027.60349  23900826.1464   23900833.0624
  22007540.433   -14562600.58649 -11310924.74049  22007539.1314   22007545.3024
  20462849.339   -12651763.71949  -9848488.58949  20462850.5894   20462855.0364
  24355434.219    -6676300.58349  -5186925.54549  24355438.1834   24355446.8854
  23363889.392    -7747065.156 9  -5847988.274 9  23363891.681    23363897.791
  22392052.304   -19970425.87649 -15547227.95649  22392053.8394   22392059.1404
 96  2 18 19 36 30.0000000  0  7 19 29 31 18 16 28 27
  20708471.922   -19928437.20249 -15516675.53449  20708472.8114   20708478.4594
  22518743.567     6941006.60249   5486449.01349  22518744.9464   22518751.2824
  22000429.508   -14599947.93249 -11340026.55249  22000432.8504   22000438.4344
  20469194.643   -12618413.16449  -9822501.15749  20469196.4694   20469202.1134
  24344900.284    -6731672.49949  -5230072.48749  24344900.3664   24344907.9774
  23368499.822    -7722846.234 9  -5829116.390 9  23368500.705    23368506.592
  22378869.512   -20039702.72649 -15601209.89349  22378870.5374   22378876.5374
 96  2 18 19 37  0.0000000  0  8 19 29  2 31 18 16 28 27
  20703913.417   -19952386.34349 -15535337.20549  20703915.4064   20703921.0484
  22534559.901     7024123.22249   5551215.13549  22534561.4134   22534567.4924
  23867269.400     -101711.42119    -60071.76859                  23867273.7494
  21993435.804   -14636710.99849 -11368673.07949  21993436.9034   21993442.4404
  20475642.989   -12584530.40149  -9796099.03149  20475644.4434   20475649.5684
  24334457.143    -6786547.98249  -5272832.58549  24334457.8844   24334466.4764
  23373218.670    -7698051.990 9  -5809796.215 9  23373218.830    23373224.682
  22365713.923   -20108837.18949 -15655080.89049  22365715.0964   22365721.1154
 96  2 18 19 37 30.0000000  0  8 19 29  2 31 18 16 28 27
  20699399.356   -19976109.22049 -15553822.56249  20699400.9844   20699406.6904
  22550434.991     7107552.87049   5616225.16849  22550437.6534   22550444.3474
  23850547.920     -189564.05259   -128528.32649  23850548.9804   23850556.7424
  21986549.180   -14672901.93649 -11396873.79949  21986550.0494   21986555.7834
  20482190.364   -12550129.10949  -9769292.84049  20482190.5084   20482195.5154
  24324104.424    -6840944.32949  -5315219.36649  24324107.1754   24324115.5154
  23378042.284    -7672694.491 9  -5790037.129 9  23378043.961    23378049.871
  22352581.648   -20177836.95849 -15708846.91249  22352584.3444   22352590.5764
 96  2 18 19 38  0.0000000  0  8 19 29  2 31 18 16 28 27
  20694935.051   -19999567.44849 -15572101.70649  20694937.3144   20694942.9314
  22566373.580     7191304.40349   5681486.04249  22566375.3504   22566381.5184
  23833874.515     -277187.63549   -196806.40549  23833874.7274   23833882.5354
  21979771.475   -14708511.01949 -11424621.11949  21979773.8294   21979779.8784
  20488835.684   -12515197.10949  -9742073.12649  20488837.8554   20488843.4644
  24313853.471    -6894828.29349  -5357206.86149  24313854.1014   24313861.5004
  23382975.926    -7646761.297 9  -5769829.453 9  23382978.986    23382984.477
  22339478.805   -20246697.76549 -15762504.66649  22339480.3274   22339486.6334
 96  2 18 19 38 30.0000000  0  8 19 29  2 31 18 16 28 27
  20690520.665   -20022768.86949 -15590180.73849  20690522.2394   20690528.0744
  22582371.218     7275372.28249   5746993.40349  22582372.7234   22582378.7764
  23817244.300     -364587.92159   -264910.49459  23817243.2774   23817251.1064
  21973105.120   -14743543.37749 -11451919.04949  21973107.2604   21973113.3634
  20495583.158   -12479746.64749  -9714449.41049  20495584.3384   20495589.1184
  24303697.224    -6948181.18649  -5398780.54349  24303700.5554   24303708.8994
  23388022.562    -7620257.507 9  -5749177.162 9  23388022.616    23388028.685
  22326401.206   -20315423.76649 -15816057.37549  22326402.4024   22326408.1764
 96  2 18 19 39  0.0000000  0  8 19 29  2 31 18 16 28 27
  20686148.560   -20045739.32949 -15608079.79949  20686150.9884   20686156.6334
  22598427.890     7359749.35649   5812741.71749  22598429.1564   22598435.7384
  23800652.217     -451771.29349   -332845.58649  23800652.0754   23800659.6894
  21966546.138   -14778014.24749 -11478779.46249  21966547.8354   21966553.7234
  20502425.599   -12443782.43349  -9686425.36249  20502427.4554   20502433.1094
  24293642.361    -7001019.98549  -5439953.63249  24293644.9364   24293652.9304
  23393169.435    -7593197.971 9  -5728091.823 9  23393172.120    23393177.706
  22313341.975   -20384040.89949 -15869525.24349  22313345.3194   22313350.8124
 96  2 18 19 39 30.0000000  0  8 19 29  2 31 18 16 28 27
  20681826.549   -20068455.26049 -15625780.52449  20681828.1054   20681834.0784
  22614548.061     7444465.75549   5878754.41649  22614550.3224   22614556.5224
  23784108.153     -538708.75449   -400589.05249  23784109.1064   23784116.5554
  21960097.690   -14811902.69249 -11505186.03049  21960099.0274   21960104.5644
  20509375.206   -12407265.91649  -9657970.95649  20509376.8134   20509382.0494
  24283694.109    -7053314.50549  -5480702.60449  24283694.1994   24283701.6634
  23398429.713    -7565561.751 9  -5706557.112 9  23398430.869    23398436.476
  22300308.670   -20452538.12049 -15922899.68749  22300310.6524   22300316.4474
 96  2 18 19 40  0.0000000  0  8 19 29  2 31 18 16 28 27
  20677550.715   -20090920.21649 -15643285.68849  20677553.1864   20677559.0074
  22630736.017     7529526.48849   5945035.45449  22630736.6994   22630744.2964
  23767609.941     -625409.47649   -468148.04449  23767610.2284   23767618.3414
  21953763.191   -14845193.55549 -11531126.95549  21953763.4794   21953769.2984
  20516429.410   -12370195.03249  -9629084.57149  20516431.0674   20516436.3654
  24273843.594    -7105060.23249  -5521023.95649  24273846.6804   24273854.5804
  23403798.738    -7537348.438 9  -5684572.736 9  23403799.669    23403805.542
  22287294.686   -20520924.75549 -15976187.95449  22287297.0504   22287302.8924
 96  2 18 19 40 30.0000000  0  8 19 29  2 31 18 16 28 27
  20673322.887   -20113143.94049 -15660602.87249  20673324.3414   20673329.9724
  22646986.544     7614935.18849   6011587.61349  22646989.8674   22646996.7954
  23751153.114     -711884.33349   -535531.03749  23751154.1094   23751162.2744
  21947542.209   -14877880.81649 -11556597.53049  21947543.1784   21947549.0544
  20523587.824   -12332576.37249  -9599771.35149  20523589.5104   20523595.0974
  24264098.419    -7156284.93649  -5560939.30049  24264100.1654   24264106.8224
  23409274.394    -7508563.391 9  -5662142.840 9  23409277.142    23409282.757
  22274300.115   -20589209.61549 -16029396.92449  22274303.2404   22274308.9224
 96  2 18 19 41  0.0000000  0  8 19 29  2 31 18 16 28 27
  20669138.592   -20135131.45649 -15677736.00249  20669140.2304   20669145.7664
  22663306.353     7700683.39049   6078404.34349  22663307.1264   22663313.6734
  23734740.226     -798132.26949   -602737.22149  23734741.8604   23734750.0144
  21941437.094   -14909969.27549 -11581601.49949  21941436.9854   21941443.0574
  20530851.540   -12294407.57149  -9570029.44449  20530853.0744   20530858.4384
  24254445.406    -7207016.34849  -5600470.24549  24254445.8154   24254453.9044
  23414862.583    -7479213.865 9  -5639273.103 9  23414862.466    23414868.496
  22261324.018   -20657394.98049 -16082528.37149  22261327.5554   22261333.2784
 96  2 18 19 41 30.0000000  0  8 19 29  2 31 18 16 28 27
  20664996.020   -20156901.34449 -15694699.54949  20664997.8414   20665003.0874
  22679685.159     7786761.84349   6145478.40349  22679687.2694   22679694.6734
  23718369.491     -884165.43849   -669776.04049  23718370.1724   23718378.2274
  21935448.065   -14941458.58449 -11606138.60649  21935445.0394   21935450.7854
  20538215.889   -12255709.10349  -9539874.81149  20538217.2034   20538222.4344
  24244882.991    -7257265.07049  -5639625.09249  24244884.3474   24244891.5024
  23420553.109    -7449302.902 9  -5615965.868 9  23420554.435    23420559.784
  22248373.184   -20725457.95149 -16135564.44049  22248375.4784   22248381.8454
 96  2 18 19 42  0.0000000  0  8 19 29  2 31 18 16 28 27
  20660896.424   -20178445.35249 -15711487.08949  20660897.9534   20660903.6214
  22696131.466     7873177.84049   6212815.47749  22696132.0084   22696138.7614
  23702040.557     -969969.85749   -736636.60349  23702042.8124   23702049.9744
  21929566.115   -14972331.62249 -11630195.51249  21929570.4734   21929575.2534
  20545679.474   -12216485.51049  -9509310.99749  20545681.2294   20545686.3384
  24235416.634    -7307020.52549  -5678395.56449  24235417.0244   24235423.4444
  23426354.066    -7418819.953 9  -5592212.922 9  23426355.046    23426360.784
  22235448.122   -20793371.66349 -16188484.20949  22235451.8724   22235458.2294
 96  2 18 19 42 30.0000000  0  8 19 29  2 31 18 16 28 27
  20656837.077   -20199778.01349 -15728109.94349  20656838.2864   20656844.1654
  22712631.968     7959893.33649   6280385.91849  22712633.7954   22712640.1464
  23685754.348    -1055551.95749   -803323.92749  23685756.0164   23685764.0884
  21923804.378   -15002618.83849 -11653795.91949  21923807.5374   21923812.5034
  20553238.219   -12176764.98249  -9478359.95449  20553240.1094   20553245.1284
  24226033.454    -7356308.13949  -5716801.47949  24226036.9134   24226044.9114
  23432259.079    -7387787.587 9  -5568031.873 9  23432259.824    23432265.685
  22222552.792   -20861143.48149 -16241293.41749  22222555.5164   22222561.4674
 96  2 18 19 43  0.0000000  0  8 19 29  2 31 18 16 28 27
  20652818.721   -20220889.37249 -15744560.35649  20652820.9374   20652826.6364
  22729189.482     8046909.75249   6348190.84249  22729191.9374   22729198.9424
  23669518.202    -1140883.03949   -869815.64549  23669517.7844   23669526.1734
  21918152.589   -15032312.37849 -11676933.70549  21918156.0764   21918162.4794
  20560891.644   -12136547.20749  -9447021.44849  20560893.1374   20560898.3664
  24216750.664    -7405097.12249  -5754818.86249  24216752.0334   24216760.9584
  23438271.943    -7356189.933 9  -5543410.354 9  23438272.985    23438278.782
  22209690.519   -20928741.49649 -16293967.18549  22209691.7874   22209697.6864
 96  2 18 19 43 30.0000000  0  8 19 29  2 31 18 16 28 27
  20648851.552   -20241741.34349 -15760808.64649  20648853.0524   20648858.6074
  22745808.647     8134243.36249   6416242.94749  22745811.2874   22745817.9044
  23653330.682    -1225947.19749   -936099.36349  23653330.5964   23653339.6204
  21912622.909   -15061390.75249 -11699592.16249  21912623.0764   21912627.6214
  20568641.405   -12095821.17749  -9415286.89949  20568642.9164   20568648.0004
  24207567.109    -7453356.58749  -5792423.63449  24207568.7344   24207576.7104
  23444394.567    -7324007.632 9  -5518333.251 9  23444396.935    23444403.098
  22196860.636   -20996158.15649 -16346499.63649  22196863.1444   22196869.0174
 96  2 18 19 44  0.0000000  0  8 19 29  2 31 18 16 28 27
  20644933.561   -20262328.90049 -15776850.90149  20644935.3654   20644940.7744
  22762484.571     8221867.03949   6484521.05649  22762485.7384   22762491.5424
  23637187.955    -1310767.97049  -1002193.40349  23637189.8414   23637198.5254
  21907199.037   -15089882.63549 -11721793.61049  21907200.8124   21907206.2974
  20576486.204   -12054598.96249  -9383165.70549  20576487.5274   20576492.7374
  24198479.618    -7501109.86549  -5829633.97449  24198480.9244   24198489.9104
  23450625.483    -7291270.120 9  -5492823.524 9  23450626.765    23450632.710
  22184056.508   -21063452.85449 -16398937.05249  22184057.0054   22184062.8584
 96  2 18 19 44 30.0000000  0  8 19 29  2 31 18 16 28 27
  20641065.675   -20282654.19349 -15792688.79049  20641067.6084   20641073.1314
  22779213.404     8309783.07049   6553026.96549  22779215.4534   22779222.1904
  23621094.923    -1395342.59049  -1068095.64949  23621096.0544   23621104.2494
  21901885.499   -15117791.13549 -11743540.47849  21901889.7934   21901896.1154
  20584428.664   -12012860.01149  -9350641.87449  20584429.9464   20584435.6064
  24189491.619    -7548351.06449  -5866445.29449  24189492.5024   24189499.5044
  23456964.249    -7257965.456 9  -5466871.845 9  23456964.269    23456970.439
  22171271.407   -21130626.72949 -16451280.30949  22171274.4014   22171280.3484
 96  2 18 19 45  0.0000000  0  8 19 29  2 31 18 16 28 27
  20637243.850   -20302736.45149 -15808337.30649  20637246.0764   20637251.8254
  22796000.949     8398006.54549   6621772.45749  22796003.6834   22796009.9474
  23605045.628    -1479687.48649  -1133818.89449  23605046.0574   23605053.8654
  21896691.615   -15145107.32749 -11764825.81849  21896692.4244   21896697.4464
  20592470.968   -11970595.93849  -9317708.84649  20592472.6954   20592477.8264
  24180599.983    -7595071.21349  -5902850.59749  24180602.3824   24180609.3744
  23463410.271    -7224096.815 9  -5440480.720 9  23463409.131    23463415.521
  22158512.864   -21197688.06849 -16503535.88449  22158512.9554   22158519.0784
 96  2 18 19 45 30.0000000  0  8 19 29  2 31 18 16 28 27
  20633470.494   -20322565.48149 -15823788.50049  20633472.7534   20633478.5194
  22812851.594     8486548.53749   6690766.14749  22812852.5294   22812859.2644
  23589034.550    -1563818.26849  -1199375.29249  23589036.7524   23589044.5104
  21891609.226   -15171812.26649 -11785634.84149  21891610.1154   21891615.9504
  20600618.223   -11927781.95949  -9284347.32949  20600620.0674   20600625.4444
  24171811.406    -7641259.75449  -5938841.67249  24171811.8324   24171818.6734
  23469960.707    -7189664.338 9  -5413650.245 9  23469962.295    23469967.923
  22145770.468   -21264645.81049 -16555710.72849  22145771.5424   22145777.4924
 96  2 18 19 46  0.0000000  0  8 19 29  2 31 18 16 28 27
  20629740.229   -20342171.31649 -15839065.78349  20629742.1824   20629747.5714
  22829760.793     8575404.84349   6760004.74849  22829761.8514   22829768.5804
  23573065.026    -1647739.07949  -1264768.07949  23573066.4164   23573074.9444
  21886642.494   -15197904.52949 -11805966.45749  21886645.5754   21886650.8524
  20608869.090   -11884423.40949  -9250561.46749  20608870.8384   20608876.1904
  24163124.734    -7686913.88349  -5974416.30849  24163125.3754   24163131.6284
  23476620.905    -7154670.149 9  -5386382.052 9  23476621.295    23476627.014
  22133050.766   -21331491.09549 -16607797.94649  22133050.9234   22133057.4394
 96  2 18 19 46 30.0000000  0  8 19 29  2 31 18 16 28 27
  20626050.860   -20361563.20149 -15854176.34949  20626052.0174   20626057.4624
  22846731.348     8664594.25449   6829502.90749  22846734.3054   22846740.8364
  23557139.707    -1731432.73849  -1329983.86749  23557141.2444   23557148.2834
  21881801.565   -15223360.09349 -11825801.95149  21881800.9274   21881806.7194
  20617221.659   -11840531.50749  -9216360.01149  20617223.1914   20617228.6814
  24154539.844    -7732009.02149  -6009555.39649  24154542.8304   24154550.0994
  23483387.646    -7119102.517 9  -5358667.047 9  23483389.274    23483395.572
  22120357.783   -21398190.27149 -16659771.31449  22120358.8154   22120364.6834
 96  2 18 19 47  0.0000000  0  8 19 29  2 31 18 16 28 27
  20622403.002   -20380730.05249 -15869111.56049  20622404.5544   20622410.1964
  22863766.426     8754108.63849   6899254.29949  22863767.9364   22863774.4984
  23541257.395    -1814902.41149  -1395025.13149  23541257.6484   23541264.3304
  21877076.742   -15248174.20049 -11845137.60549  21877078.8834   21877084.3574
  20625671.517   -11796126.83349  -9181758.98949  20625672.9594   20625678.4994
  24146069.144    -7776549.66549  -6044262.39249  24146068.7114   24146075.8094
  23490263.275    -7082976.650 9  -5330517.018 9  23490264.009    23490270.005
  22107694.234   -21464739.46849 -16711627.81649  22107694.6084   22107700.4814
 96  2 18 19 47 30.0000000  0  8 19 29  2 31 18 16 28 27
  20618802.778   -20399651.88349 -15883855.84849  20618803.9034   20618809.2544
  22880856.266     8843927.98049   6969243.32549  22880859.9904   22880866.3134
  23525418.609    -1898123.91549  -1459873.02649  23525420.6244   23525427.4934
  21872480.162   -15272352.34449 -11863977.70649  21872478.4374   21872483.3884
  20634216.088   -11751222.95849  -9146768.97749  20634217.9054   20634223.2064
  24137694.339    -7820541.07749  -6078541.40149  24137695.3664   24137703.9724
  23497243.689    -7046290.091 9  -5301930.112 9  23497244.722    23497250.953
  22095059.142   -21531137.52149 -16763366.54449  22095059.4514   22095065.4524
 96  2 18 19 48  0.0000000  0  8 19 29  2 31 18 16 28 27
  20615244.301   -20418347.55549 -15898423.90349  20615246.2304   20615251.7244
  22898008.618     8934045.06749   7039464.37849  22898009.3314   22898015.4074
  23509634.419    -1981073.30249  -1524508.88949  23509635.6674   23509643.2664
  21867992.887   -15295910.21249 -11882334.47649  21867995.0884   21868000.3124
  20642852.846   -11705838.93049  -9111404.82349  20642854.1474   20642860.0224
  24129426.865    -7863991.84049  -6112399.14549  24129427.0054   24129436.3894
  23504330.937    -7009044.146 9  -5272907.316 9  23504332.987    23504338.579
  22082451.238   -21597384.60549 -16814987.63349  22082453.2484   22082459.2194
 96  2 18 19 48 30.0000000  0  8 19 29  2 31 18 16 28 27
  20611734.403   -20436793.03049 -15912797.00249  20611736.3274   20611741.5174
  22915210.963     9024457.31749   7109915.37649  22915213.7464   22915220.0234
  23493902.828    -2063741.87949  -1588925.93249  23493904.7294   23493910.9224
  21863629.906   -15318853.08449 -11900212.01949  21863629.4214   21863634.8484
  20651583.551   -11659958.52449  -9075653.88049  20651584.9224   20651590.3124
  24121261.050    -7906905.84149  -6145838.62149  24121261.4104   24121268.5284
  23511525.324    -6971237.820 9  -5243447.851 9  23511527.007    23511533.024
  22069874.467   -21663473.48749 -16866485.44749  22069877.1284   22069882.8524
 96  2 18 19 49  0.0000000  0  8 19 29  2 31 18 16 28 27
  20608269.826   -20455004.70849 -15926987.92049  20608270.6714   20608276.2144
  22932465.980     9115122.80749   7180563.74349  22932466.7524   22932474.4714
  23478222.729    -2146142.75549  -1653134.37149  23478224.0964   23478231.1844
  21859369.713   -15341212.82349 -11917635.17349  21859373.9934   21859380.0194
  20660409.096   -11613579.56549  -9039514.45049  20660410.4464   20660416.1104
  24113190.068    -7949314.43949  -6178884.27649  24113191.3254   24113198.1694
  23518823.233    -6932895.931 9  -5213571.073 9  23518823.391    23518829.360
  22057321.580   -21729436.32249 -16917885.05549  22057324.6154   22057330.5764
 96  2 18 19 49 30.0000000  0  8 19 29  2 31 18 16 28 27
  20604846.482   -20472989.53949 -15941002.07349  20604848.4354   20604853.8824
  22949766.492     9206042.42749   7251410.11349  22949769.0584   22949775.9374
  23462593.332    -2228271.90749  -1717131.08549  23462595.5654   23462603.1474
  21855229.089   -15362984.04349 -11934599.75049  21855231.3094   21855237.2464
  20669333.827   -11566682.84049  -9002971.56849  20669335.0584   20669340.8364
  24105217.944    -7991205.23649  -6211526.45649  24105219.0064   24105226.9484
  23526222.607    -6894010.696 9  -5183270.911 9  23526222.679    23526228.874
  22044792.029   -21795281.29349 -16969192.81749  22044794.7984   22044800.5404
 96  2 18 19 50  0.0000000  0  8 19 29  2 31 18 16 28 27
  20601466.963   -20490751.05849 -15954842.22049  20601468.1804   20601473.8494
  22967116.914     9297223.10349   7322459.89749  22967119.4674   22967126.8354
  23447011.746    -2310154.65549  -1780935.80749  23447013.2714   23447020.4954
  21851197.854   -15384168.47349 -11951107.08149  21851199.7354   21851205.4644
  20678355.964   -11519265.05949  -8966022.67249  20678357.8994   20678363.6964
  24097345.395    -8032583.82649  -6243769.51949  24097346.3444   24097352.8194
  23533723.989    -6854589.789 9  -5152553.343 9  23533724.700    23533730.709
  22032285.237   -21861013.80249 -17020412.94849  22032286.1334   22032292.4894
 96  2 18 19 50 30.0000000  0  8 19 29  2 31 18 16 28 27
  20598137.687   -20508243.49649 -15968472.69249  20598139.3314   20598144.9614
  22984525.021     9388698.04649   7393739.01249  22984527.0314   22984532.8194
  23431480.569    -2391766.67049  -1844529.56249  23431482.6154   23431490.6904
  21847286.411   -15404718.20349 -11967119.84449  21847289.3454   21847294.8954
  20687486.361   -11471290.00349  -8928639.52949  20687488.0104   20687493.2324
  24089572.483    -8073416.25949  -6275586.99449  24089575.4484   24089581.3054
  23541332.211    -6814601.553 9  -5121393.696 9  23541334.066    23541339.414
  22019802.911   -21926600.98249 -17071519.82849  22019805.6214   22019811.5484
 96  2 18 19 51  0.0000000  0  8 19 29  2 31 18 16 28 27
  20594860.145   -20525467.49149 -15981893.99249  20594861.7264   20594867.6244
  23001991.158     9480484.83949   7465261.10249  23001993.1554   23002000.8234
  23416003.401    -2473111.26049  -1907914.93749  23416003.5674   23416011.0564
  21843503.950   -15424611.12749 -11982620.81749  21843504.0874   21843509.8774
  20696720.212   -11422763.31349  -8890826.54449  20696721.5704   20696727.6124
  24081911.075    -8113686.53749  -6306966.42349  24081911.6734   24081919.4584
  23549052.794    -6774037.874 9  -5089785.644 9  23549052.955    23549058.770
  22007351.113   -21992042.92849 -17122513.54749  22007352.3804   22007358.0954
 96  2 18 19 51 30.0000000  0  8 19 29  2 31 18 16 28 27
  20591632.828   -20542426.80549 -15995109.04249  20591634.3964   20591640.2604
  23019518.943     9572590.24349   7537031.46149  23019520.6984   23019527.1164
  23400568.447    -2554219.34849  -1971116.01549  23400569.8014   23400576.4904
  21839843.339   -15443852.48749 -11997614.07349  21839842.5204   21839848.0164
  20706053.963   -11373711.73049  -8852604.55849  20706056.0884   20706061.5304
  24074350.571    -8153405.66849  -6337916.39949  24074354.6144   24074360.6664
  23556878.350    -6732910.750 9  -5057738.564 9  23556879.534    23556884.950
  21994923.195   -22057343.26049 -17173396.91149  21994926.0894   21994931.7614
 96  2 18 19 52  0.0000000  0  8 19 29  2 31 18 16 28 27
  20588454.716   -20559124.64549 -16008120.34549  20588457.2114   20588462.6444
  23037109.244     9665025.86249   7609059.14449  23037110.6264   23037117.2114
  23385177.438    -2635092.43149  -2034133.98749  23385179.7474   23385187.0954
  21836303.640   -15462443.94549 -12012100.91349  21836304.7364   21836310.3864
  20715486.371   -11324146.06449  -8813981.97749  20715488.0624   20715494.0674
  24066898.299    -8192578.98649  -6368441.06449  24066899.8764   24066906.6724
  23564810.652    -6691226.854 9  -5025257.623 9  23564811.607    23564817.326
  21982526.575   -22122495.65749 -17224165.00049  21982528.0314   21982533.4594
 96  2 18 19 52 30.0000000  0  8 19 29  2 31 18 16 28 27
  20585327.738   -20575561.19249 -16020928.04649  20585329.2194   20585334.9114
  23054760.587     9757787.80649   7681341.09049  23054762.1724   23054769.8974
  23369836.952    -2715718.97549  -2096959.84049  23369836.7784   23369843.9494
  21832890.364   -15480389.54749 -12026084.48349  21832890.0014   21832895.1234
  20725018.187   -11274055.02449  -8774950.02549  20725019.8814   20725025.8714
  24059549.099    -8231190.14449  -6398527.70249  24059551.2824   24059558.0774
  23572848.631    -6648985.356 9  -4992342.198 9  23572850.098    23572855.805
  21970157.081   -22187486.42549 -17274807.14049  21970160.6794   21970166.1594
 96  2 18 19 53  0.0000000  0  8 19 29  2 31 18 16 28 27
  20582250.072   -20591734.74649 -16033530.81249  20582251.5534   20582257.2424
  23072472.712     9850867.82649   7753870.87749  23072476.4394   23072482.0434
  23354539.663    -2796099.31749  -2159593.85849  23354541.1564   23354548.6924
  21829593.719   -15497703.41349 -12039575.78549  21829594.4044   21829600.3384
  20734652.515   -11223428.70849  -8735500.96449  20734653.9904   20734659.6734
  24052312.208    -8269230.63549  -6428169.65649  24052313.2004   24052320.9804
  23580991.849    -6606190.701 9  -4958995.746 9  23580993.686    23580999.458
  21957823.728   -22252309.99849 -17325318.99649  21957824.9724   21957830.4384
 96  2 18 19 53 30.0000000  0  8 19 29  2 31 18 16 28 27
  20579223.924   -20607637.73149 -16045922.75049  20579225.5434   20579231.1164
  23090246.369     9944257.61849   7826642.08449  23090247.5264   23090254.0684
  23339294.228    -2876215.61949  -2222022.13349  23339295.3524   23339302.7514
  21826416.227   -15514397.79949 -12052584.38149  21826418.4794   21826423.8644
  20744388.002   -11172265.47249  -8695633.53349  20744389.4094   20744395.9714
  24045182.366    -8306702.06849  -6457368.18349  24045183.0524   24045189.5854
  23589240.782    -6562845.529 9  -4925220.314 9  23589241.620    23589247.262
  21945518.171   -22316973.51949 -17375706.13849  21945520.0264   21945525.5714
 96  2 18 19 54  0.0000000  0  8 19 29  2 31 18 16 28 27
  20576242.626   -20623304.32349 -16058130.48249  20576244.3044   20576249.9654
  23108064.263    10037905.49049   7899614.35149  23108067.4004   23108074.2314
  23324095.559    -2956082.41649  -2284255.99049  23324097.4264   23324105.3584
  21823351.442   -15530505.66849 -12065135.94549  21823353.4994   21823358.3534
  20754221.948   -11120591.45249  -8655368.08749  20754223.2424   20754229.0154
  24038157.126    -8343624.82949  -6486139.18949  24038157.4574   24038162.0524
  23597589.252    -6518979.564 9  -4891039.062 9  23597589.481    23597594.929
  21933236.887   -22381516.01449 -17425998.97349  21933237.8284   21933243.9804
 96  2 18 19 54 30.0000000  0  8 19 29  2 31 18 16 28 27
  20573310.944   -20638707.58149 -16070133.02249  20573312.7964   20573318.7574
  23125935.026    10131808.19449   7972785.18549  23125935.8054   23125944.0504
  23308949.120    -3035682.85749  -2346282.29249  23308950.1244   23308957.4904
  21820402.271   -15546003.44449 -12077212.10749  21820403.6674   21820409.6714
  20764153.898   -11068396.37749  -8614696.61449  20764155.6014   20764161.4714
  24031236.336    -8379990.38449  -6514475.99749  24031237.4364   24031243.7314
  23606036.618    -6474580.239 9  -4856442.211 9  23606038.383    23606043.997
  21920979.877   -22445927.95149 -17476190.07749  21920980.4574   21920986.7764
 96  2 18 19 55  0.0000000  0  8 19 29  2 31 18 16 28 27
  20570426.296   -20653870.26949 -16081948.10249  20570427.6134   20570433.3714
  23143848.912    10225947.73249   8046140.57449  23143851.0614   23143857.7714
  23293846.505    -3115047.30349  -2408124.70449  23293847.4254   23293854.3864
  21817568.283   -15560892.48549 -12088813.94349  21817570.6094   21817576.2524
  20774178.450   -11015719.07149  -8573649.38749  20774179.9814   20774186.0634
  24024413.508    -8415847.73149  -6542416.79549  24024413.0354   24024419.0204
  23614582.667    -6429672.654 9  -4821449.300 9  23614583.959    23614589.687
  21908741.616   -22510239.44549 -17526302.91249  21908742.5834   21908748.9424
 96  2 18 19 55 30.0000000  0  8 19 29  2 31 18 16 28 27
  20567588.020   -20668782.21549 -16093567.80349  20567590.0204   20567595.2774
  23161810.971    10320337.49949   8119690.97349  23161813.2144   23161819.3254
  23278789.864    -3194164.51449  -2469774.47349  23278792.6244   23278799.0424
  21814855.804   -15575151.99149 -12099925.23749  21814856.7574   21814862.0504
  20784293.553   -10962563.08349  -8532229.16249  20784294.9554   20784301.2744
  24017685.792    -8451191.04649  -6569957.05549  24017688.3154   24017693.4004
  23623228.076    -6384242.376 9  -4786049.097 9  23623229.079    23623234.609
  21896522.170   -22574442.80749 -17576331.49049  21896525.2934   21896530.9274
 96  2 18 19 56  0.0000000  0  8 19 29  2 31 18 16 28 27
  20564792.570   -20683473.29949 -16105015.40249  20564794.6314   20564799.9294
  23179815.374    10414964.71949   8193426.38449  23179819.3624   23179828.6194
  23263776.347    -3273059.65049  -2531251.18649  23263778.9634   23263785.9274
  21812261.993   -15588779.02749 -12110543.69349  21812263.9174   21812269.2444
  20794496.879   -10908942.00849  -8490446.53449  20794498.8574   20794504.4584
  24011052.284    -8486046.44749  -6597117.10849  24011055.1724   24011062.5214
  23631968.960    -6338305.163 9  -4750253.887 9  23631970.663    23631976.061
  21884326.518   -22638532.68349 -17626271.63649  21884329.1674   21884335.1654
 96  2 18 19 56 30.0000000  0  8 19 29  2 31 18 16 28 27
  20562037.852   -20697948.35849 -16116294.66649  20562039.7134   20562045.1294
  23197871.870    10509841.70649   8267356.43949  23197874.4534   23197880.8974
  23248805.569    -3351735.18849  -2592556.79249  23248807.1634   23248814.2584
  21809786.569   -15601778.25849 -12120672.96949  21809789.9864   21809795.6144
  20804788.739   -10854860.74349  -8448305.30549  20804790.3974   20804796.1424
  24004510.153    -8520421.66749  -6623902.99749  24004512.7724   24004519.2964
  23640807.254    -6291861.922 9  -4714064.360 9  23640808.202    23640814.460
  21872155.554   -22702492.86449 -17676110.72149  21872158.0384   21872163.4754
 96  2 18 19 57  0.0000000  0  8 19 29  2 31 18 16 28 27
  20559323.049   -20712220.28049 -16127415.64549  20559324.0794   20559329.6074
  23215973.198    10604963.01349   8341476.82449  23215974.8494   23215982.2294
  23233878.458    -3430180.31049  -2653682.84749  23233879.8724   23233886.9324
  21807429.169   -15614165.07049 -12130325.02849  21807433.0144   21807438.7514
  20815167.530   -10800317.87749  -8405804.39949  20815169.5644   20815175.7064
  23998065.193    -8554297.16949  -6650299.49249  23998066.2294   23998074.6624
  23649742.449    -6244903.607 9  -4677473.474 9  23649744.233    23649750.089
  21860012.423   -22766309.82649 -17725838.21849  21860014.3804   21860019.3614
 96  2 18 19 57 30.0000000  0  8 19 29  2 31 18 16 28 27
  20556646.274   -20726280.96649 -16138372.02349  20556648.1734   20556653.9424
  23234122.904    10700336.95649   8415794.11449  23234123.8934   23234132.0084
  23219000.145    -3508367.76849  -2714608.12449  23219001.2114   23219007.8064
  21805192.081   -15625934.83949 -12139496.27549  21805193.4214   21805199.1634
  20825637.199   -10745302.31749  -8362935.15349  20825638.6664   20825644.5474
  23991724.116    -8587631.72449  -6676274.49749  23991723.9014   23991730.7964
  23658780.360    -6197417.265 9  -4640471.147 9  23658780.593    23658786.333
  21847898.384   -22829965.50949 -17775440.03249  21847900.4774   21847906.4334
 96  2 18 19 58  0.0000000  0  8 19 29  2 31 18 16 28 27
  20554012.181   -20740124.08849 -16149158.87549  20554013.7104   20554019.4414
  23252320.987    10795962.31549   8490307.27849  23252322.7754   23252328.8744
  23204172.270    -3586286.08449  -2775323.69349  23204173.7924   23204180.3374
  21803067.539   -15637086.31049 -12148185.74549  21803071.2004   21803076.9474
  20836197.633   -10689803.31149  -8319689.19749  20836199.2984   20836205.5824
  23985484.756    -8620418.93349  -6701822.96449  23985485.4234   23985491.9194
  23667915.867    -6149405.566 9  -4603059.447 9  23667917.091    23667922.921
  21835817.065   -22893454.15349 -17824911.69649  21835818.9244   21835824.7734
 96  2 18 19 58 30.0000000  0  8 19 29  2 31 18 16 28 27
  20551421.345   -20753739.27749 -16159768.11949  20551422.9834   20551428.6954
  23270559.922    10891818.23349   8565000.15049  23270562.3474   23270567.0554
  23189394.768    -3663947.21149  -2835838.84849  23189395.1524   23189402.0234
  21801057.754   -15647650.13149 -12156417.28549  21801061.0754   21801066.5674
  20846848.084   -10633837.64149  -8276079.61749  20846849.9354   20846855.4854
  23979349.782    -8652648.31549  -6726936.78649  23979351.9994   23979358.5034
  23677147.894    -6100886.982 9  -4565252.767 9  23677149.524    23677155.403
  21823762.916   -22956804.11149 -17874275.29649  21823763.9514   21823769.7974
 96  2 18 19 59  0.0000000  0  8 19 29  2 31 18 16 28 27
  20548872.444   -20767134.92649 -16170206.28849  20548873.9084   20548879.7194
  23288840.823    10987888.02249   8639859.64149  23288844.2024   23288850.4964
  23174661.299    -3741364.64449  -2896164.10749  23174663.2864   23174670.0144
  21799160.667   -15657619.27749 -12164185.44549  21799163.6984   21799169.7984
  20857584.367   -10577418.26949  -8232116.49349  20857585.8784   20857591.9184
  23973324.022    -8684325.81349  -6751620.55449  23973324.5014   23973331.7974
  23686474.327    -6051880.498 9  -4527065.899 9  23686475.346    23686481.138
  21811727.381   -23020040.91049 -17923550.71049  21811730.3454   21811736.4294
 96  2 18 19 59 30.0000000  0  8 19 29  2 31 18 16 28 27
  20546373.536   -20780266.14349 -16180438.40749  20546375.4424   20546380.9024
  23307172.659    11084219.84549   8714923.29349  23307175.8084   23307182.4534
  23159979.707    -3818522.60149  -2956287.18049  23159980.1604   23159987.0634
  21797386.179   -15666947.50249 -12171454.18549  21797388.4864   21797394.4104
  20868413.522   -10520508.27549  -8187771.07749  20868415.4944   20868421.3024
  23967401.907    -8715429.61149  -6775857.28149  23967403.8714   23967411.8924
  23695896.310    -6002364.029 9  -4488481.634 9  23695898.125    23695903.805
  21799723.373   -23083142.20949 -17972720.54949  21799722.7934   21799728.4244
 96  2 18 20  0  0.0000000  0  8 19 29  2 31 18 16 28 27
  20543926.750   -20793127.34349 -16190460.12149  20543928.0224   20543933.4724
  23325553.098    11180807.85749   8790186.56749  23325554.3734   23325561.8824
  23145343.283    -3895435.70649  -3016219.47049  23145344.7254   23145351.3214
  21795734.998   -15675639.00849 -12178226.78349  21795734.9384   21795740.2524
  20879339.879   -10463093.65649  -8143032.43949  20879341.5674   20879347.1204
  23961592.910    -8745965.10949  -6799651.19549  23961593.6094   23961601.7724
  23705416.020    -5952334.402 9  -4449497.507 9  23705418.205    23705424.568
  21787738.969   -23146103.27649 -18021781.10949  21787741.4824   21787747.1344
 96  2 18 20  0 30.0000000  0  9 19 29  2 31 12 18 16 28 27
  20541525.097   -20805747.94649 -16200294.35549  20541526.4264   20541531.8624
  23343979.427    11277632.69249   8865634.40049  23343980.7334   23343987.0164
  23130746.813    -3972136.87249  -3075986.59549  23130748.4924   23130754.6514
  21794198.260   -15683712.16849 -12184517.55449  21794199.0604   21794204.4734
  24345410.876    -4643776.97619  -3604322.02819  24345414.534    24345423.193
  20890355.013   -10405205.28449  -8097924.64249  20890356.8704   20890362.7274
  23955884.679    -8775953.18749  -6823018.52449  23955887.7814   23955895.0474
  23715032.987    -5901805.486 9  -4410124.342 9  23715033.595    23715039.205
  21775783.758   -23208934.55749 -18070740.53849  21775785.0524   21775790.9374
 96  2 18 20  1  0.0000000  0  9 19 29  2 31 12 18 16 28 27
  20539166.716   -20818139.24649 -16209949.91449  20539168.3834   20539173.9124
  23362447.898    11374698.38549   8941269.94049  23362450.5734   23362458.4614
  23116193.774    -4048615.57349  -3135580.39049  23116194.8284   23116201.9794
  21792779.774   -15691156.47649 -12190318.30649  21792782.4444   21792787.3994
  24331012.008    -4719453.208 9  -3663290.493 9  24331014.652    24331021.745
  20901461.624   -10346840.68749  -8052445.76349  20901463.1494   20901468.8434
  23950281.562    -8805409.05649  -6845971.16349  23950282.4274   23950290.0514
  23724741.967    -5850771.243 9  -4370357.417 9  23724744.781    23724751.248
  21763851.625   -23271621.34349 -18119587.36549  21763856.1784   21763861.8154
 96  2 18 20  1 30.0000000  0  9 19 29  2 31 12 18 16 28 27
  20536852.827   -20830295.13349 -16219422.03849  20536854.9644   20536860.6754
  23380966.983    11472006.09849   9017094.03549  23380968.3304   23380975.6434
  23101682.062    -4124866.89449  -3194996.97549  23101684.8474   23101690.9594
  21791480.870   -15697991.42349 -12195644.21649  21791481.3434   21791487.0914
  24316648.531    -4794947.815 9  -3722117.419 9  24316648.278    24316657.094
  20912659.427   -10287993.81449  -8006591.07349  20912661.5414   20912667.3954
  23944776.444    -8834329.67449  -6868506.71349  23944778.7094   23944786.3994
  23734553.225    -5799227.823 9  -4330193.700 9  23734553.895    23734559.537
  21751956.348   -23334152.29149 -18168312.76649  21751956.8264   21751962.6624
 96  2 18 20  2  0.0000000  0  9 19 29  2 31 12 18 16 28 27
  20534583.156   -20842223.82649 -16228717.12849  20534585.0634   20534590.8434
  23399527.616    11569543.45249   9093097.03749  23399529.6654   23399537.0014
  23087220.274    -4200877.49249  -3254225.99849  23087220.7464   23087227.5024
  21790292.343   -15704231.76049 -12200506.79249  21790293.6614   21790299.2914
  24302313.632    -4870266.820 9  -3780807.541 9  24302314.256    24302325.189
  20923944.652   -10228692.38949  -7960382.20049  20923946.2864   20923952.3934
  23939374.383    -8862723.95649  -6890632.13449  23939374.6444   23939382.7084
  23744455.734    -5747182.595 9  -4289638.975 9  23744457.791    23744462.901
  21740083.495   -23396532.42949 -18216920.64649  21740086.2734   21740092.2194
 96  2 18 20  2 30.0000000  0  9 19 29  2 31 12 18 16 28 27
  20532361.740   -20853898.65749 -16237814.40549  20532363.2994   20532368.8724
  23418135.981    11667336.19349   9169299.08049  23418138.6054   23418146.6934
  23072807.768    -4276611.26649  -3313239.30149  23072809.1694   23072815.6324
  21789225.082   -15709842.86049 -12204879.06449  21789225.8404   21789232.1124
  24288018.655    -4945396.301 9  -3839349.978 9  24288017.487    24288025.285
  20935317.831   -10168927.36949  -7913812.08349  20935319.3394   20935325.1304
  23934071.493    -8890582.35049  -6912339.98049  23934073.2504   23934081.8594
  23754457.519    -5694623.215 9  -4248683.597 9  23754458.928    23754465.017
  21728244.942   -23458753.25849 -18265404.40349  21728245.9604   21728252.3274
 96  2 18 20  3  0.0000000  0  9 19 29  2 31 12 18 16 28 27
  20530187.918   -20865324.54749 -16246717.69649  20530189.2234   20530194.4364
  23436793.858    11765372.81549   9245691.15949  23436795.4514   23436802.0184
  23058447.991    -4352073.39649  -3372040.92849  23058448.8704   23058455.3714
  21788276.187   -15714831.46049 -12208766.26949  21788277.2384   21788281.7474
  24273751.763    -5020353.332 9  -3897758.069 9  24273753.438    24273763.553
  20946778.890   -10108699.66349  -7866881.42349  20946780.3864   20946785.8914
  23928873.836    -8917916.62149  -6933639.43049  23928873.1074   23928880.3234
  23764554.760    -5641568.485 9  -4207342.237 9  23764555.618    23764560.618
  21716430.538   -23520835.96749 -18313780.52349  21716432.4404   21716438.4184
 96  2 18 20  3 30.0000000  0  9 19 29  2 31 12 18 16 28 27
  20528066.882   -20876472.10049 -16255404.10149  20528068.0214   20528073.4354
  23455500.170    11863681.21349   9322295.01849  23455502.6454   23455510.0734
  23044143.881    -4427233.67549  -3430607.35049  23044146.2124   23044152.9704
  21787453.744   -15719158.69149 -12212138.12549  21787453.8274   21787459.0824
  24259527.678    -5095103.121 9  -3956004.612 9  24259528.437    24259537.786
  20958336.398   -10047962.46149  -7819553.75849  20958338.0414   20958344.0724
  23923775.274    -8944695.98749  -6954506.47949  23923776.9094   23923784.1994
  23774748.755    -5587985.014 9  -4165588.891 9  23774751.391    23774757.860
  21704647.896   -23582751.63349 -18362026.49049  21704649.9614   21704656.1674
 96  2 18 20  4  0.0000000  0  9 19 29  2 31 12 18 16 28 27
  20525991.050   -20887376.60249 -16263901.12049  20525992.9324   20525998.5274
  23474251.897    11962218.96949   9399077.58149  23474253.5514   23474261.6234
  23029895.291    -4502118.21849  -3488958.91049  23029896.0854   23029903.1134
  21786751.744   -15722833.80449 -12215001.84749  21786753.9884   21786759.2074
  24245338.062    -5169669.887 9  -4014108.542 9  24245339.211    24245350.968
  20969987.843    -9986734.64949  -7771843.80549  20969989.5004   20969995.4584
  23918781.074    -8970948.98149  -6974963.35949  23918781.2714   23918787.9214
  23785041.822    -5533898.893 9  -4123443.855 9  23785044.064    23785049.729
  21692891.430   -23644533.70449 -18410168.35849  21692893.2714   21692899.7374
 96  2 18 20  4 30.0000000  0  9 19 29  2 31 12 18 16 28 27
  20523956.830   -20898065.89249 -16272230.44049  20523958.7324   20523964.4004
  23493041.031    12060954.99449   9476014.64949  23493042.8944   23493050.7954
  23015689.638    -4576761.28349  -3547122.31149  23015691.7224   23015699.0944
  21786176.446   -15725864.87949 -12217363.72149  21786177.6544   21786182.5384
  24231174.748    -5244071.107 9  -4072083.512 9  24231181.127    24231191.051
  20981734.281    -9925008.99149  -7723745.91549  20981735.5544   20981741.2934
  23913882.922    -8996690.55749  -6995021.74649  23913882.7124   23913889.8014
  23795428.305    -5479328.843 9  -4080921.739 9  23795428.309    23795434.244
  21681157.964   -23706195.79149 -18458216.73149  21681159.2894   21681165.3084
 96  2 18 20  5  0.0000000  0  9 19 29  2 31 12 18 16 28 27
  20521964.686   -20908536.99749 -16280389.74949  20521966.2494   20521971.9524
  23511866.402    12159888.00549   9553105.20049  23511868.8674   23511876.6184
  23001534.410    -4651151.05549  -3605088.33549  23001535.8534   23001543.3604
  21785721.251   -15728257.13749 -12219227.81849  21785721.6824   21785726.7784
  24217053.595    -5318292.344 9  -4129918.206 9  24217056.788    24217067.090
  20993576.882    -9862773.90249  -7675251.06549  20993578.4374   20993584.1994
  23909084.365    -9021895.70349  -7014662.12449  23909085.2764   23909092.5124
  23805905.943    -5424262.264 9  -4038012.723 9  23805906.846    23805913.239
  21669451.017   -23767713.96249 -18506152.95849  21669452.7704   21669458.3114
 96  2 18 20  5 30.0000000  0  9 19 29  2 31 12 18 16 28 27
  20520011.902   -20918796.81849 -16288384.41749  20520013.7984   20520019.3674
  23530729.845    12259003.61449   9630338.04549  23530729.7614   23530737.4684
  22987426.133    -4725289.89449  -3662858.82449  22987427.9664   22987434.8534
  21785384.199   -15730025.15749 -12220605.49049  21785385.2014   21785391.2224
  24202963.458    -5392345.569 9  -4187621.993 9  24202965.687    24202976.674
  21005512.356    -9800051.77549  -7626376.70849  21005514.0324   21005519.7044
  23904391.227    -9046567.51149  -7033886.93949  23904392.0244   23904398.5314
  23816476.574    -5368712.792 9  -3994727.429 9  23816477.874    23816483.712
  21657770.276   -23829098.37749 -18553984.95949  21657772.0164   21657777.4364
 96  2 18 20  6  0.0000000  0  9 19 29  2 31 12 18 16 28 27
  20518102.858   -20928828.69049 -16296201.46149  20518105.0064   20518110.1544
  23549625.529    12358310.10549   9707719.60349  23549627.3784   23549634.7894
  22973365.517    -4799180.46349  -3720435.85449  22973366.8004   22973374.5584
  21785166.990   -15731168.89349 -12221496.70949  21785167.9584   21785173.4394
  24188905.032    -5466236.793 9  -4245199.546 9  24188906.876    24188916.776
  21017534.376    -9736878.07349  -7577150.46749  21017535.7164   21017541.7224
  23899801.460    -9070690.22049  -7052683.85749  23899802.3614   23899808.1134
  23827138.520    -5312687.891 9  -3951071.680 9  23827138.856    23827144.600
  21646116.048   -23890341.43449 -18601706.80349  21646117.8334   21646122.8924
 96  2 18 20  6 30.0000000  0  9 19 29  2 31 12 18 16 28 27
  20516245.752   -20938590.36149 -16303807.94749  20516247.2714   20516252.6844
  23568566.990    12457848.85649   9785282.15649  23568569.4934   23568576.0694
  22959356.275    -4872800.58749  -3777802.14749  22959357.3014   22959364.9434
  21785069.653   -15731670.18149 -12221887.29949  21785072.7504   21785078.5654
  24174875.836    -5539948.063 9  -4302636.891 9  24174878.879    24174889.307
  21029641.208    -9673253.87049  -7527573.19049  21029642.6794   21029648.7044
  23895315.167    -9094242.90049  -7071036.59549  23895318.8364   23895326.9024
  23837893.338    -5256171.307 9  -3907032.812 9  23837894.111    23837899.770
  21634495.200   -23951413.12449 -18649295.11949  21634496.1884   21634501.6074
 96  2 18 20  7  0.0000000  0  9 19 29  2 31 12 18 16 28 27
  20514440.778   -20948072.04749 -16311196.26849  20514443.0894   20514448.6514
  23587553.298    12557626.44749   9863030.83749  23587555.0374   23587564.3144
  22945398.964    -4946148.47149  -3834956.30549  22945399.9714   22945407.5644
  21785094.436   -15731541.63149 -12221787.11649  21785096.5894   21785101.9684
  24160884.449    -5613485.629 9  -4359938.858 9  24160885.683    24160893.464
  21041831.410    -9609194.90149  -7477657.13849  21041833.3414   21041839.5554
  23890942.453    -9117234.77349  -7088952.38049  23890943.1474   23890950.8404
  23848737.965    -5199171.067 9  -3862617.067 9  23848740.375    23848746.796
  21622903.401   -24012327.13049 -18696760.56049  21622904.3194   21622910.4424
 96  2 18 20  7 30.0000000  0  9 19 29  2 31 12 18 16 28 27
  20512691.052   -20957273.44749 -16318366.18149  20512691.8834   20512697.8584
  23606587.726    12657649.53749   9940970.80849  23606591.0704   23606597.1034
  22931491.901    -5019230.58849  -3891903.37749  22931493.1244   22931500.0474
  21785243.340   -15730774.07749 -12221189.00749  21785243.4284   21785248.5214
  24146920.995    -5686849.088 9  -4417105.159 9  24146924.214    24146935.099
  21054102.921    -9544707.53949  -7427407.27249  21054104.6004   21054110.5384
  23886672.088    -9139677.73749  -7106440.40749  23886673.0964   23886680.2084
  23859678.797    -5141688.290 9  -3817825.317 9  23859679.538    23859684.054
  21611338.440   -24073090.77749 -18744108.83849  21611341.3524   21611347.5314
 96  2 18 20  8  0.0000000  0  9 19 29  2 31 12 18 16 28 27
  20510989.579   -20966207.81949 -16325328.02149  20510991.7474   20510997.6074
  23625667.265    12757912.83549  10019097.95649  23625668.3354   23625676.0614
  22917632.853    -5092063.17749  -3948656.00549  22917633.2554   22917641.0304
  21785510.146   -15729368.22749 -12220093.51349  21785510.3334   21785515.4774
  24132994.313    -5760038.982 9  -4474136.230 9  24132996.501    24133008.866
  21066456.354    -9479791.54949  -7376823.40549  21066457.5784   21066463.5344
  23882502.008    -9161588.11249  -7123513.43449  23882503.8444   23882511.0804
  23870709.502    -5083725.272 9  -3772659.357 9  23870709.410    23870715.027
  21599805.880   -24133702.79449 -18791338.96249  21599807.5554   21599813.1534
 96  2 18 20  8 30.0000000  0  9 19 29  2 31 12 18 16 28 27
  20509339.298   -20974880.50949 -16332085.95549  20509341.3314   20509346.7814
  23644792.721    12858414.31849  10097410.70749  23644794.4354   23644800.5784
  22903822.498    -5164632.42249  -4005203.44149  22903823.9854   22903831.1744
  21785898.031   -15727321.98249 -12218499.00249  21785899.3824   21785905.1994
  24119104.235    -5833042.123 9  -4531021.744 9  24119104.736    24119114.301
  21078898.170    -9414406.61249  -7325874.13949  21078899.7634   21078905.8754
  23878435.407    -9182960.29949  -7140167.09649  23878437.1594   23878443.3634
  23881831.788    -5025270.501 9  -3727110.217 9  23881833.246    23881839.018
  21588299.519   -24194173.34049 -18838458.84849  21588300.1794   21588306.1254
 96  2 18 20  9  0.0000000  0  9 19 29  2 31 12 18 16 28 27
  20507729.336   -20983342.33749 -16338679.57649  20507731.3294   20507736.7274
  23663952.394    12959106.51049  10175872.02649  23663954.9034   23663962.1374
  22890058.050    -5236967.41849  -4061568.32849  22890059.4154   22890066.2574
  21786404.973   -15724672.26349 -12216434.26349  21786404.4944   21786409.4434
  24105239.503    -5905887.859 9  -4587784.657 9  24105242.147    24105250.495
  21091425.787    -9348574.68649  -7274576.56149  21091427.5924   21091433.3034
  23874466.126    -9203814.58049  -7156417.19649  23874468.7834   23874476.7914
  23893042.613    -4966355.095 9  -3681202.137 9  23893043.988    23893050.257
  21576813.083   -24254533.78249 -18885492.94049  21576814.1924   21576819.6974
 96  2 18 20  9 30.0000000  0  9 19 29  2 31 12 18 16 28 27
  20506158.141   -20991600.53749 -16345114.52449  20506159.6364   20506165.1284
  23683149.098    13059981.38049  10254475.69249  23683151.5764   23683158.9874
  22876338.149    -5309065.78749  -4117748.83749  22876339.1294   22876346.5484
  21787019.942   -15721409.93149 -12213892.14449  21787025.1444   21787030.3384
  24091406.019    -5978571.933 9  -4644421.576 9  24091409.387    24091421.295
  21104036.235    -9282306.44649  -7222938.99849  21104037.7594   21104043.8574
  23870601.085    -9224128.99449  -7172246.62249  23870602.7894   23870609.8954
  23904342.671    -4906976.478 9  -3634933.113 9  23904343.721    23904349.037
  21565348.663   -24314771.17949 -18932431.14149  21565351.4954   21565356.9854
 96  2 18 20 10  0.0000000  0  9 19 29  2 31 12 18 16 28 27
  20504631.244   -20999626.41049 -16351368.43949  20504632.5294   20504637.9404
  23702382.076    13161051.36249  10333231.45449  23702384.8574   23702390.8734
  22862665.763    -5380909.40449  -4173730.82649  22862667.5974   22862674.7214
  21787759.532   -15717529.41449 -12210868.34549  21787762.5204   21787768.3634
  24077604.111    -6051086.874 9  -4700926.684 9  24077610.130    24077620.702
  21116732.756    -9215583.78849  -7170947.34549  21116734.6914   21116740.6104
  23866842.263    -9243885.81149  -7187641.54349  23866843.4614   23866850.6994
  23915732.106    -4847128.514 9  -3588298.362 9  23915731.989    23915738.284
  21553912.882   -24374869.97649 -18979261.34349  21553914.9424   21553920.1994
 96  2 18 20 10 30.0000000  0  9 19 29  2 31 12 18 16 28 27
  20503145.979   -21007431.34049 -16357450.19249  20503147.3254   20503152.7094
  23721646.755    13262284.06749  10412114.00749  23721648.3994   23721655.7034
  22849038.107    -5452522.79349  -4229533.41649  22849040.2094   22849047.3854
  21788610.675   -15713075.91249 -12207398.06149  21788611.0984   21788616.2914
  24063836.618    -6123472.072 9  -4757330.702 9  24063836.472    24063845.613
  21129509.565    -9148444.34449  -7118630.91949  21129511.0704   21129517.1684
  23863182.405    -9263114.76949  -7202625.16649  23863184.2924   23863190.6134
  23927201.763    -4786852.500 9  -3541330.065 9  23927202.703    23927208.369
  21542496.452   -24434868.61749 -19026013.50549  21542497.5584   21542503.0864
 96  2 18 20 11  0.0000000  0  9 19 29  2 31 12 18 16 28 27
  20501720.182   -21014919.76949 -16363285.32249  20501722.1614   20501727.7354
  23740958.404    13363775.80649  10491198.38149  23740962.8174   23740968.6064
  22835471.003    -5523822.83549  -4285091.83749  22835471.9204   22835479.2344
  21789579.920   -15707964.57549 -12203415.17049  21789583.1004   21789588.2034
  24050100.829    -6195640.359 9  -4813565.685 9  24050103.765    24050111.975
  21142378.526    -9080819.37049  -7065936.16849  21142379.7724   21142385.8814
  23859642.685    -9281730.04649  -7217130.59449  23859642.4324   23859648.8704
  23938767.533    -4726063.138 9  -3493961.752 9  23938770.110    23938776.157
  21531118.719   -24494655.24049 -19072600.45849  21531119.9844   21531126.1254
 96  2 18 20 11 30.0000000  0  9 19 29  2 31 12 18 16 28 27
  20500354.036   -21022101.07849 -16368881.14449  20500355.7234   20500361.4314
  23760318.636    13465501.04449  10570464.69049  23760320.1774   23760327.3094
  22821958.550    -5594836.54149  -4340427.13449  22821958.9694   22821965.7824
  21790676.242   -15702212.04549 -12198932.66749  21790677.7734   21790683.3424
  24036406.721    -6267614.004 9  -4869648.991 9  24036407.028    24036416.695
  21155334.379    -9012733.16949  -7012882.01249  21155335.8944   21155342.0414
  23856209.360    -9299760.14049  -7231180.00549  23856210.5144   23856218.3834
  23950430.291    -4664784.434 9  -3446212.132 9  23950431.412    23950437.410
  21519778.940   -24554244.03049 -19119033.25549  21519780.9544   21519787.0494
 96  2 18 20 12  0.0000000  0  9 19 29  2 31 12 18 16 28 27
  20499033.425   -21029039.00749 -16374287.31749  20499035.3324   20499041.2514
  23779707.261    13567401.16949  10649867.27649  23779711.1794   23779718.7774
  22808487.094    -5665628.43549  -4395589.58549  22808487.1644   22808494.6574
  21791880.967   -15695889.16349 -12194005.72949  21791881.7104   21791886.8094
  24022735.494    -6339458.721 9  -4925631.849 9  24022735.930    24022745.679
  21168367.905    -8944241.45249  -6959511.87049  21168369.4374   21168375.7164
  23852874.731    -9317287.21549  -7244837.48949  23852875.1384   23852881.5644
  23962170.111    -4603083.828 9  -3398133.757 9  23962172.567    23962178.235
  21508465.811   -24613699.30649 -19165362.01749  21508466.9674   21508473.1244
 96  2 18 20 12 30.0000000  0  9 19 29  2 31 12 18 16 28 27
  20497767.644   -21035692.71049 -16379472.02249  20497769.2414   20497774.9194
  23799144.203    13669533.18449  10729450.56949  23799146.3354   23799153.5714
  22795069.230    -5736140.39949  -4450533.91749  22795069.6554   22795076.2374
  21793208.266   -15688918.57649 -12188574.06949  21793208.0534   21793212.7684
  24009101.998    -6411101.923 9  -4981457.713 9  24009102.906    24009111.950
  21181489.718    -8875288.47549  -6905782.31149  21181490.9074   21181497.0494
  23849649.821    -9334236.49449  -7258044.72649  23849649.9974   23849657.8744
  23974005.600    -4540890.531 9  -3349671.447 9  23974007.391    23974013.303
  21497190.229   -24672948.79149 -19211530.42049  21497192.3024   21497198.1644
 96  2 18 20 13  0.0000000  0  9 19 29  2 31 12 18 16 28 27
  20496544.027   -21042120.69249 -16384480.84449  20496545.8754   20496551.4184
  23818615.029    13771855.58349  10809182.17749  23818617.4014   23818624.6624
  22781697.654    -5806407.18949  -4505287.20749  22781697.9804   22781704.7574
  21794653.110   -15681313.28449 -12182647.87349  21794654.4174   21794659.8914
  23995499.306    -6482571.089 9  -5037147.930 9  23995501.794    23995512.033
  21194691.703    -8805909.90149  -6851721.11249  21194692.8254   21194698.8914
  23846527.996    -9350635.35949  -7270823.07249  23846529.1494   23846536.8594
  23985931.404    -4478233.709 9  -3300847.956 9  23985930.872    23985936.357
  21485951.518   -24732016.05349 -19257556.84149  21485952.1154   21485957.8024
 96  2 18 20 13 30.0000000  0  9 19 29  2 31 12 18 16 28 27
  20495359.980   -21048342.58249 -16389329.07049  20495361.9894   20495367.7714
  23838118.461    13874351.11649  10889048.72749  23838121.6644   23838129.3784
  22768370.944    -5876434.79849  -4559854.12149  22768371.8304   22768379.1834
  21796223.693   -15673067.94349 -12176222.91449  21796224.0004   21796228.5124
  23981930.961    -6553877.949 9  -5092711.679 9  23981933.073    23981943.932
  21207975.510    -8736102.07249  -6797325.43049  21207977.4104   21207982.9934
  23843509.396    -9366501.85249  -7283186.59549  23843510.3034   23843518.1244
  23997940.022    -4415126.868 9  -3251673.791 9  23997939.428    23997944.496
  21474739.472   -24790929.94649 -19303463.73849  21474741.4314   21474746.6844
 96  2 18 20 14  0.0000000  0  9 19 29  2 31 12 18 16 28 27
  20494212.386   -21054374.00849 -16394028.88849  20494214.6114   20494219.8484
  23857655.830    13977018.20849  10969048.93249  23857657.8404   23857666.5254
  22755090.139    -5946226.90749  -4614237.53649  22755091.3164   22755098.0464
  21797911.764   -15664186.33449 -12169302.16249  21797913.8524   21797918.8264
  23968390.413    -6625032.061 9  -5148156.416 9  23968392.030    23968405.320
  21221340.975    -8665867.47449  -6742597.19749  21221342.4454   21221348.1324
  23840588.316    -9381848.47649  -7295145.01949  23840590.0444   23840596.3334
  24010030.393    -4351581.562 9  -3202157.959 9  24010031.299    24010036.960
  21463553.822   -24849713.30549 -19349268.92949  21463554.9724   21463559.9684
 96  2 18 20 14 30.0000000  0  9 19 29  2 31 12 18 16 28 27
  20493103.907   -21060199.80149 -16398568.46949  20493105.6854   20493110.9564
  23877226.238    14079843.63849  11049172.52349  23877225.7514   23877233.5604
  22741855.096    -6015777.25949  -4668432.57849  22741855.9374   22741863.1064
  21799724.170   -15654661.01949 -12161879.82849  21799726.2444   21799730.8714
  23954877.598    -6696031.076 9  -5203480.286 9  23954881.653    23954893.314
  21234788.492    -8595199.54249  -6687531.30649  21234790.3774   21234795.8834
  23837766.414    -9396681.13449  -7306702.95149  23837767.3054   23837774.6964
  24022206.745    -4287597.181 9  -3152299.987 9  24022207.414    24022213.454
  21452390.682   -24908370.30649 -19394975.65949  21452392.8834   21452398.0744
 96  2 18 20 15  0.0000000  0  9 19 29  2 31 12 18 16 28 27
  20492036.187   -21065809.25949 -16402939.47649  20492038.4504   20492043.7424
  23896817.466    14182809.72849  11129405.70649  23896819.3624   23896827.3164
  22728663.209    -6085090.99249  -4722443.24249  22728666.0644   22728672.6964
  21801660.198   -15644499.89149 -12153962.06849  21801661.1154   21801665.5734
  23941397.935    -6766888.008 9  -5258693.461 9  23941398.389    23941408.738
  21248318.696    -8524099.01149  -6632128.32749  21248320.1964   21248326.1854
  23835035.343    -9411027.32249  -7317881.78949  23835038.0054   23835044.6374
  24034461.729    -4223188.376 9  -3102111.290 9  24034463.923    24034469.355
  21441251.214   -24966912.03349 -19440592.56149  21441252.8034   21441258.0524
 96  2 18 20 15 30.0000000  0  9 19 29  2 31 12 18 16 28 27
  20491016.880   -21071168.23449 -16407115.30849  20491018.5174   20491024.0334
  23916440.576    14285924.20649  11209754.53349  23916442.7884   23916449.5044
  22715524.414    -6154143.90349  -4776250.67649  22715525.3894   22715532.2324
  21803713.122   -15633694.96349 -12145542.62049  21803715.6864   21803720.6214
  23927942.222    -6837589.206 9  -5313785.276 9  23927944.520    23927955.081
  21261933.941    -8452551.42449  -6576376.98749  21261935.2354   21261941.0224
  23832399.906    -9424884.89549  -7328679.90949  23832400.3604   23832408.1874
  24046803.336    -4158343.380 9  -3051582.718 9  24046803.639    24046809.556
  21430134.378   -25025330.60749 -19486113.50649  21430136.1404   21430141.7044
 96  2 18 20 16  0.0000000  0  9 19 29  2 31 12 18 16 28 27
  20490047.284   -21076264.64149 -16411086.54149  20490048.6604   20490054.2514
  23936085.180    14389165.97549  11290202.56249  23936088.2204   23936096.4694
  22702434.419    -6222933.48149  -4829852.90849  22702435.2844   22702442.0354
  21805889.927   -15622269.29249 -12136639.52049  21805890.5204   21805895.8554
  23914516.152    -6908139.704 9  -5368759.667 9  23914519.536    23914529.297
  21275627.280    -8380590.28149  -6520303.39749  21275629.4084   21275634.9624
  23829852.107    -9438254.47949  -7339097.76549  23829854.6144   23829863.8274
  24059222.195    -4093069.188 9  -3000719.701 9  24059224.217    24059230.220
  21419042.871   -25083617.52549 -19531531.85949  21419044.4744   21419050.1654
 96  2 18 20 16 30.0000000  0  9 19 29  2 31 12 18 16 28 27
  20489129.731   -21081082.15249 -16414840.45249  20489131.6914   20489137.4094
  23955758.622    14492537.75249  11370751.88549  23955758.7754   23955767.0424
  22689395.017    -6291449.97649  -4883242.36049  22689396.9974   22689403.4824
  21808181.443   -15610229.52449 -12127257.85849  21808182.2254   21808186.3604
  23901121.206    -6978526.178 9  -5423606.225 9  23901124.815    23901136.011
  21289398.914    -8308221.75149  -6463912.36649  21289400.6784   21289406.3944
  23827408.260    -9451114.88249  -7349118.85649  23827408.5514   23827416.8164
  24071729.556    -4027354.254 9  -2949513.239 9  24071730.571    24071736.280
  21407980.899   -25141746.12649 -19576826.85949  21407983.1354   21407988.7704
 96  2 18 20 17  0.0000000  0  9 19 29  2 31 12 18 16 28 27
  20488260.010   -21085656.03049 -16418404.51349  20488261.6874   20488267.3834
  23975450.237    14596028.34149  11451393.77149  23975452.0384   23975460.5224
  22676405.699    -6359717.31949  -4936437.66749  22676405.8594   22676412.4684
  21810577.451   -15597610.81749 -12117425.09449  21810581.7874   21810588.0854
  23887757.874    -7048770.802 9  -5478342.279 9  23887758.871    23887768.126
  21303241.898    -8235476.38949  -6407227.69649  21303243.3954   21303249.2384
  23825059.524    -9463456.61349  -7358735.79249  23825060.8784   23825067.8174
  24084312.567    -3961222.597 9  -2897982.066 9  24084314.435    24084320.774
  21396946.188   -25199735.57749 -19622013.42549  21396947.8314   21396953.6654
 96  2 18 20 17 30.0000000  0  9 19 29  2 31 12 18 16 28 27
  20487433.629   -21089997.71149 -16421787.64649  20487435.6224   20487440.9934
  23995168.986    14699654.32249  11532141.17949  23995171.6974   23995179.8604
  22663462.350    -6427735.06449  -4989438.47549  22663462.7444   22663469.0854
  21813091.922   -15584438.84949 -12107161.21949  21813089.3904   21813094.4924
  23874415.689    -7118878.452 9  -5532971.565 9  23874417.194    23874426.298
  21317156.639    -8162353.57049  -6350248.90849  21317158.2844   21317164.1684
  23822810.890    -9475259.80449  -7367933.09449  23822814.2934   23822822.3254
  24096973.713    -3894680.981 9  -2846131.457 9  24096977.356    24096982.254
  21385935.791   -25257594.25249 -19667098.09149  21385937.4684   21385943.4614
 96  2 18 20 18  0.0000000  0  9 19 29  2 31 12 18 16 28 27
  20486654.792   -21094093.20349 -16424978.93549  20486656.0984   20486661.6624
  24014920.979    14803441.58049  11613014.23349  24014922.9424   24014930.2444
  22650566.538    -6495499.93749  -5042242.24849  22650567.6084   22650573.8614
  21815701.888   -15570702.99649 -12096457.95149  21815703.6304   21815708.3554
  23861101.782    -7188834.128 9  -5587482.425 9  23861104.767    23861113.920
  21331149.063    -8088821.66349  -6292951.34849  21331150.9964   21331156.4104
  23820675.738    -9486487.59149  -7376682.01449  23820677.0574   23820686.2694
  24109719.372    -3827716.109 9  -2793951.013 9  24109719.937    24109726.205
  21374956.295   -25315293.83049 -19712058.78649  21374957.3994   21374963.3774
 96  2 18 20 18 30.0000000  0  9 19 29  2 31 12 18 16 28 27
  20485920.207   -21097951.86049 -16427985.68249  20485921.7464   20485927.4024
  24034703.615    14907402.79449  11694022.85449  24034706.4844   24034713.4634
  22637718.026    -6563024.07049  -5094858.42249  22637718.3064   22637724.1924
  21818427.564   -15556381.82549 -12085298.59149  21818427.7274   21818433.8584
  23847819.757    -7258641.412 9  -5641877.651 9  23847821.266    23847829.971
  21345225.195    -8014853.03649  -6235313.47849  21345226.6174   21345232.6304
  23818651.978    -9497136.06449  -7384979.52949  23818651.0334   23818659.2504
  24122539.929    -3760333.450 9  -2741445.041 9  24122542.202    24122548.989
  21364006.123   -25372839.30749 -19756899.40049  21364007.2254   21364012.8864
 96  2 18 20 19  0.0000000  0  9 19 29  2 31 12 18 16 28 27
  20485230.865   -21101573.51549 -16430807.74749  20485232.7134   20485238.2254
  24054522.667    15011550.43549  11775176.76949  24054523.7964   24054532.9154
  22624913.340    -6630301.82649  -5147282.61249  22624915.2774   22624921.9404
  21821269.164   -15541451.17349 -12073664.31749  21821270.2024   21821274.9054
  23834562.609    -7328301.772 9  -5696158.384 9  23834564.205    23834574.642
  21359386.910    -7940431.82549  -6177322.95249  21359388.2864   21359394.6094
  23816730.389    -9507213.04349  -7392831.70949  23816733.6454   23816741.9104
  24135442.300    -3692536.368 9  -2688616.147 9  24135443.579    24135450.014
  21353082.588   -25430237.17949 -19801624.99749  21353084.5924   21353090.2924
 96  2 18 20 19 30.0000000  0  9 19 29  2 31 12 18 16 28 27
  20484587.978   -21104951.66049 -16433440.05649  20484589.6614   20484595.6444
  24074374.310    15115867.54949  11856462.70149  24074376.5364   24074383.6934
  22612155.693    -6697344.81649  -5199523.86849  22612157.5244   22612164.4194
  21824224.786   -15525904.71749 -12061550.17649  21824227.8354   21824233.6744
  23821333.830    -7397825.255 9  -5750332.457 9  23821335.916    23821344.437
  21373632.352    -7865574.11649  -6118992.29449  21373633.4734   21373639.8994
  23814915.264    -9516761.34149  -7400271.95549  23814916.6934   23814923.2624
  24148420.572    -3624336.962 9  -2635473.734 9  24148421.734    24148427.994
  21342187.950   -25487490.97049 -19846238.31949  21342189.8924   21342195.4894
 96  2 18 20 20  0.0000000  0  9 19 29  2 31 12 18 16 28 27
  20483990.659   -21108090.21849 -16435885.67949  20483992.3484   20483998.2804
  24094251.132    15220326.82649  11937859.36749  24094253.8624   24094260.9424
  22599439.809    -6764169.51249  -5251595.01949  22599441.3734   22599447.7474
  21827304.526   -15509734.03749 -12048949.63949  21827305.2634   21827310.3554
  23808125.580    -7467219.194 9  -5804405.596 9  23808129.441    23808140.186
  21387953.755    -7790315.34549  -6060349.12949  21387954.8114   21387961.3144
  23813193.007    -9525808.36349  -7407321.56549  23813194.5814   23813203.3844
  24161472.639    -3555744.643 9  -2582025.166 9  24161474.070    24161480.037
  21331318.517   -25544610.08949 -19890746.70949  21331320.2484   21331326.1334
 96  2 18 20 20 30.0000000  0  9 19 29  2 31 12 18 16 28 27
  20483438.963   -21110990.45249 -16438145.59249  20483440.4234   20483445.9664
  24114158.015    15324937.78649  12019374.31549  24114160.6314   24114166.8784
  22586769.407    -6830756.65549  -5303481.06149  22586770.4484   22586777.0674
  21830500.454   -15492925.37549 -12035851.95849  21830503.6354   21830509.1154
  23794949.757    -7536468.911 9  -5858366.327 9  23794951.872    23794962.065
  21402347.085    -7714673.59849  -6001407.53649  21402348.8904   21402354.9354
  23811564.916    -9534361.54349  -7413986.38249  23811566.9614   23811574.8254
  24174601.848    -3486746.344 9  -2528260.254 9  24174604.270    24174609.894
  21320476.960   -25601585.72649 -19935143.29449  21320478.4254   21320484.1454
 96  2 18 20 21  0.0000000  0  9 19 29  2 31 12 18 16 28 27
  20482934.643   -21113642.96749 -16440212.47749  20482935.9104   20482941.4034
  24134093.506    15429697.84349  12101005.41049  24134095.1884   24134102.1574
  22574148.283    -6897078.37749  -5355160.27549  22574149.3404   22574156.5924
  21833817.646   -15475498.53449 -12022272.57449  21833819.8134   21833825.4514
  23781801.334    -7605562.818 9  -5912205.634 9  23781803.387    23781813.969
  21416811.906    -7638663.16049  -5942178.65449  21416812.8904   21416819.4864
  23810031.237    -9542422.30849  -7420267.50949  23810033.4214   23810040.3524
  24187810.651    -3417332.333 9  -2474171.407 9  24187813.056    24187818.776
  21309664.707   -25658399.66049 -19979413.88449  21309666.5924   21309672.5564
 96  2 18 20 21 30.0000000  0  9 19 29  2 31 12 18 16 28 27
  20482476.164   -21116049.42349 -16442087.62449  20482478.1444   20482483.1304
  24154054.597    15534587.55949  12182737.58749  24154055.8534   24154062.6834
  22561578.864    -6963130.74249  -5406629.60549  22561580.5944   22561587.1684
  21837251.011   -15457466.43749 -12008221.56249  21837251.6314   21837256.7264
  23768682.687    -7674497.297 9  -5965920.698 9  23768685.434    23768696.664
  21431344.417    -7562292.24049  -5882668.87849  21431346.1824   21431352.6344
  23808593.267    -9549986.65749  -7426161.80349  23808593.8044   23808602.4234
  24201100.742    -3347501.181 9  -2419757.512 9  24201101.753    24201107.284
  21298884.731   -25715047.50649 -20023555.04949  21298886.9184   21298892.8304
 96  2 18 20 22  0.0000000  0  9 19 29  2 31 12 18 16 28 27
  20482058.829   -21118243.21549 -16443797.06149  20482060.5684   20482066.1104
  24174035.319    15639596.13349  12264562.35549  24174038.2854   24174046.8764
  22549061.091    -7028913.86449  -5457889.13349  22549062.4214   22549069.1784
  21840794.174   -15438837.87549 -11993705.76349  21840796.1884   21840801.5254
  23755597.632    -7743281.705 9  -6019518.855 9  23755597.159    23755604.401
  21445943.842    -7485569.75349  -5822885.15349  21445945.6534   21445952.3654
  23807248.382    -9557047.87349  -7431664.05249  23807249.9344   23807257.7634
  24214467.553    -3277263.993 9  -2365027.217 9  24214466.943    24214473.390
  21288137.021   -25771534.24949 -20067570.68149  21288138.0474   21288143.5914
 96  2 18 20 22 30.0000000  0  9 19 29  2 31 12 18 16 28 27
  20481679.878   -21120233.34849 -16445347.80149  20481682.0644   20481687.5654
  24194041.350    15744722.33049  12346478.74849  24194043.8974   24194051.7064
  22536595.392    -7094423.04649  -5508935.20549  22536596.0184   22536603.1484
  21844452.428   -15419618.66349 -11978729.71749  21844453.7024   21844458.7544
  23742532.935    -7811919.247 9  -6073002.526 9  23742535.375    23742543.679
  21460613.287    -7408485.43449  -5762819.48049  21460614.7064   21460620.7654
  23806001.246    -9563598.86449  -7436768.73049  23806003.1934   23806010.9644
  24227905.884    -3206625.963 9  -2309984.601 9  24227909.349    24227915.699
  21277421.908   -25827847.32249 -20111450.98749  21277422.2204   21277427.5144
 96  2 18 20 23  0.0000000  0  9 19 29  2 31 12 18 16 28 27
  20481343.894   -21121999.93549 -16446724.34649  20481345.7034   20481351.0934
  24214068.937    15849967.88049  12428488.10049  24214070.4824   24214079.3594
  22524180.141    -7159663.62149  -5559771.97449  22524181.1334   22524187.7804
  21848222.569   -15399807.41449 -11963292.34449  21848223.0424   21848228.7394
  23729500.607    -7880409.030 9  -6126371.078 9  23729502.447    23729509.943
  21475353.598    -7331023.92249  -5702459.88449  21475354.8764   21475361.2014
  23804859.356    -9569617.70549  -7441458.74049  23804859.7114   23804865.7854
  24241425.693    -3135588.189 9  -2254630.466 9  24241427.299    24241433.479
  21266737.404   -25883990.28949 -20155198.72949  21266738.4784   21266743.8364
 96  2 18 20 23 30.0000000  0  9 19 29  2 31 12 18 16 28 27
  20481050.468   -21123541.67449 -16447925.69149  20481052.0654   20481057.4284
  24234120.701    15955341.34249  12510597.14849  24234123.0104   24234131.2714
  22511811.609    -7224664.92649  -5610422.30449  22511811.4504   22511818.8564
  21852109.787   -15379385.34749 -11947379.01249  21852109.4514   21852114.8444
  23716492.586    -7948753.988 9  -6179626.763 9  23716496.122    23716504.414
  21490165.819    -7253182.90349  -5641804.58049  21490167.9324   21490173.9684
  23803811.617    -9575098.63849  -7445729.58949  23803814.6284   23803822.8174
  24255018.159    -3064155.763 9  -2198968.821 9  24255020.901    24255026.584
  21256083.730   -25939969.42949 -20198818.82249  21256085.7764   21256091.3194
 96  2 18 20 24  0.0000000  0  9 19 29  2 31 12 18 16 28 27
  20480803.815   -21124838.57549 -16448936.25049  20480805.4924   20480810.8634
  24254197.341    16060859.83449  12592819.18649  24254202.2004   24254210.5614
  22499486.685    -7289426.31249  -5660885.68649  22499488.1724   22499494.9744
  21856113.687   -15358346.47149 -11930985.05549  21856113.0334   21856118.2324
  23703517.320    -8016944.911 9  -6232762.413 9  23703519.706    23703527.506
  21505052.114    -7174955.93149  -5580848.51849  21505053.9104   21505060.4624
  23802875.315    -9580032.54349  -7449574.20649  23802876.3594   23802884.1844
  24268688.557    -2992321.201 9  -2142993.825 9  24268690.519    24268696.190
  21245465.630   -25995768.40149 -20242298.51949  21245467.5314   21245473.2994
 96  2 18 20 24 30.0000000  0  9 19 29  2 31 12 18 16 28 27
  20480609.147   -21125860.15849 -16449732.27749  20480610.9784   20480616.3884
  24274309.851    16166526.33249  12675156.55349  24274310.2634   24274317.9504
  22487208.623    -7353944.36849  -5711159.46349  22487210.6124   22487217.9524
  21860231.328   -15336702.75049 -11914119.79549  21860231.7664   21860236.5834
  23690572.810    -8084978.202 9  -6285775.265 9  23690573.806    23690581.441
  21520013.927    -7096332.42149  -5519583.47449  21520015.6364   21520021.5704
  23802041.219    -9584419.46849  -7452992.59549  23802042.1304   23802049.8404
  24282436.000    -2920082.857 9  -2086704.204 9  24282436.797    24282442.435
  21234879.735   -26051390.51849 -20285640.41649  21234882.6724   21234888.9184
 96  2 18 20 25  0.0000000  0  9 19 29  2 31 12 18 16 28 27
  20480468.628   -21126597.32149 -16450306.67949  20480470.3334   20480475.8024
  24294441.419    16272334.50049  12757604.33849  24294444.0734   24294452.9664
  22474980.070    -7418214.02649  -5761239.69049  22474980.2774   22474987.6704
  21864464.175   -15314456.10749 -11896784.73049  21864465.3614   21864470.1374
  23677653.930    -8152852.054 9  -6338663.849 9  23677657.239    23677665.678
  21535051.862    -7017305.43849  -5458004.03649  21535053.5964   21535059.7924
  23801307.456    -9588266.87249  -7455990.56449  23801309.5244   23801316.5344
  24296259.880    -2847440.972 9  -2030100.112 9  24296260.185    24296266.569
  21224328.413   -26106841.19349 -20328848.71849  21224331.0754   21224336.9224
 96  2 18 20 25 30.0000000  0  9 19 29  2 31 12 18 16 28 27
  20480380.139   -21127063.44549 -16450669.87649  20480381.9974   20480387.1964
  24314603.680    16378279.27249  12840158.57849  24314605.3364   24314613.0084
  22462798.212    -7482223.09749  -5811116.85949  22462800.0014   22462807.4354
  21868812.714   -15291605.79449 -11878979.28549  21868813.4834   21868818.2024
  23664769.244    -8220569.625 9  -6391430.681 9  23664770.942    23664780.863
  21550167.563    -6937872.66249  -5396108.40149  21550169.2694   21550175.4464
  23800675.873    -9591587.93549  -7458578.42149  23800676.9434   23800685.5744
  24310156.466    -2774400.600 9  -1973185.549 9  24310159.451    24310165.201
  21213809.697   -26162123.40749 -20371925.74949  21213811.4654   21213816.8854
 96  2 18 20 26  0.0000000  0  9 19 29  2 31 12 18 16 28 27
  20480344.326   -21127251.57249 -16450816.45749  20480346.1684   20480351.3684
  24334792.251    16484367.99349  12922824.99349  24334793.6644   24334802.1144
  22450673.979    -7545939.18549  -5860765.73249  22450675.3724   22450681.7674
  21873278.445   -15268141.96949 -11860695.77749  21873278.4214   21873283.5284
  23651912.657    -8288120.241 9  -6444067.406 9  23651916.115    23651925.921
  21565362.791    -6858024.16649  -5333888.81549  21565364.3874   21565370.0154
  23800146.676    -9594378.61849  -7460752.98849  23800147.7744   23800154.6534
  24324134.264    -2700952.990 9  -1915953.644 9  24324136.169    24324141.522
  21203322.954   -26217234.83949 -20414869.69849  21203324.3324   21203329.2674
 96  2 18 20 26 30.0000000  0  9 19 29  2 31 12 18 16 28 27
  20480357.408   -21127185.94049 -16450765.30349  20480358.6774   20480364.0714
  24355002.550    16590584.02349  13005590.61849  24355006.5674   24355014.1814
  22438603.012    -7609377.16749  -5910197.89149  22438603.2994   22438610.2914
  21877859.645   -15244060.06049 -11841930.64949  21877860.8614   21877865.9324
  23639089.614    -8355518.759 9  -6496585.646 9  23639091.129    23639101.304
  21580637.069    -6777758.39349  -5271344.08949  21580638.1624   21580644.6694
  23799715.266    -9596651.66249  -7462524.20649  23799715.3894   23799721.9054
  24338185.062    -2627115.380 9  -1858417.853 9  24338186.314    24338192.785
  21192866.311   -26272190.94249 -20457692.61349  21192866.4674   21192871.8104
 96  2 18 20 27  0.0000000  0  9 19 29  2 31 12 18 16 28 27
  20480415.230   -21126878.43449 -16450525.67349  20480416.9664   20480422.2014
  24375238.908    16696918.64449  13088448.66949  24375241.1794   24375248.7264
  22426578.181    -7672563.87449  -5959434.24749  22426579.3724   22426586.1154
  21882561.635   -15219347.79149 -11822674.33449  21882563.5044   21882568.7834
  23626290.669    -8422772.431 9  -6548990.994 9  23626293.191    23626301.424
  21595987.056    -6697090.99649  -5208486.40549  21595988.9194   21595994.9824
  23799376.976    -9598416.86549  -7463899.67349  23799377.9854   23799386.8784
  24352307.688    -2552896.788 9  -1800585.201 9  24352310.116    24352315.381
  21182436.311   -26326988.33849 -20500391.85949  21182438.6094   21182444.0854
 96  2 18 20 27 30.0000000  0  9 19 29  2 31 12 18 16 28 27
  20480526.399   -21126297.02349 -16450072.61549  20480527.7084   20480533.0354
  24395502.136    16803403.52749  13171423.77749  24395504.1074   24395512.9504
  22414603.385    -7735488.76549  -6008466.58449  22414605.2174   22414611.4994
  21887392.674   -15193969.45049 -11802898.99449  21887392.7684   21887398.1914
  23613525.111    -8489859.443 9  -6601266.461 9  23613526.662    23613535.590
  21611415.154    -6616015.61049  -5145310.79449  21611416.7464   21611422.9014
  23799142.644    -9599647.91049  -7464858.95049  23799144.8504   23799152.6644
  24366509.286    -2478277.280 9  -1742440.124 9  24366509.253    24366515.270
  21172043.511   -26381604.00249 -20542949.49649  21172045.1644   21172051.0404
 96  2 18 20 28  0.0000000  0  9 19 29  2 31 12 18 16 28 27
  20480689.884   -21125433.74949 -16449399.91849  20480692.0634   20480697.7424
  24415791.072    16910018.46249  13254500.20649  24415792.8414   24415800.3454
  22402675.123    -7798177.17449  -6057314.64549  22402676.2414   22402682.0754
  21892345.057   -15167932.35849 -11782610.34649  21892347.5044   21892352.8384
  23600790.024    -8556787.499 9  -6653418.079 9  23600791.285    23600799.474
  21626917.721    -6534547.80949  -5081829.40949  21626919.5264   21626925.7814
  23799006.480    -9600351.33449  -7465407.06149  23799009.7774   23799019.1084
  24380782.181    -2403266.789 9  -1683990.388 9  24380783.544    24380789.191
  21161685.435   -26436029.86349 -20585359.24449  21161688.1434   21161694.0394
 96  2 18 20 28 30.0000000  0  9 19 29  2 31 12 18 16 28 27
  20480903.251   -21124312.50449 -16448526.20549  20480904.9954   20480910.9254
  24436094.616    17016717.78849  13337642.39049  24436096.8714   24436104.9674
  22390782.373    -7860668.39949  -6106009.04549  22390784.1244   22390790.4974
  21897416.259   -15141286.27249 -11761847.15649  21897417.8904   21897423.7504
  23588076.584    -8623595.206 9  -6705475.915 9  23588077.796    23588085.843
  21642486.799    -6452733.60349  -5018078.09949  21642488.6814   21642494.6374
  23798974.106    -9600545.06449  -7465558.02249  23798973.2564   23798982.0104
  24395124.240    -2327905.760 9  -1625267.498 9  24395125.383    24395130.033
  21151363.020   -26490285.56949 -20627636.40249  21151363.8874   21151369.7734
 96  2 18 20 29  0.0000000  0  9 19 29  2 31 12 18 16 28 27
  20481174.643   -21122890.74749 -16447418.33049  20481176.0324   20481181.3204
  24456423.833    17123546.23149  13420885.17349  24456425.3664   24456434.1104
  22378940.281    -7922904.29149  -6154504.48549  22378941.2044   22378947.4784
  21902608.126   -15114014.65349 -11740596.53049  21902607.5184   21902613.2174
  23575392.371    -8690243.951 9  -6757409.866 9  23575394.545    23575402.512
  21658123.217    -6370565.96349  -4954051.38349  21658124.3364   21658130.8834
  23799042.924    -9600184.02249  -7465276.71749  23799042.5454   23799049.3624
  24409537.598    -2252157.640 9  -1566243.002 9  24409538.548    24409544.637
  21141075.816   -26544341.21949 -20669757.67149  21141077.7114   21141083.2414
 96  2 18 20 29 30.0000000  0  9 19 29  2 31 12 18 16 28 27
  20481501.788   -21121167.66649 -16446075.65649  20481503.9374   20481509.2104
  24476776.878    17230514.63949  13504237.01249  24476780.7434   24476790.8404
  22367152.554    -7984845.31049  -6202770.15249  22367153.8504   22367159.6524
  21907912.947   -15086135.50749 -11718872.50349  21907912.8724   21907918.3464
  23562742.535    -8756721.268 9  -6809210.242 9  23562744.516    23562752.721
  21673827.189    -6288037.48749  -4889743.50449  21673829.2374   21673835.3444
  23799215.703    -9599254.90649  -7464552.71449  23799218.8334   23799227.8424
  24424026.839    -2176012.079 9  -1506908.824 9  24424027.718    24424034.197
  21130829.561   -26598188.32349 -20711716.43349  21130830.7574   21130836.2284
 96  2 18 20 30  0.0000000  0  9 19 29  2 31 12 18 16 28 27
  20481880.402   -21119182.27149 -16444528.58549  20481881.8614   20481887.0544
  24497158.499    17337600.55249  13587680.40749  24497158.2774   24497168.4024
  22355422.164    -8046488.50549  -6250803.74849  22355423.7524   22355430.0604
  21913324.898   -15057689.21449 -11696706.54849  21913326.1384   21913331.2794
  23550123.240    -8823042.757 9  -6860889.227 9  23550123.667    23550132.719
  21689600.179    -6205153.71449  -4825158.76449  21689601.8644   21689607.7744
  23799498.096    -9597776.48349  -7463400.69649  23799499.3304   23799508.8054
  24438588.763    -2099486.677 9  -1447278.629 9  24438590.858    24438596.176
  21120619.701   -26651837.17349 -20753520.71249  21120621.5594   21120627.4204
 96  2 18 20 30 30.0000000  0  9 19 29  2 31 12 18 16 28 27
  20482302.378   -21116961.86749 -16442798.39349  20482304.1774   20482309.5194
  24517558.807    17444804.95649  13671216.15549  24517558.6094   24517568.2344
  22343749.410    -8107822.58849  -6298596.46949  22343752.2824   22343758.5794
  21918844.520   -15028687.58149 -11674107.85749  21918844.8104   21918850.0514
  23537528.306    -8889213.395 9  -6912450.673 9  23537531.568    23537541.152
  21705438.922    -6121919.99849  -4760301.34049  21705440.3544   21705446.6014
  23799881.376    -9595767.90549  -7461835.56749  23799881.5704   23799890.2574
  24453223.801    -2022588.613 9  -1387358.059 9  24453223.870    24453229.520
  21110446.321   -26705300.84949 -20795180.69649  21110447.7734   21110453.5464
 96  2 18 20 31  0.0000000  0  9 19 29  2 31 12 18 16 28 27
  20482770.212   -21114503.74649 -16440882.96849  20482771.9504   20482777.3064
  24537983.035    17552144.62449  13754857.33449  24537986.2404   24537994.8554
  22332140.599    -8168839.13449  -6346141.76349  22332140.8564   22332147.3744
  21924474.225   -14999108.00949 -11651058.82249  21924473.8434   21924478.9834
  23524971.617    -8955213.313 9  -6963879.090 9  23524972.394    23524980.964
  21721350.322    -6038302.07849  -4695144.53549  21721352.1174   21721358.5394
  23800363.664    -9593249.11149  -7459872.88749  23800363.3984   23800369.5334
  24467930.162    -1945300.050 9  -1327133.208 9  24467931.058    24467937.363
  21100310.001   -26758562.88549 -20836683.56049  21100312.1474   21100317.8964
 96  2 18 20 31 30.0000000  0  9 19 29  2 31 12 18 16 28 27
  20483280.689   -21111820.40849 -16438792.05349  20483282.3574   20483287.8444
  24558430.989    17659597.21649  13838586.46449  24558433.9664   24558442.8064
  22320581.089    -8229572.79249  -6393466.62849  22320583.4364   22320590.3734
  21930210.722   -14968950.37149 -11627559.35249  21930212.5004   21930217.9324
  23512438.420    -9021056.591 9  -7015185.463 9  23512442.460    23512452.640
  21737337.992    -5954289.25749  -4629680.01549  21737339.4084   21737345.3954
  23800925.050    -9590247.54949  -7457533.98249  23800931.7994   23800940.2904
  24482709.257    -1867636.964 9  -1266616.516 9  24482710.392    24482715.866
  21090211.082   -26811635.85149 -20878039.09149  21090212.8564   21090218.1944
 96  2 18 20 32  0.0000000  0  9 19 29  2 31 12 18 16 28 27
  20483838.094   -21108889.87549 -16436508.52349  20483840.2144   20483845.7374
  24578899.581    17767160.56549  13922401.94349  24578902.7694   24578911.3194
  22309077.562    -8290035.40849  -6440580.29449  22309077.8714   22309084.8164
  21936063.488   -14938182.58149 -11603584.43949  21936067.6604   21936072.3054
  23499941.191    -9086738.749 9  -7066366.297 9  23499942.935    23499952.887
  21753402.643    -5869870.27149  -4563899.00749  21753403.8134   21753410.2244
  23801597.393    -9586758.27949  -7454815.08449  23801596.3854   23801603.9964
  24497559.606    -1789597.296 9  -1205806.404 9  24497560.606    24497566.320
  21080148.071   -26864521.67449 -20919248.79149  21080149.0224   21080154.5454
 96  2 18 20 32 30.0000000  0  9 19 29  2 31 12 18 16 28 27
  20484443.323   -21105709.90049 -16434030.62249  20484445.4804   20484450.8024
  24599384.280    17874804.65249  14006280.35949  24599387.2094   24599395.3434
  22297615.878    -8350263.05949  -6487510.88449  22297616.7464   22297623.7564
  21942031.372   -14906825.24849 -11579150.15149  21942034.4794   21942039.3184
  23487470.953    -9152286.240 9  -7117442.202 9  23487470.422    23487479.866
  21769535.035    -5785090.98849  -4497837.24949  21769536.8494   21769543.0154
  23802350.630    -9582803.90549  -7451733.75949  23802350.4114   23802357.3314
  24512475.283    -1711209.407 9  -1144724.910 9  24512477.607    24512482.428
  21070112.748   -26917253.85249 -20960338.76649  21070114.6564   21070119.7634
 96  2 18 20 33  0.0000000  0  9 19 29  2 31 12 18 16 28 27
  20485101.652   -21102251.33149 -16431335.63449  20485103.4694   20485108.4134
  24619882.338    17982521.11749  14090215.10449  24619882.7734   24619891.8954
  22286197.448    -8410255.89749  -6534258.49749  22286200.5284   22286207.4214
  21948113.571   -14874877.40249 -11554255.71249  21948114.0244   21948119.5584
  23475023.262    -9217695.007 9  -7168410.012 9  23475023.628    23475032.040
  21785735.973    -5699954.64049  -4431497.25949  21785737.5084   21785743.9144
  23803190.587    -9578353.91149  -7448266.22449  23803196.0374   23803203.9724
  24527460.579    -1632471.235 9  -1083370.506 9  24527461.295    24527466.003
  21060106.815   -26969837.89749 -21001313.31749  21060108.3394   21060113.3214
 96  2 18 20 33 30.0000000  0  9 19 29  2 31 12 18 16 28 27
  20485819.160   -21098482.88349 -16428399.18349  20485820.4314   20485825.7774
  24640394.114    18090315.66649  14174210.81249  24640397.5544   24640403.5734
  22274830.910    -8469995.97449  -6580809.17549  22274832.6804   22274839.4034
  21954304.666   -14842328.84649 -11528893.19249  21954307.7594   21954313.1914
  23462599.832    -9282956.188 9  -7219262.823 9  23462604.569    23462613.036
  21802002.960    -5614469.56749  -4364885.54649  21802005.2334   21802010.8494
  23804145.361    -9573372.23149  -7444384.40949  23804143.0944   23804152.3004
  24542510.871    -1553375.893 9  -1021737.787 9  24542512.158    24542517.119
  21050130.037   -27022264.93949 -21042165.52849  21050131.4594   21050136.9764
 96  2 18 20 34  0.0000000  0  9 19 29  2 31 12 18 16 28 27
  20486593.462   -21094414.58049 -16425229.07049  20486594.7734   20486599.9454
  24660922.107    18198179.22949  14258260.21149  24660923.0394   24660930.0214
  22263509.171    -8529489.60449  -6627167.80749  22263511.2634   22263518.2134
  21960610.637   -14809202.22849 -11503080.22549  21960611.3914   21960616.9234
  23450208.768    -9348080.662 9  -7270009.099 9  23450211.259    23450219.288
  21818333.087    -5528656.11949  -4298017.94149  21818334.8334   21818340.9234
  23805192.060    -9567863.26649  -7440091.69649  23805192.4564   23805199.2654
  24557628.343    -1473936.600 9   -959837.034 9  24557630.014    24557635.352
  21040185.573   -27074519.99449 -21082883.72049  21040187.5984   21040193.2254
 96  2 18 20 34 30.0000000  0  9 19 29  2 31 12 18 16 28 27
  20487424.939   -21090043.01349 -16421822.65449  20487426.6514   20487432.1004
  24681462.930    18306133.97949  14342380.60149  24681465.9784   24681475.4804
  22252240.878    -8588706.99749  -6673311.20149  22252242.7834   22252249.4234
  21967026.880   -14775487.65349 -11476809.11449  21967027.1974   21967032.4484
  23437848.085    -9413047.954 9  -7320632.919 9  23437849.064    23437856.879
  21834729.104    -5442494.35649  -4230878.92349  21834730.3784   21834736.9544
  23806342.042    -9561804.52049  -7435370.60549  23806345.7914   23806352.7624
  24572813.010    -1394134.677 9   -897653.725 9  24572815.265    24572819.196
  21030282.706   -27126562.10349 -21123435.99449  21030284.4024   21030289.6314
 96  2 18 20 35  0.0000000  0  8 19  2 31 12 18 16 28 27
  20488308.300   -21085400.24849 -16418204.90549  20488310.0524   20488315.3294
  22241022.286    -8647662.72549  -6719250.70149  22241023.5714   22241030.0554
  21973550.712   -14741183.11149 -11450078.29049  21973555.0594   21973559.7914
  23425513.494    -9477869.489 9  -7371143.129 9  23425513.477    23425521.435
  21851192.937    -5355976.72949  -4163462.62049  21851194.9794   21851200.9774
  23807599.477    -9555215.63349  -7430236.40849  23807600.0184   23807606.0624
  24588064.405    -1313984.008 9   -835198.657 9  24588066.772    24588073.430
  21020420.109   -27178387.75849 -21163819.59149  21020422.1214   21020427.4254
 96  2 18 20 35 30.0000000  0  8 19  2 31 12 18 16 28 27
  20489239.330   -21080505.91149 -16414391.12249  20489241.3574   20489247.0064
  22229852.763    -8706353.89449  -6764984.05749  22229855.0594   22229861.3234
  21980192.358   -14706285.26949 -11422885.14049  21980195.6954   21980201.0424
  23413204.618    -9542544.546 9  -7421539.198 9  23413206.690    23413214.935
  21867725.434    -5269098.55049  -4095765.35649  21867726.9674   21867732.7404
  23808946.337    -9548116.58549  -7424704.68849  23808950.1824   23808956.7844
  24603383.590    -1233485.944 9   -772472.882 9  24603385.323    24603389.417
  21010603.216   -27229974.78249 -21204017.24349  21010605.5964   21010610.7284
 96  2 18 20 36  0.0000000  0  8 19  2 31 12 18 16 28 27
  20490217.095   -21075369.36149 -16410388.60049  20490218.8244   20490224.2224
  22218739.529    -8764758.36649  -6810494.01649  22218740.8974   22218747.1754
  21986950.056   -14670782.05749 -11395220.27949  21986951.9544   21986957.2324
  23400929.077    -9607057.847 9  -7471809.230 9  23400930.427    23400938.028
  21884329.475    -5181843.29149  -4027774.25849  21884330.9724   21884336.9164
  23810400.348    -9540496.91249  -7418767.27049  23810400.4474   23810408.3404
  24618771.389    -1152627.425 9   -709466.239 9  24618772.754    24618779.201
  21000833.840   -27281317.47449 -21244024.50949  21000835.5424   21000840.4534
 96  2 18 20 36 30.0000000  0  8 19  2 31 12 18 16 28 27
  20491239.283   -21069999.39649 -16406204.19249  20491240.7684   20491246.3104
  22207678.257    -8822879.99849  -6855783.56549  22207680.6994   22207686.7674
  21993818.860   -14634686.41649 -11367093.77049  21993820.6294   21993825.8924
  23388680.271    -9671421.948 9  -7521962.994 9  23388682.332    23388690.451
  21900999.725    -5094237.35349  -3959509.91149  21901001.6054   21901008.4674
  23811945.214    -9532368.35049  -7412433.33249  23811946.6554   23811954.4374
  24634224.040    -1071422.676 9   -646189.803 9  24634224.912    24634230.398
  20991103.811   -27332453.59349 -21283870.80849  20991104.6344   20991109.8734
 96  2 18 20 37  0.0000000  0  8 19  2 31 12 18 16 28 27
  20492308.551   -21064381.20849 -16401826.36649  20492309.9784   20492315.1244
  22196672.859    -8880719.00549  -6900852.89949  22196674.2664   22196680.1254
  22000802.004   -14597994.50249 -11338502.64449  22000802.7214   22000808.1854
  23376460.558    -9735633.795 9  -7571998.128 9  23376462.379    23376472.112
  21917734.481    -5006297.46949  -3890985.35149  21917736.1394   21917742.6994
  23813586.735    -9523736.75249  -7405707.42249  23813589.6524   23813597.4764
  24649743.328     -989871.004 9   -582643.069 9  24649744.028    24649749.837
  20981409.416   -27383391.79649 -21323562.89449  20981411.3294   20981416.5384
 96  2 18 20 37 30.0000000  0  8 19  2 31 12 18 16 28 27
  20493426.231   -21058503.87049 -16397246.59849  20493427.9124   20493433.3594
  22185720.977    -8938276.32349  -6945702.72549  22185721.3014   22185727.3224
  22007892.946   -14560716.52449 -11309454.84449  22007896.4434   22007901.7164
  23364271.106    -9799697.784 9  -7621918.048 9  23364271.599    23364279.547
  21934528.980    -4918044.66249  -3822216.95349  21934530.4794   21934536.6674
  23815325.031    -9514596.30249  -7398584.97849  23815328.0304   23815336.1274
  24665326.280     -907978.990 9   -518831.105 9  24665327.143    24665332.906
  20971752.612   -27434144.72649 -21363110.61249  20971753.2324   20971758.8074
 96  2 18 20 38  0.0000000  0  8 19  2 31 12 18 16 28 27
  20494596.963   -21052349.04049 -16392450.60449  20494599.2994   20494604.6054
  22174817.783    -8995564.73449  -6990343.00749  22174820.1604   22174825.6144
  22015101.426   -14522846.47849 -11279945.68749  22015102.8324   22015107.8064
  23352103.658    -9863616.523 9  -7671724.793 9  23352107.909    23352116.764
  21951379.420    -4829492.33249  -3753215.15449  21951381.3694   21951387.0334
  23817167.950    -9504946.03149  -7391065.29849  23817164.4694   23817172.7614
  24680971.242     -825751.272 9   -454757.583 9  24680974.438    24680981.165
  20962124.154   -27484733.89849 -21402530.73149  20962126.5454   20962132.0084
 96  2 18 20 38 30.0000000  0  8 19  2 31 12 18 16 28 27
  20495823.942   -21045904.29949 -16387428.70349  20495825.8794   20495831.1614
  22163962.917    -9052611.64549  -7034795.11349  22163964.1234   22163970.2394
  22022417.339   -14484391.19149 -11249980.50249  22022421.0874   22022425.7374
  23339969.147    -9927399.869 9  -7721426.028 9  23339970.350    23339978.553
  21968284.325    -4740656.96749  -3683992.82049  21968286.1284   21968292.2264
  23819097.187    -9494809.26449  -7383166.52649  23819093.2304   23819101.9754
  24696683.605     -743200.102 9   -390431.993 9  24696683.858    24696689.474
  20952530.148   -27535155.78049 -21441820.49749  20952531.2444   20952537.1204
 96  2 18 20 39  0.0000000  0  8 19  2 31 12 18 16 28 27
  20497106.610   -21039164.57949 -16382176.95549  20497108.5034   20497113.6514
  22153151.969    -9109423.10049  -7079063.74549  22153153.3014   22153159.5884
  22029852.471   -14445333.47749 -11219545.89349  22029853.0414   22029858.1924
  23327858.985    -9991038.679 9  -7771014.632 9  23327860.191    23327868.529
  21985247.903    -4651513.43549  -3614530.35149  21985249.6704   21985255.4964
  23821113.770    -9484182.52849  -7374885.94849  23821115.7944   23821124.6914
  24712453.765     -660318.367 9   -325848.790 9  24712455.285    24712462.761
  20942969.416   -27585394.46549 -21480967.51049  20942971.4464   20942976.6124
